     2.11           OBSERVATION DATA    G (GPS)             RINEX VERSION / TYPE
teqc 2010Oct21 OPUS Account 20111026 21:02:51UTC            PGM / RUN BY / DATE
P 1523                                                      MARKER NAME
1194                                                        MARKER NUMBER
CSMIDDLETON NGS                                             OBSERVER / AGENCY
4624K01648 TRIMBLE NETR5 4.41                               REC # / TYPE / VERS
60165452 TRM41249.00 NONE                                   ANT # / TYPE
  -751477.9621 -5515265.1064  3103842.2487                  APPROX POSITION XYZ
        2.0000        0.0000        0.0000                  ANTENNA: DELTA H/E/N
     1     1                                                WAVELENGTH FACT L1/2
     5    L1    L2    C1    P1    P2                        # / TYPES OF OBSERV
    15                                                      LEAP SECONDS
  2011     8    11     0     0    0.0000000     GPS         TIME OF FIRST OBS
                                                            END OF HEADER
 11  8 11  0  0  0.0000000  0  9G10G17G04G28G12G27G05G09G02
 113943945.705 7  88787622.02045  21682802.148                    21682810.781
 116397074.388 7  90699125.260 7  22149622.297                    22149630.266
 106561917.976 8  83035380.10746  20278036.781                    20278044.555
 122297717.573 7  95296942.87244  23272482.344                    23272491.055
 121412744.208 7  94607394.137 6  23104082.969                    23104090.887
 119456054.770 7  93082742.93045  22731744.969                    22731754.434
 127466194.268 7  99324358.741 6  24256009.680                    24256023.008
 117341611.763 7  91435210.35345  22329397.063                    22329406.383
 110503416.756 8  86106782.97846  21028107.539                    21028113.941
 11  8 11  0  0 30.0000000  0  9G10G17G04G28G12G27G05G09G02
 113878233.853 7  88736418.01345  21670297.883                    21670306.129
 116436643.499 8  90729958.329 7  22157152.094                    22157159.617
 106606869.284 8  83070407.09146  20286590.758                    20286598.863
 122386008.810 7  95365741.11644  23289283.898                    23289292.551
 121320755.096 7  94535714.387 6  23086577.906                    23086585.879
 119494888.303 7  93113002.77044  22739134.039                    22739144.020
 127360564.658 7  99242050.257 6  24235909.422                    24235921.563
 117381161.015 7  91466027.91845  22336923.383                    22336932.359
 110463205.282 8  86075449.38446  21020455.422                    21020461.090
 11  8 11  0  1  0.0000000  0  9G10G17G04G28G12G27G05G09G02
 113812943.470 7  88685542.43045  21657873.133                    21657881.980
 116476307.259 8  90760865.129 7  22164699.492                    22164707.516
 106652226.105 8  83105750.05046  20295222.047                    20295230.047
 122474591.552 7  95434766.55144  23306140.820                    23306149.242
 121228915.329 7  94464150.971 6  23069101.047                    23069109.102
 119534082.182 7  93143543.42244  22746592.797                    22746602.363
 127254899.829 6  99159714.372 6  24215801.422                    24215813.863
 117421230.942 7  91497251.20445  22344548.492                    22344557.309
 110423362.044 8  86044402.74346  21012873.727                    21012879.844
 11  8 11  0  1 30.0000000  0  9G10G17G04G28G12G27G05G09G02
 113748077.266 7  88634997.37845  21645529.602                    21645537.977
 116516066.801 7  90791846.564 7  22172265.344                    22172273.531
 106697986.559 8  83141407.53846  20303930.164                    20303938.168
 122563464.347 6  95504017.98043  23323052.055                    23323061.563
 121137227.694 7  94392706.107 6  23051653.453                    23051661.848
 119573634.465 7  93174363.34245  22754119.563                    22754129.129
 127149202.290 6  99077352.958 6  24195687.750                    24195699.945
 117461819.227 7  91528878.41744  22352272.398                    22352281.313
 110383887.347 8  86013643.27046  21005361.914                    21005367.762
 11  8 11  0  2  0.0000000  0  9G10G17G04G28G12G27G05G09G02
 113683639.378 7  88584786.08045  21633267.406                    21633275.691
 116555922.058 7  90822902.584 7  22179849.477                    22179857.582
 106744148.937 8  83177378.21246  20312714.031                    20312721.750
 122652626.448 6  95573494.84443  23340019.469                    23340028.371
 121045695.120 7  94321382.056 6  23034235.000                    23034243.160
 119613543.902 7  93205461.54944  22761713.805                    22761723.336
 127043475.955 6  98994969.143 6  24175568.094                    24175581.371
 117502924.305 7  91560908.31145  22360094.289                    22360103.457
 110344782.193 8  85983171.75446  20997920.195                    20997926.492
 11  8 11  0  2 30.0000000  0  9G10G17G04G28G12G27G05G09G02
 113619632.256 7  88534910.43445  21621087.125                    21621095.281
 116595873.696 8  90854033.701 7  22187452.578                    22187460.059
 106790710.960 8  83213660.30646  20321574.648                    20321582.363
 122742075.882 6  95643195.60444  23357041.023                    23357050.262
 120954319.549 7  94250180.340 6  23016846.977                    23016854.547
 119653807.932 7  93236836.05344  22769376.234                    22769385.563
 126937723.430 6  98912564.913 6  24155443.773                    24155456.695
 117544543.393 7  91593338.74045  22368014.438                    22368023.047
 110306045.972 8  85952987.71746  20990549.555                    20990555.250
 11  8 11  0  3  0.0000000  0  9G10G17G04G28G12G27G05G09G02
 113556058.633 7  88485372.58545  21608989.453                    21608997.910
 116635922.382 8  90885240.444 7  22195073.195                    22195081.125
 106837669.692 8  83250251.51546  20330510.867                    20330518.422
 122831810.799 6  95713118.79644  23374117.109                    23374126.008
 120863103.213 7  94179102.709 6  22999489.086                    22999496.898
 119694424.143 7  93268484.99844  22777105.258                    22777114.559
 126831946.774 6  98830141.889 6  24135314.477                    24135327.512
 117586673.788 7  91626167.56445  22376031.297                    22376040.758
 110267678.292 8  85923090.84846  20983248.086                    20983253.848
 11  8 11  0  3 30.0000000  0  9G10G17G04G28G12G27G05G09G02
 113492921.214 7  88436174.64345  21596975.445                    21596983.484
 116676067.796 8  90916522.569 7  22202712.859                    22202720.563
 106885022.945 8  83287150.15746  20339521.508                    20339529.777
 122921829.842 7  95783263.41143  23391247.977                    23391256.340
 120772048.692 7  94108151.169 6  22982162.320                    22982170.023
 119735390.233 7  93300406.59844  22784900.586                    22784909.738
 126726148.455 6  98747701.966 6  24115182.328                    24115193.707
 117629312.716 7  91659392.65945  22384145.328                    22384154.098
 110229678.861 8  85893480.93446  20976016.992                    20976022.793
 11  8 11  0  4  0.0000000  0  9G10G17G04G28G12G27G05G09G02
 113430223.363 8  88387319.22045  21585043.711                    21585052.262
 116716310.823 8  90947880.757 7  22210371.164                    22210378.805
 106932768.797 8  83324354.70646  20348607.500                    20348615.117
 123012131.098 6  95853627.92143  23408430.797                    23408440.566
 120681158.365 7  94037327.556 6  22964866.508                    22964873.559
 119776704.217 7  93332599.26644  22792762.547                    22792771.508
 126620331.712 6  98665247.705 6  24095045.398                    24095057.746
 117672457.943 7  91693012.27445  22392355.672                    22392364.703
 110192047.780 8  85864158.04146  20968855.969                    20968861.676
 11  8 11  0  4 30.0000000  0  9G10G17G04G28G12G27G05G09G02
 113367968.004 7  88338808.58245  21573196.844                    21573205.574
 116756651.892 8  90979315.338 7  22218047.484                    22218055.145
 106980904.927 8  83361863.37346  20357767.641                    20357775.613
 123102713.293 6  95924211.34644  23425668.008                    23425678.102
 120590434.886 7  93966633.951 6  22947602.461                    22947609.824
 119818363.897 7  93365061.31744  22800690.352                    22800699.117
 126514499.450 6  98582781.354 6  24074905.836                    24074918.520
 117716106.874 7  91727024.38344  22400661.523                    22400670.746
 110154785.245 8  85835122.31746  20961765.086                    20961770.828
 11  8 11  0  5  0.0000000  0  9G10G17G04G28G12G27G05G09G02
 113306157.595 7  88290644.66945  21561434.625                    21561443.254
 116797092.000 8  91010827.095 7  22225743.211                    22225750.762
 107029428.858 8  83399674.22746  20367001.422                    20367009.152
 123193574.500 6  95995012.19443  23442958.344                    23442968.477
 120499880.301 7  93896071.941 6  22930370.367                    22930378.168
 119860366.859 7  93397790.85044  22808683.219                    22808692.711
 126408654.175 6  98500304.846 6  24054764.211                    24054776.059
 117760256.532 7  91761426.68045  22409063.297                    22409072.352
 110117890.790 8  85806373.41646  20954744.578                    20954750.258
 11  8 11  0  5 30.0000000  0  9G10G17G04G28G12G27G05G09G02
 113244795.439 7  88242830.04745  21549758.055                    21549766.879
 116837630.865 7  91042415.805 7  22233457.266                    22233465.074
 107078338.631 8  83437785.73446  20376308.523                    20376316.926
 123284713.914 6  96066029.80343  23460302.336                    23460311.758
 120409497.438 7  93825643.767 6  22913170.992                    22913178.684
 119902711.250 7  93430786.42044  22816741.258                    22816750.375
 126302798.955 7  98417820.546 6  24034620.867                    24034632.129
 117804904.866 7  91796217.54245  22417559.563                    22417568.637
 110081364.803 8  85777911.63246  20947793.664                    20947799.461
 11  8 11  0  6  0.0000000  0  9G10G17G04G28G12G27G05G09G02
 113183884.516 7  88195367.01445  21538166.914                    21538175.188
 116878269.293 8  91074082.089 7  22241190.680                    22241198.348
 107127632.226 8  83476196.31746  20385688.719                    20385696.578
 123376129.611 6  96137262.71443  23477698.164                    23477707.523
 120319289.062 7  93755351.532 6  22896005.141                    22896012.547
 119945394.920 7  93464046.36144  22824863.563                    22824872.621
 126196936.263 7  98335330.435 6  24014474.961                    24014486.906
 117850049.144 7  91831394.85445  22426149.852                    22426159.137
 110045206.997 8  85749736.74846  20940913.422                    20940918.711
 11  8 11  0  6 30.0000000  0  9G10G17G04G28G12G27G05G09G02
 113123426.993 7  88148257.28945  21526662.391                    21526670.902
 116919007.194 7  91105825.882 7  22248943.047                    22248950.699
 107177306.516 8  83514903.55746  20395141.305                    20395149.254
 123467819.521 6  96208709.31143  23495146.641                    23495155.145
 120229257.010 7  93685196.741 6  22878872.047                    22878880.027
 119988414.946 7  93497568.42144  22833050.359                    22833059.703
 126091068.835 6  98252836.643 6  23994328.625                    23994340.762
 117895686.254 7  91866956.19545  22434834.258                    22434843.988
 110009416.463 8  85721848.04746  20934102.555                    20934107.906
 11  8 11  0  7  0.0000000  0  9G10G17G04G28G12G27G05G09G02
 113063425.477 7  88101502.89845  21515244.500                    21515252.891
 116959845.591 8  91137647.997 7  22256714.195                    22256721.977
 107227359.163 8  83553905.61346  20404666.188                    20404674.234
 123559781.764 6  96280368.10943  23512646.320                    23512655.273
 120139403.572 7  93615181.114 7  22861773.430                    22861780.996
 120031768.948 7  93531350.72244  22841300.297                    22841309.684
 125985199.091 6  98170341.052 6  23974182.367                    23974194.031
 117941813.357 7  91902899.34844  22443612.461                    22443621.574
 109973992.916 8  85694245.30446  20927361.500                    20927366.953
 11  8 11  0  7 30.0000000  0  9G10G17G04G28G12G27G05G09G02
 113003883.526 7  88055106.60745  21503914.086                    21503922.535
 117000784.983 8  91169548.784 7  22264504.977                    22264512.555
 107277788.315 8  83593201.05546  20414262.570                    20414270.703
 123652015.450 6  96352238.42743  23530197.164                    23530207.121
 120049732.104 7  93545307.308 6  22844709.727                    22844717.391
 120075455.316 7  93565391.99844  22849613.383                    22849622.504
 125879329.864 7  98087845.819 6  23954035.969                    23954047.000
 117988428.267 7  91939222.62144  22452482.836                    22452491.477
 109938937.203 8  85666929.18246  20920690.883                    20920696.785
 11  8 11  0  8  0.0000000  0  9G10G17G04G28G12G27G05G09G02
 112944803.624 7  88009070.36145  21492671.328                    21492679.871
 117041825.441 8  91201528.339 7  22272314.461                    22272322.602
 107328591.462 8  83632787.91446  20423930.125                    20423937.738
 123744518.465 6  96424318.61443  23547801.180                    23547809.734
 119960244.423 7  93475576.715 6  22827680.805                    22827688.102
 120119471.615 7  93599690.35444  22857989.289                    22857998.977
 125773464.380 7  98005353.499 6  23933890.211                    23933901.590
 118035528.044 7  91975923.70345  22461445.234                    22461454.773
 109904248.370 8  85639898.95046  20914089.672                    20914095.340
 11  8 11  0  8 30.0000000  0  9G10G17G04G28G12G27G05G09G02
 112886188.394 7  87963396.19645  21481517.430                    21481525.598
 117082967.827 7  91233587.318 7  22280143.648                    22280151.508
 107379766.221 8  83672664.34946  20433668.320                    20433676.234
 123837289.123 6  96496607.35743  23565453.773                    23565463.410
 119870942.625 7  93405990.967 6  22810687.125                    22810694.820
 120163815.215 7  93634243.76244  22866427.945                    22866437.121
 125667605.112 6  97922866.031 6  23913745.758                    23913757.359
 118083110.026 7  92013000.53645  22470500.391                    22470508.961
 109869926.093 8  85613154.33946  20907558.094                    20907563.906
 11  8 11  0  9  0.0000000  0  9G10G17G04G28G12G27G05G09G02
 112828040.613 7  87918086.27345  21470452.055                    21470460.055
 117124212.356 8  91265725.898 7  22287992.070                    22287999.672
 107431310.497 8  83712828.71446  20443476.766                    20443484.223
 123930326.070 6  96569103.59143  23583158.633                    23583168.012
 119781829.842 7  93336552.505 7  22793729.711                    22793737.641
 120208484.030 7  93669050.57944  22874928.125                    22874937.500
 125561755.063 7  97840385.733 6  23893602.773                    23893614.574
 118131171.450 7  92050450.96045  22479646.297                    22479655.387
 109835970.585 8  85586695.52946  20901096.750                    20901102.023
 11  8 11  0  9 30.0000000  0  9G10G17G04G28G12G27G05G09G02
 112770363.287 7  87873142.94345  21459476.836                    21459485.082
 117165559.801 7  91297944.670 7  22295860.141                    22295868.250
 107483222.111 8  83753279.32046  20453355.180                    20453363.273
 124023627.340 6  96641805.75843  23600913.328                    23600922.813
 119692908.526 7  93267263.245 7  22776808.234                    22776815.484
 120253476.016 7  93704109.20744  22883489.859                    22883499.469
 125455917.221 7  97757914.927 6  23873462.805                    23873473.605
 118179709.840 7  92088273.04645  22488882.555                    22488891.879
 109802381.693 8  85560522.39446  20894704.563                    20894710.137
 11  8 11  0 10  0.0000000  0  9G10G17G04G28G12G27G05G09G02
 112713158.929 8  87828568.17645  21448590.805                    21448599.332
 117207010.474 7  91330243.868 7  22303748.469                    22303755.844
 107535498.607 8  83794014.24246  20463303.164                    20463311.047
 124117191.209 6  96714712.61343  23618717.703                    23618727.363
 119604181.181 7  93198125.125 7  22759923.906                    22759932.016
 120298788.676 7  93739417.72744  22892112.563                    22892122.250
 125350094.136 7  97675455.618 6  23853324.852                    23853335.859
 118228722.040 7  92126464.33545  22498209.500                    22498218.684
 109769158.749 8  85534634.40246  20888382.672                    20888388.270
 11  8 11  0 10 30.0000000  0  9G10G17G04G28G12G27G05G09G02
 112656430.249 8  87784364.05445  21437795.570                    21437803.695
 117248564.819 7  91362623.844 7  22311656.063                    22311663.828
 107588137.242 8  83835031.35046  20473319.813                    20473327.629
 124211016.115 6  96787822.78243  23636572.922                    23636582.008
 119515650.300 7  93129140.098 6  22743077.063                    22743084.539
 120344419.452 7  93774974.10744  22900795.227                    22900805.203
 125244288.297 7  97593009.755 6  23833191.133                    23833202.051
 118278205.251 7  92165022.65745  22507625.727                    22507635.355
 109736301.461 8  85509031.34546  20882130.086                    20882135.930
 11  8 11  0 11  0.0000000  0  9G10G17G04G28G12G27G05G09G02
 112600180.054 8  87740532.77645  21427091.492                    21427099.434
 117290223.789 8  91395085.348 7  22319583.398                    22319591.203
 107641136.091 8  83876329.13846  20483405.383                    20483413.164
 124305100.344 6  96861135.07343  23654476.148                    23654485.891
 119427318.026 7  93060309.808 7  22726267.961                    22726275.520
 120390366.031 7  93810776.57644  22909538.703                    22909549.090
 125138503.345 6  97510580.133 6  23813059.734                    23813070.809
 118328156.712 7  92203945.81944  22517131.234                    22517140.824
 109703809.967 8  85483713.32746  20875947.461                    20875953.160
 11  8 11  0 11 30.0000000  0  9G10G17G04G28G12G27G05G09G02
 112544411.280 8  87697076.62546  21416479.141                    21416487.344
 117331987.768 7  91427628.679 7  22327530.719                    22327538.445
 107694493.107 8  83917906.01546  20493558.984                    20493566.773
 124399442.327 6  96934648.16643  23672428.625                    23672438.172
 119339187.339 7  92991636.601 7  22709497.148                    22709504.977
 120436626.424 7  93846823.57344  22918342.109                    22918351.887
 125032741.604 7  97428168.623 6  23792933.523                    23792945.176
 118378574.007 7  92243231.98145  22526725.344                    22526734.750
 109671684.017 8  85458680.15146  20869833.703                    20869839.398
 11  8 11  0 12  0.0000000  0  9G10G17G04G28G12G27G05G09G02
 112489126.124 8  87653997.31745  21405958.672                    21405966.844
 117373856.803 8  91460253.876 7  22335498.109                    22335506.113
 107748205.477 8  83959759.79946  20503779.898                    20503787.672
 124494039.834 6  97008360.39743  23690430.711                    23690440.313
 119251260.537 7  92923122.252 7  22692765.023                    22692772.906
 120483197.838 7  93883112.92944  22927204.844                    22927214.457
 124927005.730 7  97345777.259 6  23772813.188                    23772823.742
 118429453.745 7  92282878.48645  22536407.633                    22536416.828
 109639922.721 8  85433931.11146  20863789.977                    20863795.383
 11  8 11  0 12 30.0000000  0  9G10G17G04G28G12G27G05G09G02
 112434327.631 8  87611297.22045  21395530.984                    21395539.063
 117415831.785 7  91492961.615 7  22343485.930                    22343493.688
 107802271.115 8  84001888.85946  20514068.211                    20514076.074
 124588891.526 6  97082270.70443  23708479.039                    23708489.691
 119163540.225 7  92854768.791 7  22676072.250                    22676080.230
 120530078.031 7  93919642.88544  22936125.602                    22936135.313
 124821298.968 7  97263408.600 6  23752697.883                    23752708.434
 118480793.313 7  92322883.30945  22546177.180                    22546186.492
 109608526.219 8  85409466.31646  20857815.297                    20857821.105
 11  8 11  0 13  0.0000000  0  9G10G17G04G28G12G27G05G09G02
 112380018.896 8  87568978.75545  21385195.992                    21385204.547
 117457913.271 7  91525752.361 7  22351493.414                    22351501.633
 107856687.665 8  84044291.35546  20524423.445                    20524431.371
 124683995.715 6  97156377.74043  23726578.164                    23726587.629
 119076029.034 7  92786578.290 7  22659419.414                    22659427.625
 120577264.900 7  93956411.82344  22945104.445                    22945114.723
 124715624.217 7  97181064.840 6  23732587.688                    23732598.648
 118532590.182 7  92363244.48045  22556034.563                    22556043.133
 109577494.427 8  85385285.71646  20851909.984                    20851915.500
 11  8 11  0 13 30.0000000  0  9G10G17G04G28G12G27G05G09G02
 112326201.670 8  87527043.27745  21374955.172                    21374963.465
 117500101.843 7  91558626.548 7  22359521.781                    22359529.754
 107911452.446 8  84086965.19746  20534844.727                    20534852.840
 124779350.000 6  97230679.65243  23744723.266                    23744733.094
 118988728.969 7  92718552.273 7  22642807.164                    22642814.887
 120624755.441 7  93993417.39744  22954141.500                    22954151.871
 124609983.718 7  97098747.795 6  23712485.203                    23712495.984
 118584840.927 7  92403959.30545  22565977.266                    22565986.309
 109546826.380 8  85361388.55446  20846074.133                    20846079.457
 11  8 11  0 14  0.0000000  0  9G10G17G04G28G12G27G05G09G02
 112272878.490 8  87485492.76746  21364807.984                    21364816.496
 117542397.339 7  91591584.037 7  22367570.359                    22367578.758
 107966563.176 8  84129908.61146  20545332.313                    20545340.332
 124874952.931 7  97305175.35443  23762916.492                    23762925.641
 118901642.815 7  92650692.942 7  22626234.836                    22626242.855
 120672547.272 7  94030657.70444  22963236.914                    22963246.434
 124504380.991 7  97016460.153 6  23692389.883                    23692400.418
 118637542.777 7  92445025.65245  22576006.102                    22576014.699
 109516521.977 8  85337774.75046  20840307.219                    20840313.063
 11  8 11  0 14 30.0000000  0  9G10G17G04G28G12G27G05G09G02
 112220052.121 8  87444329.39345  21354755.703                    21354763.727
 117584800.492 7  91624625.432 7  22375639.484                    22375647.035
 108022017.556 8  84173119.80246  20555884.781                    20555892.789
 124970803.108 6  97379863.66043  23781155.266                    23781165.633
 118814773.170 7  92583002.336 7  22609704.297                    22609712.160
 120720638.063 7  94068131.01244  22972388.164                    22972397.195
 124398818.226 7  96934203.682 6  23672301.625                    23672312.547
 118690692.929 7  92486441.32045  22586119.961                    22586129.285
 109486580.747 8  85314443.93846  20834609.484                    20834615.598
 11  8 11  0 15  0.0000000  0  9G10G17G04G28G12G27G05G09G02
 112167724.934 8  87403554.98645  21344797.953                    21344805.703
 117627312.267 7  91657751.457 7  22383729.086                    22383737.352
 108077813.246 8  84216596.94446  20566502.344                    20566510.145
 125066897.982 6  97454742.69543  23799441.773                    23799451.637
 118728122.260 7  92515482.156 7  22593215.055                    22593222.938
 120769025.387 7  94105835.36944  22981595.867                    22981605.754
 124293298.503 7  96851980.717 6  23652221.703                    23652231.996
 118744288.211 7  92528203.82645  22596318.766                    22596327.777
 109457002.216 8  85291395.74946  20828981.070                    20828986.891
 11  8 11  0 15 30.0000000  0  9G10G17G04G28G12G27G05G09G02
 112115900.104 8  87363172.00945  21334936.008                    21334944.555
 117669933.154 7  91690962.500 7  22391840.016                    22391847.777
 108133948.273 8  84260338.51246  20577184.344                    20577192.375
 125163236.339 6  97529811.42443  23817774.852                    23817784.512
 118641693.333 7  92448134.948 7  22576768.156                    22576776.406
 120817707.168 7  94143769.16344  22990859.188                    22990869.496
 124187825.019 7  96769793.824 6  23632150.289                    23632161.004
 118798325.976 7  92570311.13845  22606601.906                    22606611.012
 109427786.657 8  85268630.40046  20823421.461                    20823427.266
 11  8 11  0 16  0.0000000  0  9G10G17G04G28G12G27G05G09G02
 112064579.293 8  87323181.79545  21325170.164                    21325178.367
 117712663.064 8  91724258.508 7  22399970.969                    22399978.980
 108190419.622 8  84304342.14546  20587930.852                    20587938.734
 125259815.863 6  97605068.11543  23836153.563                    23836162.965
 118555488.526 7  92380962.371 7  22560363.906                    22560371.980
 120866680.338 7  94181930.00644  23000179.070                    23000188.500
 124082400.283 7  96687644.876 6  23612088.453                    23612098.516
 118852802.871 7  92612760.62944  22616968.195                    22616977.668
 109398932.753 8  85246146.85246  20817930.555                    20817936.371
 11  8 11  0 16 30.0000000  0  9G10G17G04G28G12G27G05G09G02
 112013765.367 8  87283586.54946  21315500.148                    21315508.602
 117755503.068 7  91757640.309 7  22408123.055                    22408130.867
 108247225.196 8  84348606.21746  20598740.484                    20598748.004
 125356635.162 6  97680511.57343  23854578.125                    23854587.172
 118469510.180 7  92313966.271 7  22544002.961                    22544010.906
 120915942.505 7  94220316.04844  23009553.070                    23009562.730
 123977027.061 7  96605536.086 6  23592036.852                    23592046.938
 118907716.257 7  92655550.24044  22627418.078                    22627426.922
 109370440.439 8  85223945.07446  20812508.500                    20812514.621
 11  8 11  0 17  0.0000000  0  9G10G17G04G28G12G27G05G09G02
 111963460.483 8  87244387.96845  21305927.766                    21305935.949
 117798453.490 7  91791108.140 7  22416296.086                    22416304.266
 108304362.271 8  84393128.60346  20609613.461                    20609621.246
 125453691.700 6  97756139.91243  23873046.813                    23873056.723
 118383760.839 7  92247148.620 7  22527685.445                    22527693.309
 120965491.181 7  94258925.32544  23018982.313                    23018992.055
 123871708.417 7  96523469.796 6  23571995.125                    23572005.707
 118963062.616 7  92698677.23345  22637950.461                    22637959.508
 109342309.124 8  85202024.58246  20807155.719                    20807161.555
 11  8 11  0 17 30.0000000  0  9G10G17G04G28G12G27G05G09G02
 111913667.884 8  87205588.56046  21296452.344                    21296460.734
 117841514.960 7  91824662.517 7  22424490.828                    22424498.324
 108361829.196 8  84437907.99946  20620548.953                    20620557.367
 125550984.488 6  97831952.35942  23891560.648                    23891570.184
 118298243.659 7  92180511.886 7  22511411.891                    22511419.449
 121015324.380 7  94297756.32344  23028465.453                    23028475.031
 123766447.549 7  96441448.531 6  23551963.742                    23551974.980
 119018839.639 7  92742139.80244  22648564.469                    22648572.930
 109314539.029 8  85180385.55946  20801871.430                    20801877.031
 11  8 11  0 18  0.0000000  0  9G10G17G04G28G12G27G05G09G02
 111864389.559 8  87167189.89346  21287074.898                    21287083.086
 117884688.083 7  91858303.897 7  22432706.570                    22432714.004
 108419623.579 8  84482942.57446  20631546.492                    20631554.480
 125648511.420 6  97907947.26542  23910120.070                    23910129.070
 118212960.733 7  92114057.696 7  22495183.578                    22495191.070
 121065439.384 7  94336806.92044  23038002.148                    23038011.668
 123661246.912 7  96359474.195 6  23531944.867                    23531955.523
 119075043.975 7  92785935.33845  22659260.336                    22659269.117
 109287129.202 8  85159027.27246  20796655.258                    20796661.246
 11  8 11  0 18 30.0000000  0  9G10G17G04G28G12G27G05G09G02
 111815627.604 8  87129193.58445  21277796.117                    21277803.926
 117927973.390 7  91892032.677 7  22440943.078                    22440950.809
 108477742.290 8  84528229.85946  20642606.320                    20642614.012
 125746270.004 6  97984122.69543  23928723.641                    23928732.668
 118127914.391 7  92047787.869 7  22478999.477                    22479007.652
 121115833.263 7  94376074.80344  23047591.813                    23047601.211
 123556109.149 7  96277548.851 6  23511938.023                    23511948.066
 119131672.162 7  92830061.14345  22670036.227                    22670044.676
 109260078.753 8  85137949.01646  20791507.680                    20791513.207
 11  8 11  0 19  0.0000000  0  9G10G17G04G28G12G27G05G09G02
 111767385.246 8  87091602.15745  21268615.625                    21268623.992
 117971371.456 7  91925849.314 7  22449201.875                    22449209.777
 108536183.745 8  84573768.64146  20653727.625                    20653735.531
 125844259.301 6  98060477.84342  23947369.586                    23947379.047
 118043107.669 7  91981704.769 7  22462861.289                    22462869.105
 121166504.315 7  94415558.66944  23057233.953                    23057243.793
 123451038.066 7  96195675.443 6  23491943.242                    23491953.613
 119188722.142 7  92874515.62044  22680891.641                    22680901.316
 109233388.391 8  85117151.35346  20786428.875                    20786434.012
 11  8 11  0 19 30.0000000  0  9G10G17G04G28G12G27G05G09G02
 111719664.165 8  87054416.92445  21259534.680                    21259542.617
 118014882.487 7  91959753.974 7  22457481.922                    22457489.617
 108594945.194 8  84619556.76046  20664909.508                    20664917.254
 125942476.944 6  98137010.93243  23966059.586                    23966069.816
 117958542.955 7  91915810.235 7  22446769.422                    22446777.141
 121217449.375 7  94455256.04544  23066929.000                    23066938.586
 123346035.902 7  96113855.737 6  23471962.031                    23471972.301
 119246190.224 7  92919295.89444  22691827.594                    22691837.574
 109207056.824 8  85096633.26946  20781417.602                    20781423.703
 11  8 11  0 20  0.0000000  0  9G10G17G04G28G12G27G05G09G02
 111672467.092 8  87017640.01545  21250553.258                    21250561.234
 118058507.513 7  91993747.462 7  22465782.984                    22465790.934
 108654024.403 8  84665592.48746  20676151.711                    20676159.980
 126040921.148 6  98213720.54043  23984793.508                    23984803.309
 117874222.739 7  91850106.225 7  22430723.531                    22430730.820
 121268666.065 7  94495165.09944  23076674.445                    23076684.895
 123241105.725 7  96032092.141 6  23451994.305                    23452005.223
 119304073.336 7  92964399.56844  22702843.203                    22702852.023
 109181083.663 8  85076394.46546  20776475.406                    20776481.281
 11  8 11  0 20 30.0000000  0  9G10G17G04G28G12G27G05G09G02
 111625795.906 8  86981272.88946  21241671.922                    21241680.000
 118102246.499 7  92027829.761 7  22474106.508                    22474114.266
 108713418.645 8  84711873.69446  20687454.297                    20687461.906
 126139589.687 6  98290605.00243  24003569.984                    24003579.430
 117790149.644 7  91784594.776 7  22414724.711                    22414732.664
 121320151.543 7  94535283.56644  23086472.273                    23086482.070
 123136250.132 7  95950386.663 6  23432040.742                    23432051.418
 119362368.171 7  93009824.04744  22713935.820                    22713945.227
 109155468.003 8  85056434.23846  20771600.781                    20771606.223
 11  8 11  0 21  0.0000000  0 10G10G17G04G28G12G27G05G09G02G30
 111579653.468 8  86945317.76745  21232891.227                    21232899.340
 118146100.620 7  92062001.775 7  22482451.578                    22482459.516
 108773125.958 8  84758398.84946  20698816.219                    20698824.211
 126238481.141 6  98367663.17043  24022388.438                    24022398.109
 117706326.337 7  91719277.963 7  22398773.961                    22398781.125
 121371903.639 7  94575609.79744  23096320.445                    23096330.438
 123031472.385 7  95868741.818 6  23412102.508                    23412112.637
 119421072.367 7  93055567.52544  22725106.664                    22725115.828
 109130210.199 8  85036752.85846  20766794.359                    20766800.156
 128049346.11617  99778774.79753  24366986.945                    24366997.176
 11  8 11  0 21 30.0000000  0 10G10G17G04G28G12G27G05G09G02G30
 111534041.911 8  86909776.33246  21224211.734                    21224219.742
 118190070.311 7  92096263.848 7  22490818.797                    22490826.746
 108833143.797 8  84805165.97946  20710237.008                    20710245.211
 126337593.535 6  98444893.47843  24041248.797                    24041258.320
 117622755.141 7  91654157.590 7  22382870.406                    22382878.445
 121423919.705 7  94616141.71744  23106218.430                    23106228.633
 122926775.372 7  95787159.879 6  23392179.133                    23392189.402
 119480182.477 7  93101627.30444  22736355.156                    22736365.266
 109105309.400 8  85017349.65646  20762056.063                    20762061.324
 127942444.805 7  99695475.08843  24346644.961                    24346654.258
 11  8 11  0 22  0.0000000  0 10G10G17G04G28G12G27G05G09G02G30
 111488963.577 8  86874650.39046  21215633.281                    21215641.453
 118234156.028 7  92130616.329 7  22499207.750                    22499216.219
 108893470.158 8  84852173.51246  20721716.898                    20721724.715
 126436924.739 6  98522294.29543  24060151.063                    24060160.609
 117539438.999 7  91589235.971 7  22367015.797                    22367023.754
 121476197.402 7  94656877.50944  23116167.055                    23116177.074
 122822162.003 7  95705643.106 6  23372271.563                    23372281.590
 119539695.594 7  93148001.10444  22747680.758                    22747689.613
 109080765.133 8  84998224.27346  20757385.344                    20757390.879
 127835678.983 6  99612280.97143  24326327.820                    24326337.281
 11  8 11  0 22 30.0000000  0 10G10G17G04G28G12G27G05G09G02G30
 111444420.728 8  86839941.70945  21207157.219                    21207165.215
 118278358.327 7  92165059.665 7  22507619.766                    22507627.648
 108954102.229 8  84899419.25446  20733254.930                    20733262.645
 126536472.837 6  98599864.10943  24079093.758                    24079104.633
 117456380.297 7  91524514.952 7  22351210.570                    22351217.832
 121528734.048 7  94697815.08744  23126164.414                    23126174.922
 122717635.300 7  95624193.849 6  23352380.672                    23352390.938
 119599608.502 7  93194686.42944  22759081.578                    22759090.637
 109056576.513 8  84979376.01646  20752782.289                    20752788.070
 127729051.016 6  99529194.32643  24306037.500                    24306046.551
 11  8 11  0 23  0.0000000  0 10G10G17G04G28G12G27G05G09G02G30
 111400415.330 8  86805651.82446  21198783.484                    21198791.793
 118322677.955 7  92199594.401 7  22516052.891                    22516061.145
 109015038.163 8  84946901.78246  20744850.250                    20744858.559
 126636236.143 6  98677601.64243  24098078.547                    24098089.473
 117373581.672 7  91459996.572 7  22335454.148                    22335462.129
 121581527.168 7  94738952.52744  23136210.445                    23136220.965
 122613198.229 7  95542814.431 6  23332507.102                    23332516.918
 119659917.828 7  93241680.65745  22770557.719                    22770567.461
 109032743.550 8  84960804.88846  20748247.281                    20748252.715
 127622563.667 6  99446217.21043  24285773.719                    24285783.559
 11  8 11  0 23 30.0000000  0 10G10G17G04G28G12G27G05G09G02G30
 111356949.728 8  86771782.55546  21190512.016                    21190520.758
 118367115.084 7  92234220.716 7  22524509.563                    22524517.598
 109076275.135 8  84994618.88546  20756503.914                    20756511.480
 126736212.350 6  98755505.02143  24117103.203                    24117114.301
 117291045.751 7  91395682.900 7  22319747.930                    22319756.117
 121634574.005 7  94780287.64544  23146304.703                    23146315.523
 122508853.661 7  95461507.101 6  23312650.219                    23312660.883
 119720620.527 7  93288981.41044  22782109.477                    22782118.664
 109009265.376 8  84942510.22346  20743779.422                    20743784.977
 127516219.580 6  99363351.70942  24265536.945                    24265546.953
 11  8 11  0 24  0.0000000  0 10G10G17G04G28G12G27G05G09G02G30
 111314026.427 8  86738335.84946  21182344.352                    21182352.195
 118411670.721 7  92268939.353 7  22532987.969                    22532996.063
 109137811.087 8  85042568.95646  20768213.352                    20768221.590
 126836399.895 6  98833573.10343  24136168.570                    24136179.570
 117208774.907 7  91331575.780 7  22304092.344                    22304099.953
 121687872.246 7  94821818.66744  23156447.250                    23156457.914
 122404604.277 7  95380273.936 6  23292812.320                    23292822.488
 119781713.466 7  93336586.23544  22793734.992                    22793744.133
 108986141.583 8  84924491.70246  20739379.078                    20739384.777
 127410021.544 6  99280600.04543  24245327.352                    24245337.668
 11  8 11  0 24 30.0000000  0 10G10G17G04G28G12G27G05G09G02G30
 111271647.172 8  86705313.07946  21174279.203                    21174287.480
 118456345.161 7  92303750.590 7  22541489.063                    22541497.262
 109199643.204 8  85090749.81146  20779979.844                    20779987.988
 126936796.260 6  98911803.88542  24155273.273                    24155284.215
 117126771.587 7  91267677.102 7  22288487.633                    22288495.543
 121741418.837 7  94863543.21444  23166637.188                    23166647.059
 122300453.108 7  95299117.309 7  23272993.570                    23273003.613
 119843193.221 7  93384492.49844  22805433.539                    22805443.344
 108963370.888 8  84906748.31346  20735046.164                    20735051.465
 127303971.807 6  99197963.96642  24225147.234                    24225157.277
 11  8 11  0 25  0.0000000  0 10G10G17G04G28G12G27G05G09G02G30
 111229814.184 8  86672715.96745  21166319.266                    21166326.871
 118501138.909 7  92338654.777 7  22550013.453                    22550021.313
 109261769.564 8  85139159.94446  20791801.813                    20791809.672
 127037399.880 6  98990196.19543  24174417.398                    24174428.563
 117045038.481 7  91203988.991 7  22272934.492                    22272942.285
 121795211.562 7  94905459.56944  23176873.883                    23176883.996
 122196403.277 7  95218039.648 6  23253193.391                    23253203.094
 119905057.174 7  93432698.11744  22817206.836                    22817216.184
 108940953.273 8  84889280.06046  20730780.023                    20730785.500
 127198073.439 6  99115445.78942  24204994.859                    24205004.559
 11  8 11  0 25 30.0000000  0 10G10G17G04G28G12G27G05G09G02G30
 111188529.835 8  86640546.36946  21158462.867                    21158470.703
 118546052.593 7  92373652.434 7  22558560.313                    22558567.750
 109324187.638 8  85187797.39446  20803679.891                    20803687.625
 127138208.701 6  99068748.36742  24193600.945                    24193611.762
 116963578.637 7  91140513.803 7  22257433.039                    22257440.848
 121849247.681 7  94947565.57344  23187156.500                    23187167.078
 122092457.452 7  95137043.027 6  23233412.547                    23233422.352
 119967301.665 7  93481200.28144  22829051.125                    22829060.539
 108918888.071 8  84872086.40446  20726581.086                    20726586.602
 127092329.015 6  99033047.61643  24184871.578                    24184882.164
 11  8 11  0 26  0.0000000  0 10G10G17G04G28G12G27G05G09G02G30
 111147796.007 8  86608805.74246  21150711.188                    21150719.277
 118591086.924 7  92408744.100 7  22567129.148                    22567137.988
 109386894.962 8  85236660.23346  20815612.438                    20815620.691
 127239220.655 6  99147458.79442  24212823.648                    24212833.750
 116882394.185 7  91077253.208 7  22241984.383                    22241992.223
 121903524.391 7  94989859.03844  23197485.156                    23197495.566
 121988618.866 7  95056129.986 6  23213653.195                    23213662.457
 120029923.617 7  93529996.55744  22840967.805                    22840976.992
 108897174.660 8  84855166.86746  20722449.094                    20722454.586
 126986741.259 6  98950771.56643  24164778.898                    24164789.656
 11  8 11  0 26 30.0000000  0 10G10G17G04G28G12G27G05G09G02G30
 111107614.386 8  86577495.41246  21143065.063                    21143073.379
 118636242.150 7  92443929.973 7  22575722.500                    22575730.852
 109449888.865 8  85285746.38046  20827599.773                    20827607.691
 127340433.652 6  99226325.97442  24232083.727                    24232093.664
 116801487.486 8  91014209.062 7  22226588.195                    22226595.754
 121958038.809 7  95032337.74344  23207858.180                    23207868.605
 121884889.981 7  94975302.400 6  23193913.563                    23193923.516
 120092919.351 7  93579084.08444  22852955.875                    22852965.047
 108875811.964 8  84838520.62246  20718383.922                    20718389.516
 126881312.372 6  98868619.23643  24144717.078                    24144726.746
 11  8 11  0 27  0.0000000  0 10G10G17G04G28G12G27G05G09G02G30
 111067987.498 8  86546617.34746  21135524.445                    21135532.578
 118681519.102 7  92479210.693 7  22584338.523                    22584346.520
 109513167.774 8  85335054.60746  20839641.891                    20839650.020
 127441845.917 6  99305348.38042  24251381.875                    24251392.645
 116720861.502 7  90951383.649 7  22211245.539                    22211253.258
 122012788.925 7  95075000.09344  23218277.641                    23218287.855
 121781274.166 7  94894562.932 6  23174196.234                    23174205.820
 120156286.121 7  93628460.75044  22865013.516                    22865023.109
 108854799.987 8  84822147.67346  20714385.492                    20714391.117
 126776045.772 6  98786593.39343  24124685.570                    24124694.988
 11  8 11  0 27 30.0000000  0 10G10G17G04G28G12G27G05G09G02G30
 111028917.311 8  86516173.07146  21128089.469                    21128097.605
 118726918.409 7  92514586.744 7  22592977.516                    22592985.992
 109576729.059 8  85384582.86546  20851736.867                    20851744.555
 127543455.503 6  99384524.53542  24270717.805                    24270728.461
 116640518.982 8  90888779.113 7  22195956.945                    22195964.613
 122067772.023 7  95117844.00244  23228740.859                    23228750.273
 121677774.578 7  94813914.009 6  23154501.109                    23154510.363
 120220020.920 7  93678124.16144  22877141.914                    22877151.438
 108834138.189 8  84806047.58946  20710453.688                    20710459.098
 126670944.102 7  98704696.05044  24104684.875                    24104694.758
 11  8 11  0 28  0.0000000  0 10G10G17G04G28G12G27G05G09G02G30
 110990405.798 8  86486164.11045  21120761.000                    21120769.203
 118772440.356 7  92550058.355 7  22601640.523                    22601648.324
 109640570.175 8  85434329.18946  20863885.438                    20863893.477
 127645260.235 6  99463852.74443  24290090.781                    24290101.055
 116560462.313 8  90826397.334 7  22180722.813                    22180729.918
 122122985.165 7  95160867.14544  23239247.188                    23239257.141
 121574393.793 7  94733357.681 6  23134828.203                    23134837.859
 120284120.428 7  93728071.75744  22889339.703                    22889349.445
 108813825.555 8  84790219.57846  20706588.289                    20706593.379
 126566009.930 7  98622929.20543  24084716.586                    24084726.141
 11  8 11  0 28 30.0000000  0 10G10G17G04G28G12G27G05G09G02G30
 110952455.125 8  86456592.18646  21113539.094                    21113547.094
 118818085.920 7  92585626.277 7  22610326.203                    22610334.867
 109704689.038 8  85484291.92946  20876086.805                    20876095.145
 127747258.044 6  99543331.45642  24309500.336                    24309510.543
 116480694.081 8  90764240.293 7  22165543.125                    22165550.977
 122178425.928 7  95204067.67944  23249797.789                    23249807.840
 121471134.865 7  94652896.310 6  23115178.359                    23115188.102
 120348581.245 7  93778300.90744  22901606.523                    22901616.492
 108793861.421 8  84774663.12746  20702789.250                    20702794.555
 126461245.983 7  98541294.99743  24064780.875                    24064789.863
 11  8 11  0 29  0.0000000  0 10G10G17G04G28G12G27G05G09G02G30
 110915068.245 8  86427459.57746  21106424.758                    21106433.238
 118863856.777 7  92621291.828 7  22619036.234                    22619044.371
 109769084.153 8  85534469.93946  20888340.930                    20888348.887
 127849448.076 6  99622959.87143  24328946.273                    24328957.227
 116401217.965 7  90702310.884 7  22150419.406                    22150426.930
 122234092.823 7  95247444.41544  23260389.883                    23260400.488
 121368001.763 7  94572532.982 6  23095552.703                    23095562.422
 120413401.264 7  93828809.93644  22913940.906                    22913951.484
 108774246.242 8  84759378.58646  20699056.602                    20699061.887
 126356656.042 6  98459796.36943  24044878.055                    24044887.086
 11  8 11  0 29 30.0000000  0  9G10G17G04G12G27G05G09G02G30
 110878246.024 8  86398766.95546  21099417.469                    21099425.840
 118909752.088 7  92657054.370 7  22627769.805                    22627778.207
 109833752.252 8  85584860.65546  20900646.469                    20900654.711
 116322035.448 7  90640610.252 7  22135351.648                    22135358.566
 122289982.045 7  95290994.36544  23271025.867                    23271035.820
 121264997.019 7  94492269.667 6  23075951.805                    23075961.348
 120478576.181 7  93879595.53344  22926343.727                    22926353.605
 108754978.291 8  84744364.61146  20695389.742                    20695395.465
 126252241.840 6  98378434.63843  24025008.836                    24025017.063
 11  8 11  0 30  0.0000000  0  9G10G17G04G12G27G05G09G02G30
 110841990.322 8  86370515.77046  21092518.344                    21092526.609
 118955772.697 7  92692914.542 7  22636527.625                    22636535.602
 109898691.311 8  85635462.51046  20913004.172                    20913012.293
 116243149.316 8  90579140.554 7  22120339.531                    22120347.418
 122346090.978 7  95334715.55644  23281702.875                    23281713.039
 121162122.848 7  94412108.094 6  23056374.828                    23056384.930
 120544102.752 7  93930655.14044  22938813.242                    22938823.195
 108736057.133 8  84729620.85946  20691789.195                    20691794.809
 126148006.292 6  98297212.17843  24005173.297                    24005182.238
 11  8 11  0 30 30.0000000  0  9G10G17G04G12G27G05G09G02G30
 110806302.579 8  86342707.15646  21085727.172                    21085735.695
 119001918.695 7  92728872.407 7  22645308.813                    22645317.316
 109963898.057 8  85686272.95046  20925412.398                    20925421.039
 116164561.773 7  90517903.523 7  22105385.172                    22105392.695
 122402416.441 7  95378605.43844  23292422.031                    23292431.676
 121059382.056 7  94332050.449 6  23036824.391                    23036833.516
 120609977.181 7  93981985.79544  22951348.438                    22951358.750
 108717481.394 8  84715146.26546  20688254.703                    20688260.180
 126043951.481 6  98216130.54943  23985372.500                    23985381.297
 11  8 11  0 31  0.0000000  0  9G10G17G04G12G27G05G09G02G30
 110771185.494 8  86315343.20346  21079044.461                    21079053.086
 119048191.278 7  92764928.943 7  22654114.016                    22654122.621
 110029370.753 8  85737290.63146  20937871.516                    20937879.809
 116086275.383 8  90456901.151 7  22090487.852                    22090495.609
 122458956.272 6  95422662.36344  23303180.617                    23303190.625
 120956778.218 7  94252099.507 7  23017299.570                    23017308.820
 120676196.440 7  94033585.13344  22963950.250                    22963959.949
 108699250.799 8  84700940.60446  20684785.500                    20684790.883
 125940080.795 6  98135192.36843  23965606.500                    23965615.801
 11  8 11  0 31 30.0000000  0  9G10G17G04G12G27G05G09G02G30
 110736640.445 8  86288425.00346  21072470.758                    21072479.086
 119094590.621 7  92801084.221 7  22662943.477                    22662951.965
 110095107.001 8  85788513.66446  20950380.570                    20950389.051
 116008292.853 8  90396135.554 7  22075648.305                    22075655.508
 122515707.653 7  95466884.14144  23313980.203                    23313990.328
 120854313.898 7  94172257.281 6  22997800.664                    22997810.391
 120742757.215 7  94085450.61744  22976615.805                    22976626.109
 108681364.364 8  84687003.12646  20681381.594                    20681386.984
 125836396.646 6  98054399.59042  23945876.375                    23945884.254
 11  8 11  0 32  0.0000000  0  9G10G17G04G12G27G05G09G02G30
 110702669.031 8  86261953.77846  21066006.391                    21066014.695
 119141117.089 7  92837338.566 7  22671797.211                    22671805.559
 110161104.199 8  85839940.03946  20962939.570                    20962948.000
 115930617.031 8  90335608.948 7  22060867.125                    22060874.941
 122572667.661 6  95511268.47444  23324819.367                    23324829.793
 120751991.958 7  94092526.001 7  22978329.953                    22978339.340
 120809656.237 7  94137579.64744  22989346.836                    22989356.313
 108663821.446 8  84673333.32646  20678043.234                    20678048.949
 125732901.746 6  97973754.22942  23926181.281                    23926190.645
 11  8 11  0 32 30.0000000  0  9G10G17G04G12G27G05G09G02G30
 110669273.279 8  86235931.13446  21059651.570                    21059659.602
 119187771.527 7  92873692.625 7  22680675.484                    22680683.797
 110227360.304 8  85891568.15646  20975547.906                    20975556.035
 115853249.759 8  90275322.768 7  22046144.586                    22046152.449
 122629833.704 7  95555813.36444  23335697.664                    23335708.012
 120649815.562 7  94012908.132 6  22958885.836                    22958895.367
 120876890.260 7  94189969.76344  23002140.602                    23002150.156
 108646621.238 8  84659930.57846  20674770.273                    20674775.563
 125629598.887 6  97893258.52543  23906523.391                    23906532.820
 11  8 11  0 33  0.0000000  0  9G10G17G04G12G27G05G09G02G30
 110636454.763 8  86210358.27746  21053406.266                    21053414.410
 119234554.467 7  92910146.812 7  22689578.570                    22689586.434
 110293872.748 8  85943396.01946  20988204.570                    20988213.066
 115776194.090 8  90215279.406 7  22031481.094                    22031488.746
 122687203.076 6  95600516.68944  23346615.422                    23346624.844
 120547787.541 7  93933405.878 7  22939470.750                    22939479.777
 120944455.772 7  94242618.16044  23014997.906                    23015008.035
 108629762.888 8  84646794.21646  20671562.281                    20671567.766
 125526490.972 6  97812914.76443  23886902.430                    23886912.387
 11  8 11  0 33 30.0000000  0  9G10G17G04G12G27G05G09G02G30
 110604215.816 8  86185237.04146  21047271.375                    21047279.359
 119281466.899 7  92946701.891 7  22698505.477                    22698513.371
 110360639.893 8  85995422.33846  21000910.258                    21000918.141
 115699452.777 8  90155480.992 7  22016877.945                    22016885.516
 122744773.524 7  95645376.70044  23357570.719                    23357580.594
 120445911.411 7  93854021.967 7  22920084.445                    22920093.461
 121012350.051 6  94295522.74444  23027917.883                    23027927.871
 108613246.419 8  84633924.25146  20668418.984                    20668424.770
 125423581.035 7  97732725.27744  23867319.570                    23867329.367
 11  8 11  0 34  0.0000000  0  9G10G17G04G12G27G05G09G02G30
 110572557.788 8  86160568.45346  21041246.961                    21041255.074
 119328509.134 7  92983358.135 7  22707457.633                    22707465.516
 110427658.523 8  86047644.62746  21013663.211                    21013671.277
 115623028.162 7  90095929.359 7  22002334.883                    22002342.254
 122802541.923 7  95690390.94144  23368563.664                    23368573.473
 120344189.793 7  93774758.472 6  22900727.266                    22900736.742
 121080569.163 7  94348680.43844  23040900.094                    23040909.277
 108597070.333 8  84621319.52446  20665340.805                    20665346.566
 125320871.395 7  97652691.86644  23847774.680                    23847784.379
 11  8 11  0 34 30.0000000  0  9G10G17G04G12G27G05G09G02G30
 110541482.880 8  86136354.25646  21035333.797                    21035341.793
 119375681.943 7  93020116.121 7  22716433.914                    22716442.551
 110494927.164 8  86100061.73446  21026464.125                    21026472.168
 115546923.182 7  90036626.795 7  21987851.953                    21987860.359
 122860505.966 6  95735557.62344  23379593.773                    23379604.223
 120242625.841 7  93695617.822 6  22881400.219                    22881409.578
 121149110.547 7  94402089.25144  23053942.664                    23053952.680
 108581234.570 8  84608979.98046  20662327.633                    20662333.133
 125218365.401 6  97572817.14744  23828267.953                    23828278.113
 11  8 11  0 35  0.0000000  0  9G10G17G04G12G27G05G09G02G30
 110510992.217 8  86112595.30946  21029531.672                    21029539.836
 119422985.673 7  93056976.136 7  22725435.883                    22725443.625
 110562443.216 8  86152671.61646  21039312.172                    21039319.891
 115471140.167 8  89977575.105 7  21973431.375                    21973439.164
 122918662.645 6  95780874.41344  23390660.523                    23390671.254
 120141222.318 7  93616602.186 7  22862103.367                    22862112.699
 121217970.530 7  94455746.33544  23067046.250                    23067056.410
 108565737.792 8  84596904.57246  20659378.727                    20659384.070
 125116065.543 7  97493103.03944  23808801.211                    23808810.137
 11  8 11  0 35 30.0000000  0  9G10G17G04G12G27G05G09G02G30
 110481087.326 8  86089292.82646  21023841.008                    21023848.832
 119470420.777 7  93093938.540 7  22734461.852                    22734470.055
 110630203.998 8  86205472.20646  21052206.898                    21052214.504
 115395681.606 8  89918776.261 7  21959071.883                    21959079.691
 122977008.994 6  95826338.99744  23401763.633                    23401774.102
 120039982.069 7  93537713.789 7  22842837.844                    22842847.402
 121287145.182 7  94509648.61644  23080209.977                    23080219.754
 108550578.817 8  84585092.39746  20656494.047                    20656499.453
 125013974.222 6  97413551.46244  23789374.320                    23789383.230
 11  8 11  0 36  0.0000000  0  9G10G17G04G12G27G05G09G02G30
 110451769.205 8  86066447.55346  21018261.734                    21018269.277
 119517987.600 7  93131003.557 7  22743513.852                    22743522.324
 110698206.937 8  86258461.48846  21065146.992                    21065155.262
 115320549.803 7  89860232.030 7  21944775.070                    21944782.586
 123035542.165 6  95871949.19344  23412901.922                    23412912.289
 119938907.791 7  93458954.716 7  22823604.453                    22823613.637
 121356631.276 7  94563793.57544  23093432.758                    23093442.863
 108535756.616 8  84573542.64446  20653673.758                    20653679.125
 124912094.004 6  97334164.37744  23769986.422                    23769996.348
 11  8 11  0 36 30.0000000  0  9G10G17G04G12G27G05G09G02G30
 110423040.733 8  86044061.75746  21012794.711                    21012802.965
 119565687.334 7  93168172.156 7  22752590.883                    22752599.160
 110766450.615 8  86311638.35246  21078133.344                    21078141.441
 115245747.891 7  89801944.853 7  21930540.750                    21930548.129
 123094260.223 6  95917703.42944  23424075.758                    23424086.078
 119838003.312 7  93380327.941 6  22804402.688                    22804411.582
 121426425.995 7  94618179.01844  23106714.391                    23106724.324
 108521271.524 8  84562255.56146  20650916.734                    20650922.527
 124810428.575 6  97254944.64444  23750640.367                    23750649.102
 11  8 11  0 37  0.0000000  0  9G10G17G04G12G27G05G09G02G30
 110394903.464 8  86022136.63946  21007440.695                    21007448.660
 119613520.703 7  93205444.893 7  22761693.063                    22761701.621
 110834932.725 8  86365001.00446  21091165.297                    21091173.227
 115171278.486 8  89743916.772 7  21916369.789                    21916377.328
 123153160.446 6  95963599.59744  23435284.172                    23435294.586
 119737271.616 7  93301835.818 7  22785234.375                    22785243.332
 121496526.224 7  94672802.51944  23120054.367                    23120064.199
 108507122.835 8  84551230.61246  20648224.242                    20648230.117
 124708980.772 6  97175894.52743  23731334.961                    23731344.664
 11  8 11  0 37 30.0000000  0  9G10G17G04G12G27G05G09G02G30
 110367358.004 8  86000672.65946  21002198.766                    21002206.813
 119661487.846 7  93242821.852 7  22770820.617                    22770829.117
 110903650.462 8  86418547.26846  21104241.813                    21104249.801
 115097143.599 8  89686149.362 7  21902262.000                    21902269.777
 123212239.421 6  96009635.10144  23446526.508                    23446536.965
 119636715.031 7  93223480.152 7  22766098.813                    22766107.449
 121566927.730 7  94727660.77344  23133451.164                    23133461.219
 108493308.759 8  84540466.40346  20645595.609                    20645601.496
 124607752.794 6  97097015.68143  23712071.766                    23712081.703
 11  8 11  0 38  0.0000000  0  9G10G17G04G12G27G05G09G02G30
 110340406.184 8  85979671.27246  20997070.211                    20997078.316
 119709589.299 7  93280303.463 7  22779974.641                    22779982.707
 110972601.804 8  86472275.56646  21117363.047                    21117371.086
 115023346.108 8  89628644.862 7  21888218.836                    21888226.313
 123271494.754 7  96055807.99544  23457802.727                    23457813.488
 119536336.932 7  93145263.554 7  22746996.961                    22747006.465
 121637627.606 7  94782751.52644  23146905.000                    23146914.656
 108479828.806 8  84529962.55746  20643030.648                    20643036.094
 124506747.492 6  97018310.31943  23692850.914                    23692860.344
 11  8 11  0 38 30.0000000  0  9G10G17G04G12G27G05G09G02G30
 110314049.867 8  85959133.91146  20992054.586                    20992062.891
 119757826.084 7  93317890.540 7  22789153.516                    22789161.738
 111041784.271 8  86526183.95746  21130527.656                    21130535.438
 114949888.339 8  89571405.067 7  21874240.102                    21874247.895
 123330923.779 7  96102116.25544  23469111.578                    23469122.199
 119436140.291 7  93067188.354 7  22727930.102                    22727939.938
 121708622.245 7  94838071.95844  23160415.188                    23160424.344
 108466681.982 8  84519718.28646  20640528.633                    20640534.387
 124405967.865 6  96939780.77843  23673673.344                    23673682.156
 11  8 11  0 39  0.0000000  0  9G10G17G04G12G27G05G09G02G30
 110288290.593 8  85939061.77546  20987152.609                    20987161.152
 119806198.827 7  93355583.568 7  22798358.656                    22798367.098
 111111196.288 8  86580271.21546  21143736.539                    21143744.320
 114876773.286 8  89514432.314 7  21860326.859                    21860334.355
 123390524.066 7  96148557.96144  23480453.422                    23480463.539
 119336128.189 7  92989256.944 7  22708898.984                    22708907.754
 121779908.699 7  94893619.80044  23173980.219                    23173989.566
 108453868.027 8  84509733.40946  20638090.586                    20638095.980
 124305417.081 6  96861429.53543  23654538.773                    23654547.867
 11  8 11  0 39 30.0000000  0  9G10G17G04G12G27G05G09G02G30
 110263129.269 8  85919455.57346  20982364.602                    20982372.871
 119854707.612 7  93393382.598 6  22807589.672                    22807598.270
 111180834.645 8  86634534.84846  21156988.094                    21156996.441
 114804003.108 8  89457728.301 7  21846479.375                    21846486.730
 123450292.204 7  96195130.45244  23491827.492                    23491837.969
 119236303.209 7  92911471.360 7  22689902.516                    22689911.398
 121851483.195 7  94949392.05544  23187600.164                    23187610.488
 108441385.412 8  84500006.70746  20635714.875                    20635720.426
 124205097.407 6  96783258.33443  23635448.906                    23635457.563
 11  8 11  0 40  0.0000000  0  9G10G17G04G12G27G05G09G02G30
 110238567.406 8  85900316.49246  20977690.492                    20977698.449
 119903353.290 7  93431288.309 7  22816846.625                    22816854.738
 111250697.725 8  86688973.59246  21170282.805                    21170290.762
 114731580.652 8  89401295.237 7  21832697.469                    21832705.273
 123510225.818 7  96241831.89344  23503231.633                    23503242.543
 119136668.666 7  92833834.140 7  22670942.023                    22670951.773
 121923342.421 7  95005386.19344  23201274.648                    23201284.258
 108429233.516 8  84490537.69846  20633402.492                    20633408.129
 124105011.936 6  96705269.67343  23616403.234                    23616412.457
 11  8 11  0 40 30.0000000  0  9G10G17G04G12G27G05G09G02G30
 110214606.931 8  85881646.01246  20973130.820                    20973138.992
 119952136.773 7  93469301.400 6  22826129.742                    22826137.621
 111320783.667 8  86743585.99846  21183619.484                    21183627.891
 114659508.853 8  89345135.404 7  21818982.953                    21818990.324
 123570322.722 7  96288660.56444  23514668.211                    23514678.770
 119037227.987 7  92756347.991 7  22652019.156                    22652029.094
 121995483.563 7  95061600.02344  23215002.813                    23215012.785
 108417412.402 8  84481326.44146  20631153.234                    20631158.594
 124005163.962 6  96627466.07843  23597403.602                    23597412.293
 11  8 11  0 41  0.0000000  0  9G10G17G04G12G27G05G09G02G30
 110191248.165 8  85863444.39746  20968685.789                    20968693.750
 120001058.135 7  93507421.904 7  22835439.109                    22835447.141
 111391089.067 8  86798369.40246  21196998.367                    21197006.473
 114587789.232 8  89289250.003 7  21805335.172                    21805342.793
 123630579.142 7  96335613.51344  23526134.164                    23526145.469
 118937983.187 7  92679014.480 7  22633133.477                    22633143.164
 122067902.281 6  95118030.11244  23228783.594                    23228793.824
 108405919.806 8  84472371.17446  20628966.234                    20628971.438
 123905555.387 6  96549849.01143  23578448.523                    23578456.695
 11  8 11  0 41 30.0000000  0  9G10G17G04G12G27G05G09G02G30
 110168492.916 8  85845713.05646  20964355.781                    20964363.758
 120050117.819 7  93545650.201 7  22844774.820                    22844783.473
 111461612.364 8  86853322.59946  21210418.719                    21210426.660
 114516424.615 8  89233641.219 7  21791754.977                    21791762.559
 123690992.604 7  96382688.86144  23537630.242                    23537641.844
 118838937.667 7  92601836.247 7  22614285.813                    22614295.305
 122140595.547 7  95174674.12744  23242616.602                    23242626.438
 108394755.026 8  84463671.34646  20626841.594                    20626846.773
 123806189.341 6  96472420.94143  23559539.852                    23559548.676
 11  8 11  0 42  0.0000000  0  9G10G17G04G12G27G05G09G02G30
 110146342.452 8  85828452.96546  20960140.531                    20960148.684
 120099316.538 7  93583986.810 7  22854137.484                    22854145.602
 111532350.825 8  86908443.46346  21223879.766                    21223887.828
 114445417.640 8  89178311.129 7  21778242.555                    21778250.039
 123751560.369 6  96429884.43844  23549156.758                    23549167.770
 118740094.749 7  92524815.886 7  22595477.094                    22595486.539
 122213560.213 7  95231529.63444  23256501.344                    23256511.449
 108383917.484 8  84455226.51646  20624779.117                    20624784.809
 123707068.782 6  96395184.18544  23540676.531                    23540686.074
 11  8 11  0 42 30.0000000  0  9G10G17G04G12G27G05G09G02G30
 110124798.618 8  85811665.56646  20956040.680                    20956049.250
 120148655.250 7  93622432.520 6  22863525.758                    22863534.000
 111603303.130 8  86963730.94446  21237381.508                    21237389.496
 114374771.412 8  89123262.127 7  21764799.328                    21764806.832
 123812280.328 7  96477198.58944  23560711.359                    23560722.719
 118641457.109 7  92447955.476 7  22576706.453                    22576715.656
 122286792.907 7  95288594.00544  23270437.234                    23270447.422
 108373406.712 8  84447036.32046  20622779.242                    20622784.410
 123608196.796 6  96318141.10943  23521862.820                    23521871.988
 11  8 11  0 43  0.0000000  0 10G10G17G04G25G12G27G05G09G02G30
 110103862.086 8  85795351.40746  20952057.070                    20952064.953
 120198134.225 7  93660987.518 7  22872941.703                    22872950.078
 111674466.297 8  87019182.74946  21250923.547                    21250931.766
 129551304.47517 100949110.31016  24652798.594                    24652810.566
 114304487.929 8  89068495.795 7  21751424.828                    21751432.125
 123873149.092 7  96524628.69444  23572294.656                    23572305.074
 118543027.581 7  92371257.229 7  22557975.969                    22557984.934
 122360289.823 7  95345864.27044  23284422.977                    23284433.207
 108363221.079 8  84439099.46846  20620840.789                    20620846.199
 123509575.873 6  96241293.71943  23503095.555                    23503104.715
 11  8 11  0 43 30.0000000  0 10G10G17G04G25G12G27G05G09G02G30
 110083533.489 8  85779510.94946  20948188.398                    20948196.336
 120247753.586 7  93699651.918 7  22882384.070                    22882392.410
 111745837.745 8  87074796.84246  21264504.992                    21264513.016
 129448028.281 7 100868635.358 6  24633146.609                    24633157.910
 114234568.896 8  89014013.432 7  21738119.414                    21738127.020
 123934163.288 6  96572172.13343  23583904.695                    23583915.551
 118444808.722 7  92294723.158 7  22539285.352                    22539294.855
 122434047.166 7  95403337.46044  23298459.070                    23298468.711
 108353359.420 8  84431415.04946  20618964.133                    20618969.680
 123411208.134 6  96164643.60844  23484376.578                    23484386.102
 11  8 11  0 44  0.0000000  0 10G10G17G04G25G12G27G05G09G02G30
 110063814.432 8  85764145.46446  20944435.734                    20944444.023
 120297514.237 7  93738426.402 7  22891852.953                    22891861.301
 111817415.522 8  87130571.71046  21278125.594                    21278133.781
 129344858.491 7 100788243.307 6  24613514.336                    24613525.500
 114165017.453 8  88959817.524 7  21724884.250                    21724891.668
 123995320.751 6  96619827.19743  23595542.773                    23595553.855
 118346803.903 7  92218355.833 7  22520635.820                    22520644.344
 122508062.062 6  95461011.34044  23312542.898                    23312554.102
 108343821.241 8  84423982.70646  20617149.180                    20617154.484
 123313097.079 6  96088193.49044  23465706.859                    23465716.496
 11  8 11  0 44 30.0000000  0 10G10G17G04G25G12G27G05G09G02G30
 110044706.335 8  85749256.05446  20940799.766                    20940807.730
 120347417.119 7  93777311.733 6  22901348.945                    22901358.125
 111889198.054 8  87186506.13746  21291785.594                    21291793.668
 129241797.825 7 100707936.303 6  24593901.867                    24593913.320
 114095836.317 8  88905910.158 7  21711719.313                    21711726.625
 124056619.104 7  96667592.07243  23607207.688                    23607218.379
 118249016.335 7  92142157.826 7  22502027.102                    22502036.449
 122582331.267 7  95518883.37844  23326676.828                    23326686.852
 108334605.948 8  84416801.96546  20615395.805                    20615401.461
 123215245.879 6  96011945.85743  23447086.289                    23447095.867
 11  8 11  0 45  0.0000000  0 10G10G17G04G25G12G27G05G09G02G30
 110026210.481 8  85734843.70446  20937280.336                    20937288.426
 120397462.671 7  93816308.231 7  22910873.117                    22910881.082
 111961182.711 8  87242598.04846  21305483.766                    21305492.012
 129138848.749 6 100627716.253 6  24574311.648                    24574322.883
 114027027.842 8  88852293.180 7  21698625.758                    21698633.199
 124118055.367 6  96715464.38044  23618898.391                    23618909.707
 118151448.890 7  92066131.322 7  22483460.789                    22483469.414
 122656851.286 7  95576950.85744  23340856.906                    23340867.039
 108325712.218 8  84409871.78746  20613703.195                    20613708.574
 123117657.133 6  95935902.77244  23428515.117                    23428524.961
 11  8 11  0 45 30.0000000  0 10G10G17G04G25G12G27G05G09G02G30
 110008327.759 8  85720909.12346  20933877.063                    20933885.180
 120447651.500 7  93855416.376 6  22920423.570                    22920431.527
 112033367.492 8  87298845.91446  21319219.727                    21319227.727
 129036013.689 6 100547585.027 5  24554742.484                    24554754.125
 113958594.888 8  88798968.815 7  21685603.133                    21685611.059
 124179626.762 6  96763441.98044  23630614.781                    23630626.859
 118054104.814 7  91990278.885 7  22464936.281                    22464945.586
 122731618.728 6  95635211.13044  23355084.953                    23355095.070
 108317139.283 8  84403191.58546  20612072.031                    20612077.094
 123020333.691 6  95860066.34444  23409996.172                    23410004.426
 11  8 11  0 46  0.0000000  0 10G10G17G04G25G12G27G05G09G02G30
 109991059.541 8  85707453.37246  20930591.266                    20930599.020
 120497984.458 7  93894636.836 6  22930001.672                    22930009.770
 112105750.372 8  87355248.12245  21332994.047                    21333002.027
 128933295.446 6 100467544.930 6  24535195.875                    24535207.250
 113890540.270 8  88745939.252 7  21672652.789                    21672660.336
 124241330.860 6  96811522.97243  23642357.734                    23642369.004
 117956987.449 7  91914603.110 7  22446455.820                    22446464.188
 122806630.433 7  95693661.73844  23369359.219                    23369369.234
 108308886.659 8  84396760.97346  20610501.477                    20610507.039
 122923278.876 6  95784439.24944  23391526.891                    23391535.414
 11  8 11  0 46 30.0000000  0 10G10G17G04G25G12G27G05G09G02G30
 109974406.814 8  85694477.22346  20927422.195                    20927430.441
 120548461.991 7  93933969.925 6  22939606.883                    22939615.426
 112178329.199 8  87411803.02945  21346805.555                    21346813.875
 128830696.461 6 100387597.769 6  24515671.602                    24515683.531
 113822865.934 8  88693206.021 7  21659774.719                    21659782.418
 124303164.809 7  96859705.14343  23654124.289                    23654135.957
 117860099.530 7  91839106.109 7  22428018.555                    22428027.445
 122881882.786 7  95752299.86444  23383679.680                    23383689.914
 108300953.209 8  84390579.06946  20608991.773                    20608997.227
 122826495.229 6  95709023.45744  23373109.203                    23373118.066
 11  8 11  0 47  0.0000000  0 10G10G17G04G25G12G27G05G09G02G30
 109958370.780 8  85681981.62646  20924370.961                    20924378.852
 120599084.771 7  93973416.208 6  22949239.914                    22949248.363
 112251101.662 8  87468508.81945  21360653.766                    21360661.559
 128728219.038 6 100307745.303 6  24496170.898                    24496181.891
 113755574.624 8  88640771.249 7  21646969.781                    21646977.461
 124365126.002 7  96907986.50443  23665915.148                    23665925.906
 117763443.711 7  91763789.975 7  22409625.398                    22409634.063
 122957372.462 7  95811122.92444  23398044.836                    23398054.613
 108293337.656 8  84384644.88246  20607542.344                    20607548.027
 122729985.685 6  95633821.28144  23354744.578                    23354753.074
 11  8 11  0 47 30.0000000  0 10G10G17G04G25G12G27G05G09G02G30
 109942952.043 8  85669967.03846  20921436.586                    20921444.461
 120649853.123 7  94012975.901 6  22958901.031                    22958909.613
 112324065.495 8  87525363.72145  21374538.078                    21374546.809
 128625865.540 6 100227989.460 6  24476692.688                    24476705.648
 113688668.604 8  88588636.692 7  21634238.078                    21634245.074
 124427211.270 6  96956364.55243  23677729.141                    23677740.449
 117667022.862 7  91688656.914 7  22391277.242                    22391286.281
 123033095.950 7  95870128.17444  23412454.352                    23412464.496
 108286038.933 8  84378957.57546  20606153.695                    20606159.355
 122633752.828 6  95558834.66243  23336431.555                    23336440.391
 11  8 11  0 48  0.0000000  0 10G10G17G04G25G12G27G05G09G02G30
 109928151.589 8  85658434.22946  20918620.219                    20918627.895
 120700767.693 7  94052649.573 6  22968589.813                    22968598.871
 112397218.700 8  87582366.20545  21388458.930                    21388467.043
 128523638.761 6 100148332.364 6  24457239.734                    24457252.113
 113622150.600 8  88536804.494 7  21621579.781                    21621587.574
 124489418.042 6  97004837.26643  23689567.383                    23689578.496
 117570840.131 7  91613709.408 7  22372973.852                    22372982.734
 123109049.831 7  95929312.93444  23426908.352                    23426918.254
 108279056.497 8  84373516.72146  20604824.953                    20604830.254
 122537799.769 6  95484066.08843  23318172.352                    23318180.336
 11  8 11  0 48 30.0000000  0 10G10G17G04G25G12G27G05G09G02G30
 109913970.006 8  85647383.65946  20915921.602                    20915929.578
 120751828.750 7  94092437.349 7  22978306.563                    22978315.223
 112470558.645 8  87639514.18746  21402414.852                    21402423.293
 128421540.803 6 100068775.620 6  24437811.102                    24437823.184
 113556022.420 8  88485276.065 7  21608996.336                    21609003.852
 124551743.161 7  97053402.18643  23701427.531                    23701438.215
 117474898.486 7  91538949.750 7  22354717.023                    22354725.480
 123185230.642 7  95988674.54144  23441404.828                    23441414.855
 108272388.675 8  84368321.02346  20603556.055                    20603561.660
 122442128.884 6  95409517.39443  23299966.625                    23299975.078
 11  8 11  0 49  0.0000000  0 10G10G17G04G25G12G27G05G09G02G30
 109900408.473 8  85636816.25046  20913340.844                    20913349.055
 120803036.937 7  94132339.809 7  22988051.148                    22988060.141
 112544083.601 8  87696806.34346  21416406.047                    21416414.465
 128319574.310 7  99989321.317 6  24418407.711                    24418420.000
 113490286.785 8  88434053.504 7  21596487.211                    21596494.523
 124614184.043 7  97102057.32543  23713310.063                    23713320.910
 117379200.949 7  91464380.315 7  22336506.602                    22336515.328
 123261634.974 7  96048210.30944  23455943.898                    23455954.215
 108266035.062 8  84363370.16846  20602347.195                    20602352.387
 122346743.269 7  95335190.98144  23281815.219                    23281823.445
 11  8 11  0 49 30.0000000  0 10G10G17G04G25G12G27G05G09G02G30
 109887467.556 8  85626732.42846  20910878.164                    20910885.809
 120854392.900 7  94172357.411 6  22997823.898                    22997832.508
 112617790.917 8  87754240.58845  21430432.320                    21430440.461
 128217741.616 7  99909971.255 6  24399029.656                    24399040.941
 113424945.996 8  88383138.616 7  21584053.125                    21584060.805
 124676737.758 6  97150800.37844  23725212.938                    23725224.273
 117283750.052 7  91390003.045 7  22318342.633                    22318351.344
 123338259.193 7  96107917.44544  23470525.516                    23470535.543
 108259994.075 8  84358662.91246  20601197.422                    20601203.219
 122251645.517 7  95261088.91243  23263718.930                    23263727.637
 11  8 11  0 50  0.0000000  0 10G10G17G04G25G12G27G05G09G02G30
 109875148.351 8  85617133.06246  20908533.836                    20908541.715
 120905897.020 7  94212490.449 7  23007625.211                    23007633.480
 112691678.846 8  87811815.58145  21444492.781                    21444501.129
 128116045.300 7  99830727.421 6  24379677.656                    24379688.520
 113360002.607 8  88332533.393 7  21571694.961                    21571701.871
 124739401.651 6  97199629.27143  23737137.586                    23737148.867
 117188548.951 7  91315820.447 7  22300226.461                    22300235.004
 123415099.971 6  96167793.29144  23485148.000                    23485157.855
 108254265.055 8  84354198.74946  20600107.414                    20600112.750
 122156838.626 7  95187213.45944  23245677.406                    23245686.051
 11  8 11  0 50 30.0000000  0 10G10G17G04G25G12G27G05G09G02G30
 109863452.205 8  85608019.19246  20906308.117                    20906316.418
 120957550.410 7  94252739.793 6  23017454.352                    23017462.809
 112765745.425 8  87869529.76745  21458587.188                    21458595.820
 128014488.279 7  99751592.138 6  24360351.563                    24360362.609
 113295459.291 7  88282239.918 7  21559412.742                    21559420.383
 124802173.370 6  97248542.18443  23749082.859                    23749094.152
 117093600.778 7  91241834.928 7  22282158.250                    22282166.895
 123492154.127 7  96227835.44244  23499810.734                    23499820.168
 108248847.481 8  84349977.27546  20599076.344                    20599081.570
 122062325.739 7  95113567.09244  23227692.344                    23227700.898
 11  8 11  0 51  0.0000000  0 10G10G17G04G25G12G27G05G09G02G30
 109852379.337 8  85599390.99946  20904201.023                    20904209.168
 121009353.497 7  94293105.783 7  23027311.609                    23027321.086
 112839988.453 8  87927381.45645  21472715.203                    21472723.047
 127913073.049 7  99672567.328 6  24341052.578                    24341064.027
 113231318.458 8  88232260.066 7  21547207.023                    21547214.520
 124865049.960 6  97297536.80143  23761047.922                    23761059.293
 116998908.386 7  91168048.713 7  22264138.656                    22264147.672
 123569418.080 7  96288041.05944  23514513.820                    23514523.598
 108243740.024 8  84345997.44446  20598104.133                    20598109.492
 121968109.678 7  95040152.02544  23209763.344                    23209772.426
 11  8 11  0 51 30.0000000  0 10G10G17G04G25G12G27G05G09G02G30
 109841930.832 8  85591249.31446  20902212.859                    20902220.664
 121061306.448 7  94333588.566 6  23037198.805                    23037207.004
 112914405.638 8  87985368.84545  21486876.133                    21486884.676
 127811801.948 6  99593654.831 6  24321781.367                    24321793.031
 113167582.679 7  88182595.836 7  21535078.570                    21535085.609
 124928028.676 6  97346610.98744  23773032.219                    23773043.703
 116904474.945 7  91094464.285 7  22246168.656                    22246177.422
 123646888.531 7  96348407.55844  23529256.000                    23529266.051
 108238941.518 8  84342258.35546  20597191.117                    20597196.691
 121874193.129 7  94966970.34744  23191891.789                    23191900.672
 11  8 11  0 52  0.0000000  0 10G10G17G04G25G12G27G05G09G02G30
 109832107.296 8  85583594.61946  20900343.609                    20900351.336
 121113410.121 7  94374188.789 6  23047113.523                    23047121.902
 112988995.062 8  88043490.45145  21501070.109                    21501078.535
 127710677.623 6  99514856.688 6  24302538.109                    24302549.500
 113104254.044 8  88133248.855 7  21523027.492                    21523034.965
 124991106.644 6  97395762.54843  23785035.891                    23785047.977
 116810303.360 7  91021083.877 7  22228248.578                    22228256.969
 123724562.121 6  96408932.37544  23544036.820                    23544046.988
 108234451.121 8  84338759.36046  20596336.852                    20596342.387
 121780578.965 7  94894024.29344  23174077.820                    23174087.512
 11  8 11  0 52 30.0000000  0 10G10G17G04G25G12G27G05G09G02G30
 109822909.035 8  85576427.15346  20898593.148                    20898601.047
 121165664.846 7  94414906.730 6  23057057.305                    23057065.844
 113063754.445 8  88101744.48346  21515296.602                    21515304.945
 127609702.379 6  99436174.666 6  24283323.406                    24283333.938
 113041334.915 7  88084220.981 7  21511053.883                    21511061.730
 125054280.931 6  97444989.11043  23797057.258                    23797068.992
 116716396.407 7  90947909.693 7  22210378.359                    22210386.996
 123802435.115 6  96469612.54943  23558855.125                    23558865.668
 108230267.474 8  84335499.37746  20595540.531                    20595545.953
 121687269.898 6  94821315.95944  23156321.281                    23156330.406
 11  8 11  0 53  0.0000000  0 10G10G17G04G25G12G27G05G09G02G30
 109814337.096 8  85569747.73546  20896961.734                    20896969.871
 121218071.318 7  94455742.902 6  23067030.016                    23067038.457
 113138681.810 8  88160129.42746  21529554.836                    21529563.367
 127508879.142 6  99357611.111 6  24264137.180                    24264147.691
 112978828.015 8  88035514.309 7  21499159.508                    21499166.723
 125117549.071 6  97494288.85443  23809097.031                    23809108.539
 116622756.824 7  90874943.857 7  22192559.430                    22192567.766
 123880504.267 6  96530445.57144  23573711.180                    23573722.359
 108226389.922 8  84332477.92346  20594802.375                    20594808.457
 121594268.959 6  94748847.73744  23138624.172                    23138632.980
 11  8 11  0 53 30.0000000  0 10G10G17G04G25G12G27G05G09G02G30
 109806392.074 8  85563556.81146  20895450.086                    20895458.102
 121270630.099 7  94496697.746 6  23077031.367                    23077039.949
 113213775.098 8  88218643.65245  21543844.250                    21543852.711
 127408210.283 6  99279167.852 5  24244980.523                    24244990.957
 112916735.461 7  87987130.517 7  21487343.750                    21487351.512
 125180908.200 6  97543659.46343  23821154.867                    23821165.691
 116529387.917 7  90802188.929 7  22174792.117                    22174800.285
 123958766.110 6  96591428.72944  23588604.203                    23588614.684
 108222817.185 8  84329693.98446  20594122.992                    20594128.387
 121501578.804 6  94676621.66744  23120985.148                    23120995.008
 11  8 11  0 54  0.0000000  0 10G10G17G04G25G12G27G05G09G02G30
 109799074.460 8  85557854.78646  20894057.320                    20894065.406
 121323341.536 7  94537771.547 6  23087062.406                    23087071.086
 113289032.154 8  88277285.48745  21558165.734                    21558174.320
 127307698.370 6  99200846.836 5  24225854.031                    24225864.180
 112855059.373 7  87939071.243 7  21475607.109                    21475614.641
 125244355.425 6  97593098.74543  23833227.820                    23833239.004
 116436292.246 7  90729646.908 7  22157076.234                    22157084.551
 124037217.269 7  96652559.41644  23603533.633                    23603543.777
 108219548.076 7  84327146.63646  20593500.938                    20593506.355
 121409202.407 6  94604640.07544  23103406.992                    23103415.734
 11  8 11  0 54 30.0000000  0 10G10G17G04G25G12G27G05G09G02G30
 109792384.485 8  85552641.82046  20892784.438                    20892792.102
 121376206.280 7  94578964.828 6  23097122.484                    23097130.609
 113364450.724 8  88336053.18245  21572516.938                    21572525.586
 127207345.852 7  99122650.088 6  24206757.773                    24206768.988
 112793802.214 7  87891338.414 7  21463950.430                    21463957.727
 125307887.977 6  97642604.49243  23845318.352                    23845328.711
 116343472.823 7  90657320.145 7  22139413.578                    22139422.188
 124115854.145 7  96713834.81744  23618497.633                    23618508.465
 108216581.775 8  84324835.24346  20592936.180                    20592941.617
 121317142.310 6  94532904.97444  23085888.617                    23085897.121
 11  8 11  0 55  0.0000000  0 10G10G17G04G25G12G27G05G09G02G30
 109786322.899 8  85547918.51846  20891630.969                    20891638.523
 121429224.621 7  94620277.776 6  23107211.266                    23107219.816
 113440028.608 8  88394945.01645  21586899.359                    21586907.883
 127107155.356 7  99044579.589 6  24187691.617                    24187703.184
 112732966.384 7  87843933.897 7  21452373.867                    21452380.898
 125371503.033 6  97692174.53943  23857423.703                    23857434.574
 116250932.506 7  90585210.875 7  22121803.633                    22121811.988
 124194673.578 6  96775252.48144  23633496.258                    23633506.992
 108213916.910 8  84322758.73546  20592428.953                    20592434.863
 121225401.410 6  94461418.60044  23068430.563                    23068439.965
 11  8 11  0 55 30.0000000  0 10G10G17G04G25G12G27G05G09G02G30
 109780890.286 8  85543685.31046  20890596.703                    20890604.789
 121482397.255 7  94661710.946 6  23117329.820                    23117338.125
 113515764.143 8  88453959.69145  21601311.172                    21601319.504
 127007129.541 7  98966637.427 6  24168657.891                    24168669.375
 112672554.347 8  87796859.594 7  21440877.617                    21440885.047
 125435197.788 6  97741806.69243  23869544.609                    23869555.516
 116158674.383 7  90513321.473 7  22104247.172                    22104256.238
 124273671.965 6  96836809.59643  23648529.016                    23648539.672
 108211552.619 8  84320916.43146  20591979.109                    20591984.719
 121133982.633 6  94390183.20744  23051033.734                    23051043.480
 11  8 11  0 56  0.0000000  0 10G10G17G04G25G12G27G05G09G02G30
 109776086.983 8  85539942.48946  20889683.195                    20889691.227
 121535724.926 7  94703264.923 6  23127477.555                    23127486.156
 113591655.203 8  88513095.56745  21615753.055                    21615761.070
 126907271.018 7  98888825.640 6  24149654.617                    24149666.027
 112612568.278 8  87750117.219 7  21429462.555                    21429470.223
 125498969.588 7  97791498.86243  23881680.695                    23881690.980
 116066701.197 7  90441654.122 7  22086745.336                    22086754.105
 124352845.649 6  96898503.29044  23663595.891                    23663606.215
 108209487.875 8  84319307.55146  20591586.117                    20591592.043
 121042888.879 7  94319201.07844  23033699.555                    23033708.965
 11  8 11  0 56 30.0000000  0 10G10G17G04G25G12G27G05G09G02G30
 109771913.920 8  85536690.76246  20888889.141                    20888896.582
 121589208.205 7  94744940.162 6  23137654.961                    23137663.609
 113667699.714 8  88572350.99545  21630223.789                    21630231.723
 126807582.535 7  98811146.347 6  24130684.609                    24130696.777
 112553010.815 7  87703708.822 7  21418129.594                    21418136.867
 125562815.992 6  97841249.15943  23893829.852                    23893841.359
 115975016.179 7  90370211.298 7  22069298.164                    22069306.828
 124432191.476 7  96960331.11944  23678694.539                    23678705.523
 108207721.881 8  84317931.46246  20591250.305                    20591255.984
 120952123.085 7  94248474.50444  23016427.680                    23016436.609
 11  8 11  0 57  0.0000000  0 10G10G17G04G25G12G27G05G09G02G30
 109768371.257 8  85533930.26146  20888214.820                    20888222.793
 121642847.381 7  94786736.890 6  23147862.367                    23147870.555
 113743895.686 8  88631724.45845  21644723.164                    21644731.359
 126708066.473 7  98733601.435 6  24111747.578                    24111758.793
 112493884.360 7  87657636.261 7  21406877.961                    21406885.238
 125626734.004 6  97891055.28143  23905993.141                    23906004.020
 115883621.915 7  90298995.041 7  22051905.984                    22051914.527
 124511706.191 7  97022290.56544  23693825.992                    23693836.398
 108206253.083 8  84316786.95346  20590971.125                    20590976.633
 120861687.933 7  94178005.58544  22999218.578                    22999227.387
 11  8 11  0 57 30.0000000  0 10G10G17G04G25G12G27G05G09G02G30
 109765459.684 8  85531661.51346  20887660.930                    20887668.652
 121696642.908 7  94828655.464 6  23158099.102                    23158107.473
 113820241.202 8  88691214.45245  21659250.914                    21659259.563
 126608725.484 7  98656192.913 6  24092843.398                    24092854.574
 112435190.653 7  87611900.913 7  21395708.969                    21395715.934
 125690720.801 6  97940914.98343  23918168.539                    23918180.234
 115792521.404 7  90228007.679 7  22034570.891                    22034579.270
 124591386.382 7  97084378.92843  23708989.070                    23708999.125
 108205080.551 8  84315873.29346  20590747.477                    20590753.414
 120771586.251 6  94107796.51144  22982072.508                    22982081.754
 11  8 11  0 58  0.0000000  0 10G10G17G04G25G12G27G05G09G02G30
 109763179.458 8  85529884.72446  20887227.047                    20887234.906
 121750595.759 7  94870696.619 6  23168366.570                    23168374.855
 113896734.151 8  88750819.31845  21673807.102                    21673815.926
 126509562.288 7  98578922.963 6  24073973.609                    24073985.012
 112376932.360 8  87566504.848 7  21384622.641                    21384630.180
 125754773.658 6  97990826.15743  23930358.703                    23930370.125
 115701717.780 7  90157251.662 7  22017291.109                    22017299.305
 124671228.648 7  97146593.60744  23724182.500                    23724192.547
 108204203.512 8  84315189.88446  20590580.594                    20590585.977
 120681820.988 6  94037849.59244  22964990.852                    22964999.543
 11  8 11  0 58 30.0000000  0 10G10G17G04G25G12G27G05G09G02G30
 109761531.037 8  85528600.25546  20886913.141                    20886921.301
 121804706.223 7  94912860.588 6  23178663.203                    23178671.992
 113973372.679 8  88810537.62645  21688391.156                    21688399.570
 126410579.502 7  98501793.569 6  24055137.430                    24055148.926
 112319112.082 7  87521450.079 7  21373620.141                    21373626.965
 125818889.829 6  98040786.66443  23942558.586                    23942569.859
 115611213.984 7  90086729.274 7  22000068.383                    22000076.887
 124751229.475 7  97208931.86144  23739405.750                    23739415.965
 108203620.782 8  84314735.81246  20590469.789                    20590475.316
 120592394.880 6  93968166.95044  22947973.523                    22947982.414
 11  8 11  0 59  0.0000000  0 10G10G17G04G25G12G27G05G09G02G30
 109760514.053 8  85527807.81446  20886719.578                    20886727.797
 121858974.657 7  94955147.659 6  23188990.125                    23188998.465
 114050154.232 8  88870367.39045  21703002.039                    21703011.047
 126311779.383 6  98424806.559 6  24036336.375                    24036347.914
 112261731.329 7  87476737.821 7  21362700.523                    21362708.105
 125883066.288 6  98090794.12543  23954771.922                    23954782.699
 115521012.341 7  90016442.326 7  21982904.047                    21982912.672
 124831385.357 7  97271390.89943  23754658.703                    23754669.512
 108203330.896 8  84314509.93446  20590414.695                    20590420.090
 120503310.532 6  93898750.59944  22931021.375                    22931029.695
 11  8 11  0 59 30.0000000  0 10G10G17G04G25G12G27G05G09G02G30
 109760129.468 8  85527508.15246  20886646.414                    20886654.465
 121913401.787 7  94997558.382 6  23199347.375                    23199355.953
 114127077.451 8  88930307.52445  21717640.398                    21717649.020
 126213164.972 6  98347964.260 6  24017570.148                    24017582.012
 112204792.921 7  87432370.232 7  21351865.523                    21351872.840
 125947300.739 6  98140846.83143  23966995.359                    23967006.117
 115431116.063 7  89946393.332 7  21965796.586                    21965805.723
 124911692.916 7  97333968.13143  23769940.906                    23769951.953
 108203333.089 8  84314511.64846  20590415.125                    20590420.809
 120414571.104 6  93829603.03044  22914134.852                    22914143.520
 11  8 11  1  0  0.0000000  0 10G10G17G04G25G12G27G05G09G02G30
 109760377.018 8  85527701.05846  20886693.375                    20886701.281
 121967988.101 7  95040093.145 6  23209734.461                    23209743.691
 114204140.289 8  88990356.45045  21732305.031                    21732313.098
 126114738.800 6  98271268.634 6  23998840.398                    23998851.629
 112148298.997 7  87388348.989 7  21341115.023                    21341122.395
 126011590.327 6  98190942.45643  23979229.281                    23979240.543
 115341527.918 7  89876584.452 7  21948748.508                    21948757.375
 124992148.766 6  97396660.94844  23785251.734                    23785261.770
 108203626.345 8  84314740.16946  20590470.938                    20590476.570
 120326179.240 7  93760726.30944  22897314.070                    22897323.309
 11  8 11  1  0 30.0000000  0 10G10G17G04G25G12G27G05G09G02G30
 109761257.273 8  85528386.98146  20886861.352                    20886869.078
 122022733.727 7  95082752.021 6  23220152.219                    23220161.145
 114281340.595 8  89050512.50745  21746995.492                    21747004.023
 126016503.497 7  98194721.723 6  23980146.969                    23980158.633
 112092251.843 7  87344675.884 7  21330449.617                    21330456.973
 126075932.428 6  98241079.00343  23991472.766                    23991483.934
 115252250.903 7  89807018.001 7  21931759.883                    21931768.863
 125072749.788 7  97459466.83644  23800589.766                    23800600.926
 108204209.468 8  84315194.55646  20590582.039                    20590587.570
 120238137.759 6  93692122.57444  22880561.047                    22880569.031
 11  8 11  1  1  0.0000000  0 10G10G17G04G25G12G27G05G09G02G30
 109762770.325 7  85529566.00246  20887149.164                    20887157.016
 122077639.293 7  95125535.531 6  23230600.633                    23230610.027
 114358676.453 8  89110774.18345  21761712.055                    21761720.512
 125918461.624 7  98118325.497 6  23961490.828                    23961500.828
 112036653.558 7  87301352.552 7  21319869.766                    21319877.160
 126140324.184 6  98291254.21643  24003726.984                    24003738.383
 115163288.026 7  89737696.332 7  21914830.891                    21914839.039
 125153492.443 7  97522383.10244  23815954.047                    23815965.582
 108205081.178 8  84315873.80846  20590747.750                    20590753.285
 120150449.498 7  93623794.08044  22863874.352                    22863882.457
 11  8 11  1  1 30.0000000  0 10G10G17G04G25G12G27G05G09G02G30
 109764916.270 8  85531238.18046  20887557.375                    20887565.195
 122132705.612 7  95168444.322 6  23241079.039                    23241088.359
 114436145.686 8  89171139.79345  21776454.469                    21776463.141
 125820615.831 7  98042082.082 6  23942871.008                    23942882.113
 111981506.383 8  87258380.735 7  21309375.813                    21309383.063
 126204762.874 6  98341466.02043  24015988.891                    24016000.293
 115074641.712 7  89668621.326 7  21897962.258                    21897970.691
 125234373.430 6  97585407.12744  23831345.523                    23831356.355
 108206240.680 8  84316777.31946  20590968.195                    20590973.594
 120063117.179 6  93555742.93744  22847255.578                    22847263.922
 11  8 11  1  2  0.0000000  0 10G10G17G04G25G12G27G05G09G02G30
 109767695.385 8  85533403.73546  20888086.461                    20888093.832
 122187933.072 7  95211478.691 6  23251588.953                    23251597.648
 114513746.817 8  89231608.18745  21791221.055                    21791229.809
 125722968.760 7  97965993.536 6  23924289.484                    23924300.820
 111926812.743 8  87215762.332 7  21298967.586                    21298975.117
 126269245.511 6  98391712.06943  24028259.805                    24028271.430
 114986314.980 7  89599795.345 7  21881154.133                    21881162.320
 125315389.210 7  97648536.19744  23846763.000                    23846773.547
 108207686.535 8  84317903.95846  20591243.555                    20591248.871
 119976143.682 6  93487971.38344  22830704.617                    22830713.309
 11  8 11  1  2 30.0000000  0 10G10G17G04G25G12G27G05G09G02G30
 109771107.760 8  85536062.74046  20888735.445                    20888743.473
 122243322.240 7  95254639.026 6  23262129.117                    23262137.785
 114591477.692 8  89292177.67245  21806012.656                    21806021.539
 125625523.143 7  97890061.923 6  23905745.664                    23905756.301
 111872575.108 8  87173499.251 7  21288646.523                    21288654.023
 126333769.663 6  98441990.43943  24040539.133                    24040550.434
 114898310.722 7  89531220.650 7  21864407.289                    21864415.938
 125396536.417 7  97711767.67844  23862204.805                    23862215.711
 108209417.789 8  84319252.99846  20591572.961                    20591578.219
 119889531.829 7  93420481.65044  22814222.945                    22814231.523
 11  8 11  1  3  0.0000000  0 10G10G17G04G25G12G27G05G09G02G30
 109775153.265 7  85539215.09846  20889505.320                    20889513.043
 122298873.503 7  95297925.709 6  23272700.328                    23272708.836
 114669336.311 8  89352846.70745  21820828.977                    21820837.313
 125528281.439 7  97814289.225 6  23887241.453                    23887253.348
 111818794.927 7  87131592.631 7  21278412.609                    21278419.602
 126398332.367 6  98492298.87743  24052825.063                    24052836.383
 114810631.765 7  89462899.432 7  21847722.766                    21847731.066
 125477811.507 6  97775098.80144  23877669.414                    23877681.156
 108211433.159 8  84320823.41946  20591956.648                    20591962.027
 119803284.244 7  93353275.76944  22797809.984                    22797819.207
 11  8 11  1  3 30.0000000  0 10G10G17G04G25G12G27G05G09G02G30
 109779831.945 8  85542860.82346  20890395.547                    20890403.570
 122354587.182 7  95341338.946 6  23283302.453                    23283310.789
 114747320.703 8  89413613.73745  21835668.500                    21835677.586
 125431246.367 7  97738677.486 6  23868776.047                    23868787.000
 111765474.686 8  87090044.404 7  21268266.148                    21268273.203
 126462931.083 6  98542635.36543  24065118.234                    24065129.316
 114723280.772 7  89394833.756 7  21831100.250                    21831108.504
 125559211.502 6  97838527.27443  23893158.969                    23893171.184
 108213731.646 8  84322614.45946  20592393.969                    20592399.578
 119717403.692 6  93286355.88744  22781467.625                    22781476.637
 11  8 11  1  4  0.0000000  0 10G10G17G04G25G12G27G05G09G02G30
 109785143.864 8  85546999.99446  20891406.141                    20891414.332
 122410463.966 7  95384879.276 6  23293935.125                    23293943.742
 114825428.940 8  89474477.27645  21850532.234                    21850540.855
 125334420.485 7  97663228.817 6  23850350.609                    23850362.648
 111712616.294 8  87048856.063 7  21258207.445                    21258214.887
 126527562.882 6  98592997.62843  24077416.938                    24077428.723
 114636260.826 7  89327026.065 7  21814540.813                    21814549.578
 125640732.861 6  97902050.24943  23908673.484                    23908683.664
 108216312.086 8  84324625.19446  20592884.734                    20592890.766
 119631892.983 7  93219724.20244  22765195.898                    22765204.000
 11  8 11  1  4 30.0000000  0 10G10G17G04G25G12G27G05G09G02G30
 109791089.059 8  85551632.61746  20892537.867                    20892545.879
 122466504.272 7  95428546.997 6  23304599.438                    23304608.160
 114903659.242 8  89535435.91945  21865419.047                    21865427.414
 125237806.547 7  97587945.261 6  23831965.914                    23831977.133
 111660222.324 8  87008029.615 7  21248237.250                    21248244.566
 126592225.177 6  98643383.67643  24089721.969                    24089733.621
 114549574.646 7  89259478.444 7  21798044.891                    21798053.531
 125722372.175 6  97965665.19843  23924208.734                    23924219.559
 108219173.493 8  84326854.86746  20593429.391                    20593434.965
 119546754.973 6  93153382.92644  22748994.758                    22749002.785
 11  8 11  1  5  0.0000000  0 10G10G17G04G25G12G27G05G09G02G30
 109797667.692 8  85556758.82846  20893789.969                    20893797.660
 122522708.550 7  95472342.498 6  23315294.633                    23315303.402
 114982009.844 8  89596488.29945  21880328.703                    21880337.191
 125141407.193 6  97512828.914 6  23813621.719                    23813632.969
 111608294.618 8  86967566.481 7  21238355.789                    21238362.871
 126656915.409 6  98693791.48443  24102032.531                    24102043.641
 114463224.735 7  89192192.850 7  21781613.055                    21781621.930
 125804126.177 6  98029369.49843  23939766.523                    23939777.285
 108222314.579 7  84329302.47246  20594027.297                    20594032.574
 119461992.428 6  93087334.21444  22732864.711                    22732872.938
 11  8 11  1  5 30.0000000  0 10G10G17G04G25G12G27G05G09G02G30
 109804879.207 8  85562378.20146  20895162.211                    20895170.090
 122579077.367 7  95516266.226 6  23326021.195                    23326029.922
 115060478.680 8  89657632.81045  21895260.586                    21895269.496
 125045225.079 7  97437881.859 7  23795318.469                    23795330.055
 111556835.375 8  86927468.383 7  21228563.289                    21228570.266
 126721630.565 6  98744218.73643  24114346.820                    24114358.699
 114377214.226 7  89125171.720 7  21765245.820                    21765254.246
 125885991.202 6  98093160.28644  23955344.867                    23955355.941
 108225734.077 8  84331967.02246  20594677.844                    20594683.180
 119377607.965 6  93021580.12244  22716806.938                    22716815.676
 11  8 11  1  6  0.0000000  0 10G10G17G04G25G12G27G05G09G02G30
 109812723.787 8  85568490.86346  20896654.719                    20896662.234
 122635611.101 7  95560318.463 6  23336779.156                    23336788.020
 115139063.908 8  89718868.02245  21910215.508                    21910223.734
 124949262.888 6  97363106.152 7  23777057.055                    23777069.438
 111505846.856 8  86887737.085 7  21218860.148                    21218867.715
 126786368.039 6  98794663.33243  24126666.086                    24126678.777
 114291545.905 8  89058417.241 7  21748943.664                    21748951.891
 125967964.126 7  98157035.19244  23970944.242                    23970955.594
 108229431.249 8  84334847.94646  20595381.195                    20595386.691
 119293604.515 7  92956122.92144  22700821.563                    22700830.164
 11  8 11  1  6 30.0000000  0 10G10G17G04G25G12G27G05G09G02G30
 109821200.990 8  85575096.47646  20898267.805                    20898275.512
 122692310.222 7  95604499.557 6  23347568.664                    23347577.953
 115217763.363 8  89780192.24845  21925191.102                    21925200.016
 124853523.056 7  97288503.699 7  23758838.375                    23758850.516
 111455330.938 8  86848374.038 7  21209247.688                    21209254.902
 126851124.858 6  98845122.98243  24138988.859                    24139001.598
 114206222.148 8  88991931.237 7  21732706.836                    21732715.719
 126050041.572 7  98220991.53744  23986563.445                    23986574.328
 108233404.652 8  84337944.11646  20596137.375                    20596142.711
 119209984.476 7  92890964.47544  22684909.148                    22684917.578
 11  8 11  1  7  0.0000000  0 10G10G17G04G25G12G27G05G09G02G30
 109830310.919 8  85582195.13246  20900001.602                    20900009.484
 122749175.025 7  95648809.767 6  23358389.820                    23358398.398
 115296575.443 8  89841604.23845  21940188.781                    21940197.320
 124758008.329 7  97214076.657 6  23740662.852                    23740673.949
 111405289.625 8  86809380.818 7  21199724.992                    21199731.707
 126915898.452 6  98895595.69443  24151314.648                    24151327.754
 114121245.954 8  88925716.075 7  21716536.484                    21716544.688
 126132220.317 7  98285026.78643  24002201.359                    24002211.914
 108237653.088 8  84341254.58846  20596945.977                    20596951.504
 119126750.762 7  92826107.05044  22669070.500                    22669078.344
 11  8 11  1  7 30.0000000  0 10G10G17G04G25G12G27G05G09G02G30
 109840053.221 8  85589786.53346  20901855.094                    20901863.254
 122806206.066 7  95693249.511 6  23369242.766                    23369251.313
 115375498.355 8  89903102.57745  21955207.500                    21955215.988
 124662721.520 7  97139827.204 6  23722530.773                    23722541.523
 111355725.086 8  86770759.107 7  21190293.273                    21190300.371
 126980686.257 6  98946079.49743  24163644.133                    24163656.457
 114036620.173 8  88859773.966 7  21700432.664                    21700440.879
 126214496.965 7  98349138.34543  24017857.836                    24017869.020
 108242175.598 8  84344778.61846  20597806.242                    20597812.012
 119043906.086 7  92761552.75544  22653305.664                    22653313.598
 11  8 11  1  8  0.0000000  0 10G10G17G04G25G12G27G05G09G02G30
 109850427.562 8  85597870.42946  20903829.578                    20903837.438
 122863403.658 7  95737819.032 6  23380126.867                    23380135.691
 115454530.158 8  89964685.77045  21970246.883                    21970255.000
 124567665.156 7  97065757.320 6  23704442.422                    23704453.211
 111306639.357 8  86732510.496 7  21180952.547                    21180960.008
 127045485.389 6  98996572.10943  24175975.148                    24175987.984
 113952347.190 7  88794106.759 7  21684396.000                    21684404.293
 126296867.926 6  98413323.39043  24033532.570                    24033543.629
 108246970.573 8  84348514.96346  20598719.109                    20598724.598
 118961453.092 6  92697303.69544  22637615.094                    22637623.375
 11  8 11  1  8 30.0000000  0 10G10G17G04G25G12G27G05G09G02G30
 109861434.292 8  85606447.10146  20905923.984                    20905932.125
 122920768.575 7  95782518.951 6  23391043.719                    23391052.223
 115533669.343 7  90026352.64745  21985306.391                    21985315.184
 124472842.255 7  96991869.348 6  23686397.656                    23686408.887
 111258034.764 8  86694636.798 7  21171702.945                    21171710.531
 127110293.721 6  99047071.86643  24188308.047                    24188320.648
 113868430.323 7  88728717.048 7  21668427.227                    21668435.504
 126379330.165 6  98477579.56443  24049224.516                    24049235.828
 108252037.370 8  84352463.12446  20599682.820                    20599688.957
 118879394.897 6  92633362.27544  22622000.453                    22622008.711
 11  8 11  1  9  0.0000000  0 10G10G17G04G25G12G27G05G09G02G30
 109873072.990 8  85615516.22146  20908138.781                    20908147.066
 122978301.116 7  95827349.484 6  23401991.047                    23401999.988
 115612913.882 8  90088101.60245  22000386.102                    22000394.305
 124378255.244 7  96918165.205 6  23668398.117                    23668409.410
 111209913.367 8  86657139.608 7  21162546.297                    21162553.090
 127175108.100 6  99097576.42743  24200642.039                    24200654.738
 113784872.175 8  88663606.859 7  21652526.648                    21652534.480
 126461880.515 6  98541904.40643  24064934.148                    24064945.023
 108257374.804 8  84356622.16246  20600698.570                    20600704.246
 118797733.935 7  92569730.37045  22606460.031                    22606468.652
 11  8 11  1  9 30.0000000  0 10G10G17G04G25G12G27G05G09G02G30
 109885342.889 8  85625077.18246  20910473.781                    20910481.453
 123036001.749 7  95872310.985 6  23412971.547                    23412980.871
 115692261.986 7  90149931.27445  22015485.219                    22015494.105
 124283906.737 7  96844646.902 6  23650444.805                    23650455.973
 111162276.983 8  86620020.358 7  21153481.258                    21153488.281
 127239925.783 6  99148083.48843  24212975.539                    24212988.238
 113701675.434 7  88598778.275 7  21636694.836                    21636703.008
 126544515.434 6  98606295.14543  24080658.391                    24080669.625
 108262981.795 8  84360991.24446  20601765.750                    20601771.449
 118716472.867 6  92506410.08344  22590997.250                    22591005.746
 11  8 11  1 10  0.0000000  0 10G10G17G04G25G12G27G05G09G02G30
 109898243.312 8  85635129.45946  20912928.805                    20912936.711
 123093870.874 7  95917403.773 6  23423983.406                    23423992.559
 115771711.462 8  90211839.93345  22030604.156                    22030612.672
 124189799.215 7  96771316.372 6  23632536.047                    23632546.609
 111115126.784 8  86583279.944 7  21144508.688                    21144515.641
 127304743.705 6  99198590.79842  24225311.156                    24225323.223
 113618842.442 8  88534233.137 7  21620932.281                    21620940.059
 126627231.203 7  98670748.85443  24096399.719                    24096410.762
 108268856.639 8  84365569.04246  20602883.625                    20602889.141
 118635614.253 7  92443403.40944  22575610.203                    22575619.012
 11  8 11  1 10 30.0000000  0 10G10G17G04G25G12G27G05G09G02G30
 109911774.543 8  85645673.28146  20915503.617                    20915511.500
 123151908.844 6  95962628.138 6  23435027.375                    23435037.199
 115851261.042 8  90273826.59845  22045742.008                    22045750.641
 124095935.706 7  96698176.002 6  23614674.805                    23614685.594
 111068465.690 8  86546920.652 7  21135629.469                    21135636.633
 127369559.850 6  99249096.67343  24237644.813                    24237657.578
 113536376.070 8  88469973.672 7  21605239.477                    21605247.746
 126710025.115 7  98735263.49743  24112154.070                    24112165.227
 108274998.748 8  84370355.11546  20604052.633                    20604058.070
 118555161.119 7  92380712.68644  22560300.539                    22560309.105
 11  8 11  1 11  0.0000000  0 10G10G17G04G25G12G27G05G09G02G30
 109925936.117 8  85656708.27646  20918198.273                    20918206.270
 123210116.057 6  96007984.382 6  23446103.633                    23446113.371
 115930908.819 7  90335889.78545  22060898.359                    22060907.328
 124002318.808 7  96625227.783 6  23596860.000                    23596870.371
 111022295.504 8  86510943.896 7  21126843.727                    21126851.199
 127434371.228 6  99299598.83543  24249978.047                    24249991.340
 113454279.147 7  88406002.091 7  21589616.453                    21589624.777
 126792893.636 6  98799836.23943  24127924.078                    24127934.887
 108281406.703 8  84375348.33046  20605272.086                    20605277.285
 118475115.942 7  92318339.86745  22545068.383                    22545076.859
 11  8 11  1 11 30.0000000  0 10G10G17G04G25G12G27G05G09G02G30
 109940727.558 8  85668234.08146  20921012.922                    20921021.156
 123268492.970 7  96053472.845 6  23457213.148                    23457222.441
 116010653.023 8  90398028.10345  22076072.992                    22076081.414
 123908951.169 7  96552473.820 6  23579092.422                    23579103.418
 110976618.215 8  86475351.214 7  21118151.656                    21118158.793
 127499175.328 6  99350095.31243  24262310.656                    24262324.422
 113372554.347 8  88342320.485 7  21574065.109                    21574073.176
 126875833.637 6  98864464.67443  24143706.586                    24143718.664
 108288079.462 8  84380547.87746  20606541.656                    20606546.848
 118395481.443 7  92256287.05745  22529914.070                    22529922.934
 11  8 11  1 12  0.0000000  0 10G10G17G04G25G12G27G05G09G02G30
 109956148.339 8  85680250.28146  20923947.242                    20923955.332
 123327040.138 6  96099093.993 6  23468354.094                    23468363.617
 116090491.622 7  90460239.97645  22091266.219                    22091274.398
 123815835.356 7  96479916.081 6  23561373.234                    23561384.551
 110931435.722 8  86440144.083 7  21109553.477                    21109560.813
 127563969.375 6  99400583.89843  24274641.594                    24274654.188
 113291204.194 7  88278930.797 7  21558585.086                    21558592.539
 126958841.591 6  98929146.06143  24159502.008                    24159514.129
 108295015.469 8  84385952.55246  20607861.695                    20607867.355
 118316260.268 7  92194556.30845  22514839.172                    22514847.777
 11  8 11  1 12 30.0000000  0 10G10G17G04G25G12G27G05G09G02G30
 109972198.054 8  85692756.55846  20927001.469                    20927009.586
 123385758.040 6  96144848.166 6  23479527.586                    23479536.621
 116170423.186 7  90522524.28345  22106476.508                    22106485.266
 123722974.307 7  96407556.849 6  23543702.078                    23543713.215
 110886750.043 8  86405324.083 7  21101050.023                    21101057.418
 127628750.838 6  99451062.72543  24286967.984                    24286982.043
 113210231.685 8  88215835.378 7  21543175.703                    21543183.813
 127041914.314 6  98993877.87943  24175311.250                    24175322.426
 108302214.133 8  84391561.90246  20609231.195                    20609237.336
 118237455.198 7  92133149.80444  22499842.711                    22499851.668
 11  8 11  1 13  0.0000000  0 10G10G17G04G25G12G27G05G09G02G30
 109988876.161 8  85705752.48446  20930175.508                    20930183.426
 123444646.884 7  96190735.553 6  23490734.578                    23490743.598
 116250446.229 7  90584879.87045  22121704.555                    22121713.223
 123630370.621 7  96335398.163 6  23526080.555                    23526090.871
 110842563.363 8  86370892.906 7  21092641.492                    21092648.973
 127693517.243 6  99501529.82243  24299293.547                    24299306.293
 113129639.373 8  88153036.214 7  21527839.727                    21527848.250
 127125048.709 6  99058657.75243  24191131.148                    24191142.379
 108309674.225 8  84397374.95646  20610650.953                    20610656.309
 118159068.872 7  92072069.60944  22484926.273                    22484935.465
 11  8 11  1 13 30.0000000  0 10G10G17G04G25G12G27G05G09G02G30
 110006181.765 8  85719237.38946  20933468.648                    20933476.332
 123503707.407 6  96236756.699 6  23501971.938                    23501982.488
 116330558.503 7  90647304.99145  22136949.500                    22136957.863
 123538026.809 7  96263441.974 6  23508508.297                    23508518.496
 110798876.947 8  86336851.555 7  21084328.625                    21084335.898
 127758265.631 6  99551982.84343  24311614.578                    24311627.883
 113049429.607 8  88090535.137 7  21512576.227                    21512584.535
 127208241.018 6  99123482.77643  24206961.789                    24206973.711
 108317394.227 8  84403390.53046  20612120.156                    20612125.598
 118081103.819 7  92011317.66844  22470090.039                    22470098.832
 11  8 11  1 14  0.0000000  0 10G10G17G04G25G12G27G05G09G02G30
 110024114.751 8  85733211.15246  20936880.992                    20936889.086
 123562939.479 7  96282911.519 6  23513244.609                    23513253.703
 116410758.299 7  90709798.32445  22152210.898                    22152219.484
 123445945.600 7  96191690.403 7  23490985.211                    23490996.781
 110755692.647 8  86303201.460 7  21076110.625                    21076117.805
 127822993.224 6  99602419.68943  24323931.516                    24323944.730
 112969605.177 7  88028334.322 7  21497386.289                    21497394.598
 127291488.312 6  99188350.61643  24222803.906                    24222815.656
 108325373.045 8  84409607.80046  20613638.445                    20613643.652
 118003562.613 7  91950895.99145  22455334.000                    22455343.070
 11  8 11  1 14 30.0000000  0 10G10G17G04G25G12G27G05G09G02G30
 110042674.817 8  85747673.55446  20940412.938                    20940421.008
 123622343.877 7  96329200.640 6  23524548.344                    23524557.191
 116491044.361 7  90772358.87345  22167488.664                    22167497.352
 123354129.912 7  96120145.748 6  23473513.602                    23473524.332
 110713012.725 8  86269944.377 7  21067989.328                    21067996.191
 127887697.710 6  99652838.50243  24336245.203                    24336257.668
 112890169.217 7  87966436.219 7  21482270.164                    21482278.258
 127374787.426 6  99253258.83943  24238655.352                    24238666.699
 108333610.075 8  84416026.26046  20615205.836                    20615211.125
 117926448.139 7  91890806.85945  22440660.125                    22440668.180
 11  8 11  1 15  0.0000000  0 10G10G17G04G25G12G27G05G09G02G30
 110061860.700 8  85762623.60946  20944063.773                    20944071.793
 123681920.606 6  96375624.021 6  23535885.477                    23535894.465
 116571414.794 7  90834985.15945  22182783.023                    22182791.344
 123262582.219 7  96048809.905 6  23456093.125                    23456103.602
 110670838.993 8  86237081.733 7  21059963.383                    21059970.934
 127952376.288 6  99703237.14943  24348553.008                    24348566.191
 112811123.806 8  87904842.441 7  21467228.188                    21467236.031
 127458134.929 6  99318204.75343  24254515.289                    24254527.773
 108342103.275 8  84422644.32746  20616822.273                    20616827.348
 117849762.760 7  91831052.06245  22426067.688                    22426075.727
 11  8 11  1 15 30.0000000  0 10G10G17G04G25G12G27G05G09G02G30
 110081671.892 8  85778060.90346  20947833.695                    20947841.754
 123741670.314 7  96422182.185 6  23547256.117                    23547265.352
 116651867.827 7  90897675.82345  22198092.609                    22198101.164
 123171305.278 7  95977685.023 6  23438723.078                    23438734.469
 110629173.232 8  86204614.911 7  21052034.781                    21052042.512
 128017026.566 6  99753613.70543  24360856.023                    24360868.953
 112732471.560 8  87843555.024 7  21452261.008                    21452269.426
 127541527.615 6  99383185.91144  24270384.836                    24270397.148
 108350852.094 8  84429461.59346  20618486.734                    20618492.313
 117773509.209 7  91771633.73745  22411556.516                    22411565.133
 11  8 11  1 16  0.0000000  0 10G10G17G04G25G12G27G05G09G02G30
 110102107.817 8  85793985.01646  20951722.594                    20951730.367
 123801593.352 7  96468875.466 6  23558658.852                    23558667.234
 116732401.507 7  90960429.30145  22213417.867                    22213426.250
 123080301.573 7  95906773.075 6  23421405.641                    23421416.660
 110588017.079 8  86172545.189 7  21044203.047                    21044209.836
 128081645.516 6  99803965.89643  24373152.375                    24373166.426
 112654215.053 8  87782575.965 7  21437368.969                    21437377.305
 127624962.280 6  99448199.76444  24286261.844                    24286274.020
 108359855.121 8  84436476.94146  20620200.055                    20620205.969
 117697689.848 7  91712553.75345  22397128.453                    22397137.309
 11  8 11  1 16 30.0000000  0 10G10G17G04G25G12G27G05G09G02G30
 110123167.677 8  85810395.30646  20955729.945                    20955737.977
 123861690.043 7  96515704.059 6  23570095.125                    23570103.641
 116813014.438 7  91023244.54645  22228757.539                    22228766.711
 122989573.868 7  95836076.180 6  23404141.305                    23404151.551
 110547372.141 8  86140873.807 7  21036468.430                    21036475.855
 128146230.764 6  99854291.80143  24385442.430                    24385456.758
 112576357.017 8  87721907.411 7  21422553.492                    21422561.473
 127708435.520 6  99513243.68343  24302146.727                    24302158.398
 108369110.941 8  84443689.27646  20621961.391                    20621967.051
 117622307.323 7  91653814.15144  22382783.258                    22382792.293
 11  8 11  1 17  0.0000000  0 10G10G17G04G25G12G27G05G09G02G30
 110144850.510 8  85827291.02546  20959856.555                    20959864.266
 123921960.690 7  96562668.177 6  23581564.203                    23581573.465
 116893704.833 7  91086120.14545  22244112.664                    22244121.414
 122899124.801 7  95765596.428 6  23386928.922                    23386940.004
 110507240.467 8  86109602.391 7  21028831.945                    21028839.152
 128210779.754 6  99904589.45543  24397726.242                    24397740.266
 112498899.820 8  87661551.204 7  21407813.547                    21407821.672
 127791944.469 6  99578315.45643  24318038.008                    24318049.820
 108378618.578 8  84451097.82546  20623770.773                    20623775.813
 117547364.242 7  91595416.95345  22368522.438                    22368530.898
 11  8 11  1 17 30.0000000  0 10G10G17G04G25G12G27G05G09G02G30
 110167155.694 8  85844671.71046  20964100.922                    20964108.832
 123982405.714 7  96609768.194 6  23593066.266                    23593075.234
 116974471.176 7  91149054.92845  22259482.125                    22259490.801
 122808957.140 7  95695335.954 6  23369770.883                    23369782.008
 110467623.820 8  86078732.278 7  21021293.141                    21021300.047
 128275289.791 6  99954856.75443  24410002.352                    24410016.203
 112421846.233 8  87601509.500 7  21393150.844                    21393158.988
 127875485.608 6  99643412.27943  24333936.281                    24333947.426
 108388376.891 8  84458701.70646  20625627.906                    20625632.930
 117472863.136 7  91537364.15245  22354345.430                    22354353.797
 11  8 11  1 18  0.0000000  0 10G10G17G04G25G12G27G05G09G02G30
 110190082.251 7  85862536.58546  20968463.508                    20968471.355
 124043025.556 7  96657004.420 6  23604602.141                    23604610.965
 117055311.572 7  91212047.41645  22274865.516                    22274874.141
 122719073.395 7  95625296.720 6  23352665.719                    23352676.910
 110428523.792 8  86048264.737 7  21013852.305                    21013859.715
 128339757.998 6 100005091.50443  24422271.344                    24422284.203
 112345198.508 8  87541784.047 7  21378565.133                    21378573.211
 127959055.604 6  99708531.61144  24349839.078                    24349851.438
 108398384.351 8  84466499.72246  20627532.125                    20627537.508
 117398806.441 7  91479657.65445  22340252.820                    22340261.289
 11  8 11  1 18 30.0000000  0 10G10G17G04G25G12G27G05G09G02G30
 110213629.752 8  85880885.29346  20972944.695                    20972952.293
 124103820.464 7  96704377.076 6  23616170.680                    23616179.273
 117136224.955 7  91275096.78845  22290262.648                    22290271.566
 122629476.602 7  95555481.100 6  23335616.555                    23335627.617
 110389942.395 8  86018201.319 7  21006510.789                    21006518.148
 128404182.168 6 100055291.96043  24434528.609                    24434544.480
 112268959.605 8  87482377.148 7  21364057.664                    21364065.586
 128042651.579 6  99773671.15443  24365746.844                    24365758.563
 108408640.491 8  84474491.52546  20629484.023                    20629489.051
 117325197.176 7  91422299.79145  22326245.898                    22326253.922
 11  8 11  1 19  0.0000000  0 10G10G17G04G25G12G27G05G09G02G30
 110237796.986 8  85899716.91646  20977543.516                    20977551.395
 124164790.724 7  96751886.338 6  23627773.352                    23627781.914
 117217209.232 7  91338201.40445  22305673.523                    22305682.148
 122540169.224 7  95485890.975 6  23318621.555                    23318632.957
 110351880.947 8  85988543.057 7  20999267.648                    20999274.754
 128468559.659 6 100105456.00842  24446780.336                    24446794.734
 112193131.712 8  87423290.536 7  21349627.781                    21349635.605
 128126270.169 6  99838828.35143  24381658.500                    24381670.918
 108419143.823 8  84482675.94746  20631482.422                    20631487.559
 117252037.457 7  91365292.24845  22312323.508                    22312331.906
 11  8 11  1 19 30.0000000  0 10G10G17G04G25G12G27G05G09G02G30
 110262583.191 8  85919030.85246  20982260.172                    20982267.523
 124225936.590 7  96799532.447 6  23639408.945                    23639417.457
 117298262.784 7  91401359.99945  22321097.633                    22321106.641
 122451153.686 7  95416528.305 6  23301682.688                    23301693.695
 110314341.011 8  85959291.165 7  20992124.078                    20992131.664
 128532887.420 6 100155581.30142  24459021.750                    24459036.594
 112117717.181 8  87364526.019 7  21335276.656                    21335284.883
 128209908.289 6  99904000.77543  24397574.891                    24397586.422
 108429892.680 8  84491051.68546  20633527.914                    20633532.910
 117179329.746 7  91308636.89145  22298487.688                    22298496.285
 11  8 11  1 20  0.0000000  0 10G10G17G04G25G12G27G05G09G02G30
 110287987.744 8  85938826.62746  20987094.391                    20987102.262
 124287258.680 7  96847315.879 6  23651078.008                    23651086.742
 117379384.193 7  91464571.47345  22336534.641                    22336543.531
 122362433.189 7  95347395.520 7  23284799.586                    23284810.719
 110277325.061 8  85930447.584 7  20985080.352                    20985087.719
 128597163.404 6 100205666.31642  24471253.266                    24471267.320
 112042718.884 8  87306085.830 7  21321004.742                    21321012.727
 128293562.705 6  99969185.94243  24413493.406                    24413505.352
 108440886.732 8  84499618.49146  20635619.898                    20635625.301
 117107076.941 7  91252336.02245  22284738.242                    22284746.813
 11  8 11  1 20 30.0000000  0 10G10G17G04G25G12G27G05G09G02G30
 110314009.171 8  85959103.07046  20992045.688                    20992054.223
 124348757.063 7  96895236.659 6  23662780.898                    23662789.969
 117460571.919 7  91527834.59745  22351983.953                    22351992.875
 122274009.972 7  95278494.377 7  23267972.867                    23267984.531
 110240833.965 8  85902012.980 7  20978136.234                    20978143.508
 128661384.768 5 100255708.73742  24483474.438                    24483488.859
 111968138.924 8  87247971.627 7  21306812.727                    21306820.672
 128377230.125 6 100034381.14843  24429414.883                    24429427.148
 108452124.205 8  84508374.97246  20637758.391                    20637763.875
 117035281.161 7  91196391.27245  22271075.992                    22271085.066
 11  8 11  1 21  0.0000000  0  9G10G17G04G25G12G05G09G02G30
 110340646.763 8  85979859.64746  20997114.570                    20997122.855
 124410432.274 7  96943295.249 6  23674517.297                    23674526.191
 117541824.208 7  91591148.04445  22367445.906                    22367454.707
 122185886.987 7  95209827.179 7  23251203.898                    23251215.324
 110204869.648 8  85873988.856 7  20971292.313                    20971299.813
 111893980.260 8  87190185.702 7  21292700.922                    21292709.043
 128460907.855 6 100099584.45842  24445338.258                    24445350.547
 108463604.464 8  84517320.63046  20639943.086                    20639948.422
 116963945.183 7  91140804.84545  22257501.539                    22257510.066
 11  8 11  1 21 30.0000000  0  9G10G17G04G25G12G05G09G02G30
 110367899.394 7  86001095.47246  21002301.133                    21002308.578
 124472284.556 6  96991491.826 6  23686287.695                    23686296.500
 117623139.629 7  91654510.68545  22382920.102                    22382928.391
 122098066.729 7  95141395.886 6  23234491.977                    23234503.305
 110169433.991 8  85846376.665 7  20964549.234                    20964556.422
 111820245.172 8  87132729.835 7  21278669.594                    21278677.605
 128544592.254 6 100164792.95842  24461262.625                    24461274.863
 108475325.746 8  84526454.10746  20642173.234                    20642178.738
 116893071.357 7  91085578.52545  22244014.063                    22244022.855
 11  8 11  1 22  0.0000000  0  9G10G17G04G25G12G05G09G02G30
 110395766.015 7  86022809.73446  21007603.602                    21007611.656
 124534314.112 6  97039826.522 6  23698091.625                    23698100.313
 117704516.531 7  91717921.23845  22398405.477                    22398413.707
 122010551.750 7  95073202.474 7  23217838.813                    23217849.871
 110134527.945 8  85819177.174 7  20957906.703                    20957914.105
 111746935.835 8  87075605.725 7  21264719.484                    21264727.469
 128628280.133 6 100230004.11742  24477188.047                    24477200.512
 108487286.954 8  84535774.53046  20644449.352                    20644454.902
 116822662.014 7  91030714.14845  22230616.039                    22230625.043
 11  8 11  1 22 30.0000000  0  9G10G17G04G25G12G05G09G02G30
 110424245.931 7  86045001.88846  21013023.227                    21013030.750
 124596521.424 6  97088299.709 6  23709928.891                    23709938.305
 117785953.356 7  91781378.48445  22413902.031                    22413910.734
 121923344.815 7  95005249.069 6  23201243.672                    23201254.480
 110100153.426 8  85792391.846 7  20951365.305                    20951372.926
 111674054.952 8  87018815.477 7  21250850.336                    21250858.816
 128711968.563 6 100295215.66543  24493113.602                    24493126.234
 108499487.012 8  84545281.07746  20646771.195                    20646776.609
 116752719.638 7  90976213.64045  22217306.398                    22217314.996
 11  8 11  1 23  0.0000000  0  9G10G17G04G25G12G05G09G02G30
 110453337.677 7  86067670.78246  21018558.930                    21018567.066
 124658906.768 6  97136911.632 6  23721800.172                    23721809.195
 117867448.569 7  91844881.24344  22429410.008                    22429418.809
 121836448.708 7  94937537.860 6  23184707.844                    23184718.449
 110066312.081 8  85766021.982 7  20944925.859                    20944933.297
 111601605.030 8  86962361.038 7  21237063.477                    21237071.531
 128795654.302 6 100360425.22243  24509039.398                    24509051.098
 108511924.771 8  84554972.85146  20649137.586                    20649143.430
 116683246.772 7  90922078.98145  22204086.227                    22204094.926
 11  8 11  1 23 30.0000000  0  9G10G17G04G25G12G05G09G02G30
 110483040.466 8  86090815.81146  21024211.828                    21024219.500
 124721470.273 6  97185662.380 6  23733705.391                    23733715.207
 117949000.860 7  91908428.46944  22444929.094                    22444938.145
 121749865.918 7  94870070.795 7  23168231.891                    23168242.938
 110033005.098 8  85740068.493 7  20938587.609                    20938594.719
 111529588.195 8  86906244.066 7  21223359.117                    21223367.270
 128879334.204 6 100425630.22243  24524962.352                    24524975.344
 108524599.130 8  84564848.98846  20651549.836                    20651555.504
 116614245.794 7  90868312.02245  22190955.719                    22190964.223
 11  8 11  1 24  0.0000000  0  9G10G17G04G25G12G05G09G02G30
 110513353.128 8  86114436.06046  21029979.570                    21029987.621
 124784212.257 6  97234552.213 6  23745644.578                    23745654.277
 118030608.523 7  91972018.85045  22460458.508                    22460467.219
 121663599.241 7  94802850.040 6  23151815.742                    23151826.441
 110000234.364 8  85714532.864 7  20932351.633                    20932358.738
 111458006.921 8  86850466.491 7  21209737.930                    21209745.977
 128963005.217 6 100490828.22043  24540884.688                    24540897.582
 108537508.994 8  84574908.62646  20654006.547                    20654011.613
 116545719.168 7  90814914.69045  22177915.453                    22177923.898
 11  8 11  1 24 30.0000000  0  9G10G17G04G25G12G05G09G02G30
 110544274.307 7  86138530.47446  21035863.781                    21035871.715
 124847133.164 6  97283581.444 6  23757617.813                    23757627.711
 118112269.759 7  92035650.97044  22475998.328                    22476006.660
 121577651.121 7  94735877.502 7  23135460.305                    23135471.387
 109968001.001 8  85689415.966 7  20926217.578                    20926224.926
 111386863.510 8  86795030.110 7  21196199.320                    21196207.738
 129046663.832 6 100556016.57743  24556804.375                    24556817.465
 108550652.916 8  84585150.65646  20656507.805                    20656512.852
 116477669.086 7  90761888.68645  22164965.742                    22164974.160
 11  8 11  1 25  0.0000000  0  9G10G17G04G25G12G05G09G02G30
 110575802.953 7  86163098.24846  21041863.500                    21041871.617
 124910233.235 6  97332750.313 6  23769626.211                    23769635.324
 118193983.495 7  92099323.99744  22491547.656                    22491556.289
 121492024.537 7  94669155.492 7  23119166.063                    23119176.828
 109936307.126 8  85664719.442 7  20920186.758                    20920193.438
 111316160.643 8  86739937.004 7  21182745.023                    21182753.340
 129130307.442 6 100621193.20343  24572721.781                    24572734.559
 108564030.010 8  84595574.36646  20659053.000                    20659058.426
 116410098.223 7  90709236.08145  22152107.633                    22152115.934
 11  8 11  1 25 30.0000000  0  9G10G17G04G25G12G05G09G02G30
 110607937.667 7  86188138.27446  21047978.547                    21047986.262
 124973512.501 6  97382058.808 6  23781667.789                    23781676.855
 118275747.985 7  92163036.56744  22507107.266                    22507115.273
 121406721.735 7  94602685.796 7  23102933.406                    23102944.117
 109905153.332 8  85640443.754 7  20914258.336                    20914265.250
 111245900.365 8  86685188.776 7  21169375.211                    21169383.496
 129213932.725 6 100686355.56043  24588635.188                    24588648.141
 108577638.723 8  84606178.55546  20661642.844                    20661648.242
 116343008.641 7  90656958.49845  22139340.648                    22139349.340
 11  8 11  1 26  0.0000000  0  9G10G17G04G25G12G05G09G02G30
 110640677.014 8  86213649.44646  21054208.703                    21054216.387
 125036971.202 6  97431507.105 6  23793744.063                    23793753.285
 118357561.829 7  92226787.60944  22522675.594                    22522684.191
 121321745.372 7  94536470.470 7  23086762.945                    23086773.730
 109874541.294 8  85616590.223 7  20908433.008                    20908440.184
 111176084.691 8  86630787.001 7  21156089.500                    21156097.785
 129297536.508 6 100751501.17843  24604544.789                    24604556.695
 108591477.736 8  84616962.20746  20664276.484                    20664281.789
 116276402.543 7  90605057.65745  22126665.836                    22126674.477
 11  8 11  1 26 30.0000000  0  9G10G17G04G25G12G05G09G02G30
 110674020.189 8  86239631.14446  21060553.672                    21060561.730
 125100609.915 7  97481095.689 6  23805854.383                    23805862.961
 118439423.806 7  92290576.15344  22538253.344                    22538261.813
 121237098.402 7  94470511.813 7  23070655.180                    23070666.016
 109844472.573 8  85593160.045 7  20902711.383                    20902718.648
 111106716.598 8  86576733.974 7  21142889.180                    21142897.168
 129381115.766 6 100816627.65644  24620450.359                    24620462.176
 108605546.381 8  84627924.78646  20666953.555                    20666958.820
 116210282.675 7  90553535.68545  22114083.859                    22114092.176
 11  8 11  1 27  0.0000000  0  9G10G17G04G25G12G05G09G02G30
 110707965.980 8  86266082.40946  21067013.164                    21067021.180
 125164428.689 6  97530824.563 6  23817998.664                    23818008.078
 118521332.257 7  92354400.90444  22553840.172                    22553849.004
 121152783.386 7  94404811.823 7  23054611.117                    23054621.168
 109814948.776 8  85570154.489 7  20897093.078                    20897100.129
 111037797.969 8  86523031.185 7  21129774.469                    21129782.680
 129464667.663 6 100881732.82444  24636349.484                    24636361.906
 108619843.630 8  84639065.50946  20669674.078                    20669679.816
 116144651.305 7  90502394.36245  22101594.938                    22101602.977
 11  8 11  1 27 30.0000000  0  9G10G17G04G25G12G05G09G02G30
 110742512.430 8  86293001.71946  21073587.609                    21073595.355
 125228427.448 6  97580693.704 6  23830176.297                    23830186.059
 118603285.307 7  92418260.41744  22569435.563                    22569444.324
 121068802.517 7  94339372.207 6  23038629.523                    23038639.887
 109785970.545 8  85547574.042 7  20891578.523                    20891585.766
 110969330.810 8  86469680.191 7  21116745.414                    21116753.387
 129548188.914 6 100946814.10744  24652243.461                    24652255.762
 108634367.393 8  84650382.73846  20672437.930                    20672443.117
 116079510.219 7  90451635.07245  22089198.859                    22089206.871
 11  8 11  1 28  0.0000000  0  9G10G17G04G25G12G05G09G02G30
 110777658.737 8  86320388.46046  21080275.438                    21080283.086
 125292606.892 6  97630703.634 6  23842389.703                    23842398.930
 118685282.006 7  92482153.93044  22585038.938                    22585047.465
 120985158.853 7  94274195.368 6  23022712.438                    23022723.168
 109757539.778 8  85525420.198 7  20886168.539                    20886175.781
 110901318.036 7  86416683.262 7  21103803.359                    21103811.281
 129631676.541 6 101011869.17243  24668130.516                    24668143.258
 108649117.277 8  84661876.16146  20675244.742                    20675250.574
 116014862.214 7  90401260.00745  22076896.695                    22076905.172
 11  8 11  1 28 30.0000000  0  9G10G17G04G25G12G05G09G02G30
 110813403.453 8  86348241.49846  21087077.531                    21087085.309
 125356967.074 6  97680854.402 6  23854636.648                    23854646.332
 118767320.894 7  92546080.31044  22600649.758                    22600658.938
 120901855.052 7  94209283.347 6  23006860.234                    23006871.055
 109729657.941 8  85503694.096 7  20880862.773                    20880870.164
 110833761.530 8  86364041.870 7  21090947.492                    21090955.375
 129715127.627 6 101076895.73944  24684010.148                    24684023.984
 108664092.030 8  84673544.81246  20678094.461                    20678099.781
 115950709.626 7  90351270.97945  22064688.828                    22064697.113
 11  8 11  1 29  0.0000000  0  9G10G17G04G25G12G05G09G02G30
 110849745.347 8  86376559.85946  21093993.313                    21094001.270
 125421508.286 6  97731146.224 6  23866918.227                    23866928.035
 118849400.662 7  92610038.55644  22616269.500                    22616278.195
 120818893.634 7  94144638.106 6  22991073.602                    22991083.848
 109702326.172 8  85482396.614 7  20875661.508                    20875668.789
 110766663.599 8  86311757.804 7  21078179.016                    21078186.820
 129798539.049 6 101141891.40343  24699883.000                    24699897.566
 108679290.410 8  84685387.72046  20680986.211                    20680992.160
 115887054.560 7  90301669.63145  22052576.195                    22052584.242
 11  8 11  1 29 30.0000000  0  9G10G17G04G25G12G05G09G02G30
 110886683.068 8  86405342.49646  21101022.180                    21101030.184
 125486230.784 6  97781579.274 6  23879235.219                    23879244.477
 118931519.865 7  92674027.52544  22631895.930                    22631904.957
 120736277.379 7  94080261.826 6  22975351.648                    22975362.309
 109675546.102 8  85461529.025 7  20870565.625                    20870572.473
 110700026.775 8  86259833.054 7  21065498.445                    21065506.211
 129881907.714 6 101206853.71243  24715748.563                    24715761.230
 108694711.420 8  84697404.09546  20683921.000                    20683926.406
 115823899.454 7  90252457.88245  22040558.023                    22040565.824
 11  8 11  1 30  0.0000000  0  9G10G17G04G25G12G05G09G02G30
 110924214.448 8  86434587.73946  21108163.953                    21108172.313
 125551134.689 6  97832153.697 6  23891585.969                    23891594.977
 119013676.783 7  92738045.88244  22647530.617                    22647538.945
 120654008.453 7  94016156.193 6  22959696.438                    22959706.492
 109649318.118 8  85441091.632 7  20865574.352                    20865581.734
 110633852.811 8  86208268.962 7  21052906.297                    21052914.477
 129965230.331 6 101271780.21943  24731604.008                    24731617.148
 108710353.553 8  84709592.79346  20686897.586                    20686903.023
 115761246.159 7  90203637.14245  22028635.344                    22028643.348
 11  8 11  1 30 30.0000000  0  9G10G17G04G25G12G05G09G02G30
 110962338.564 8  86464294.85046  21115418.945                    21115426.875
 125616220.323 6  97882869.729 6  23903971.969                    23903980.797
 119095869.933 7  92802092.47045  22663171.109                    22663180.055
 120572089.634 7  93952323.369 6  22944108.156                    22944118.461
 109623643.709 8  85421085.605 7  20860688.820                    20860696.043
 110568143.708 8  86157067.103 7  21040402.078                    21040409.723
 130048504.235 6 101336668.69943  24747451.141                    24747464.051
 108726215.535 8  84721952.78046  20689916.133                    20689921.410
 115699096.977 7  90155209.22645  22016808.484                    22016816.801
 11  8 11  1 31  0.0000000  0  9G10G17G04G25G12G05G09G02G30
 111001054.041 8  86494462.74846  21122786.063                    21122794.090
 125681487.545 7  97933727.267 6  23916391.906                    23916400.996
 119178098.538 7  92866166.69344  22678818.609                    22678827.688
 120490523.631 7  93888765.477 6  22928586.523                    22928597.031
 109598524.386 8  85401512.106 7  20855908.766                    20855915.863
 110502902.093 8  86106229.517 7  21027986.805                    21027995.051
 130131726.293 6 101401516.89442  24763288.359                    24763300.445
 108742296.477 8  84734483.38646  20692976.133                    20692981.574
 115637454.286 7  90107175.97445  22005078.266                    22005086.684
 11  8 11  1 31 30.0000000  0  9G10G17G04G25G12G05G09G02G30
 111040359.229 8  86525090.17246  21130265.672                    21130273.621
 125746936.780 6  97984726.641 6  23928845.992                    23928855.313
 119260360.816 7  92930267.17144  22694472.508                    22694481.289
 120409312.992 7  93825484.482 6  22913132.453                    22913142.844
 109573961.254 8  85382372.019 7  20851234.234                    20851241.605
 110438129.819 8  86055757.663 7  21015660.914                    21015669.152
 130214893.559 5 101466322.28442  24779112.672                    24779125.965
 108758595.272 8  84747183.74946  20696077.555                    20696083.066
 115576320.147 7  90059538.99845  21993444.828                    21993453.223
 11  8 11  1 32  0.0000000  0  9G10G17G04G25G12G05G09G02G30
 111080252.401 8  86556175.76146  21137857.078                    21137865.102
 125812568.170 7  98035867.919 6  23941335.805                    23941344.863
 119342655.731 7  92994393.05444  22710133.031                    22710141.766
 120328460.365 7  93762482.472 6  22897746.992                    22897756.898
 109549955.456 8  85363666.212 7  20846666.367                    20846673.641
 110373829.422 8  86005653.488 7  21003425.109                    21003433.156
 130298003.076 6 101531082.76842  24794929.250                    24794941.668
 108775110.768 8  84760052.96446  20699220.594                    20699225.887
 115515696.946 7  90012300.16045  21981908.602                    21981916.738
 11  8 11  1 32 30.0000000  0  9G10G17G04G25G12G05G09G02G30
 111120732.204 8  86587718.45546  21145559.836                    21145568.070
 125878382.018 7  98087151.429 6  23953859.117                    23953868.543
 119424981.650 7  93058543.10644  22725799.047                    22725807.973
 120247968.246 7  93699761.388 7  22882429.570                    22882440.039
 109526508.148 8  85345395.596 7  20842204.094                    20842211.859
 110310002.793 8  85955918.492 7  20991279.375                    20991287.242
 130381051.878 5 101595795.86342  24810732.727                    24810745.836
 108791841.498 8  84773089.89746  20702403.852                    20702409.590
 115455586.526 7  89965460.90145  21970469.813                    21970478.340
 11  8 11  1 33  0.0000000  0  9G10G17G04G25G12G05G09G02G30
 111161797.021 8  86619717.01146  21153374.609                    21153382.484
 125944378.291 6  98138577.053 6  23966417.859                    23966427.465
 119507337.397 7  93122716.40144  22741470.820                    22741479.723
 120167839.264 7  93637323.263 7  22867181.766                    22867191.883
 109503620.658 8  85327561.205 7  20837849.375                    20837856.449
 110246652.090 8  85906554.351 7  20979223.961                    20979231.824
 130464036.782 6 101660459.12942  24826524.922                    24826538.199
 108808786.792 8  84786294.02846  20705629.031                    20705634.715
 115395991.236 7  89919023.04145  21959129.680                    21959137.734
 11  8 11  1 33 30.0000000  0  9G10G17G04G25G12G05G09G02G30
 111203445.205 8  86652170.13246  21161299.734                    21161307.766
 126010557.182 6  98190144.979 6  23979011.672                    23979021.098
 119589721.530 7  93186911.79344  22757147.563                    22757156.813
 120088075.805 7  93575169.952 7  22852002.734                    22852013.410
 109481294.004 8  85310163.826 7  20833600.516                    20833607.773
 110183779.350 8  85857562.646 7  20967259.734                    20967267.547
 130546954.964 6 101725070.50442  24842303.641                    24842317.609
 108825945.244 8  84799664.25146  20708894.016                    20708899.680
 115336913.004 7  89872988.08745  21947887.289                    21947895.316
 11  8 11  1 34  0.0000000  0  9G10G17G04G25G12G05G09G02G30
 111245675.663 8  86685076.98746  21169336.242                    21169344.148
 126076919.342 6  98241855.712 6  23991639.305                    23991648.668
 119672132.940 7  93251128.44344  22772829.930                    22772839.305
 120008681.039 7  93513303.932 7  22836894.891                    22836905.344
 109459529.426 8  85293204.422 7  20829458.641                    20829466.168
 110121386.821 8  85808945.127 7  20955386.742                    20955394.469
 130629804.079 6 101789628.00442  24858069.844                    24858082.855
 108843316.047 8  84813199.93946  20712199.633                    20712204.824
 115278354.455 7  89827358.08745  21936743.297                    21936752.465
 11  8 11  1 34 30.0000000  0  8G10G17G04G25G12G05G02G30
 111288487.428 8  86718436.80746  21177483.008                    21177490.773
 126143465.916 6  98293710.136 6  24004303.125                    24004312.281
 119754571.395 7  93315366.18144  22788517.602                    22788526.730
 119929658.193 7  93451727.713 7  22821857.383                    22821867.941
 109438328.833 8  85276684.485 7  20825424.359                    20825432.047
 110059477.498 8  85760704.131 7  20943605.789                    20943613.691
 108860898.886 8  84826900.85246  20715545.047                    20715550.477
 115220318.398 7  89782135.21745  21925699.945                    21925708.609
 11  8 11  1 35  0.0000000  0  8G10G17G04G25G12G05G02G30
 111331877.789 7  86752247.48146  21185739.609                    21185747.492
 126210195.341 6  98345707.043 6  24017001.688                    24017011.184
 119837034.367 7  93379623.00444  22804209.773                    22804218.629
 119851008.578 7  93390442.308 7  22806891.063                    22806901.035
 109417692.256 8  85260604.046 7  20821497.383                    20821504.656
 109998052.268 8  85712840.362 7  20931916.766                    20931925.102
 108878691.458 8  84840765.19046  20718931.258                    20718936.656
 115162805.674 7  89737320.13445  21914755.609                    21914764.094
 11  8 11  1 35 30.0000000  0  8G10G17G04G25G12G05G02G30
 111375844.406 7  86786507.18745  21194106.398                    21194114.273
 126277107.697 6  98397846.531 6  24029734.117                    24029743.984
 119919520.290 7  93443897.74744  22819906.367                    22819915.367
 119772734.511 7  93329449.547 7  22791995.398                    22792006.656
 109397620.149 8  85244963.446 7  20817678.094                    20817685.297
 109937112.957 8  85665355.226 8  20920320.297                    20920328.340
 108896692.227 8  84854791.76646  20722356.594                    20722362.184
 115105818.020 7  89692914.19945  21903911.250                    21903919.617
 11  8 11  1 36  0.0000000  0  8G10G17G04G25G12G05G02G30
 111420385.662 8  86821214.66146  21202582.195                    21202590.121
 126344203.108 6  98450128.655 6  24042502.531                    24042511.453
 120002028.005 7  93508189.44544  22835607.172                    22835615.953
 119694838.575 7  93268751.447 7  22777172.281                    22777182.867
 109378113.548 8  85229763.500 7  20813965.836                    20813973.465
 109876661.234 8  85618250.023 7  20908816.797                    20908824.586
 108914900.024 8  84868979.66546  20725821.508                    20725827.031
 115049357.639 7  89648919.12045  21893167.148                    21893175.582
 11  8 11  1 36 30.0000000  0  8G10G17G04G25G12G05G02G30
 111465500.189 7  86856368.83846  21211167.016                    21211175.508
 126411481.824 6  98502553.608 6  24055304.617                    24055314.172
 120084556.180 7  93572497.07844  22851312.078                    22851320.871
 119617323.464 7  93208350.065 7  22762421.555                    22762432.805
 109359173.809 8  85215005.264 7  20810361.547                    20810368.887
 109816699.536 8  85571526.671 7  20897406.680                    20897414.504
 108933313.951 8  84883328.18746  20729325.422                    20729331.215
 114993426.634 8  89605336.54845  21882523.492                    21882532.305
 11  8 11  1 37  0.0000000  0  8G10G17G04G25G12G05G02G30
 111511185.838 8  86891968.03746  21219860.938                    21219868.922
 126478944.043 6  98555121.531 6  24068142.859                    24068151.773
 120167103.810 7  93636819.88644  22867020.336                    22867028.988
 119540191.678 7  93148247.381 7  22747744.125                    22747754.547
 109340801.886 8  85200689.488 7  20806865.703                    20806872.648
 109757229.964 8  85525186.793 7  20886089.867                    20886097.711
 108951933.221 8  84897836.71846  20732868.555                    20732874.512
 114938026.909 7  89562167.96445  21871981.438                    21871990.090
 11  8 11  1 37 30.0000000  0  8G10G17G04G25G12G05G02G30
 111557441.492 8  86928011.39646  21228663.047                    21228670.934
 126546590.087 6  98607832.669 6  24081015.063                    24081024.754
 120249669.436 7  93701156.69144  22882732.164                    22882740.871
 119463445.894 7  93088445.491 7  22733139.477                    22733150.711
 109322998.716 8  85186816.874 7  20803477.906                    20803484.922
 109698254.410 8  85479231.844 7  20874867.227                    20874875.109
 108970756.599 8  84912504.29646  20736450.734                    20736455.910
 114883160.694 8  89519415.08945  21861540.750                    21861548.824
 11  8 11  1 38  0.0000000  0  8G10G17G04G25G12G05G02G30
 111604264.899 7  86964497.16145  21237573.461                    21237581.254
 126614419.806 6  98660686.956 6  24093923.016                    24093932.191
 120332251.890 7  93765506.62744  22898446.883                    22898455.910
 119387088.291 7  93028946.056 6  22718609.734                    22718620.336
 109305764.971 8  85173387.980 7  20800198.367                    20800205.488
 109639774.422 8  85433663.067 7  20863739.141                    20863746.578
 108989782.386 8  84927329.59046  20740071.328                    20740076.707
 114828829.566 8  89477079.16645  21851201.836                    21851210.277
 11  8 11  1 38 30.0000000  0  8G10G17G04G25G12G05G02G30
 111651654.684 8  87001424.26645  21246591.797                    21246599.586
 126682433.400 6  98713684.510 6  24106865.539                    24106875.031
 120414850.378 7  93829869.04744  22914165.586                    22914173.688
 119311121.823 7  92969751.413 7  22704153.414                    22704164.102
 109289101.790 8  85160403.681 7  20797027.633                    20797035.035
 109581792.356 8  85388482.269 7  20852705.227                    20852713.059
 109009010.151 8  84942312.26846  20743730.016                    20743735.297
 114775035.856 7  89435162.02045  21840965.648                    21840973.863
 11  8 11  1 39  0.0000000  0  8G10G17G04G25G12G05G02G30
 111699608.425 8  87038790.80945  21255716.578                    21255724.844
 126750630.760 7  98766825.271 6  24119843.445                    24119852.504
 120497463.292 7  93894242.72244  22929885.734                    22929894.113
 119235548.716 7  92910863.286 7  22689772.859                    22689783.348
 109273009.674 8  85147864.363 7  20793965.203                    20793972.867
 109524309.615 8  85343690.558 7  20841766.586                    20841774.145
 109028438.464 8  84957451.21746  20747427.211                    20747432.766
 114721781.317 7  89393664.99745  21830831.297                    21830839.910
 11  8 11  1 39 30.0000000  0  8G10G17G04G25G12G05G02G30
 111748124.130 8  87076595.26645  21264948.453                    21264956.957
 126819011.752 6  98820109.157 6  24132855.156                    24132864.648
 120580089.334 7  93958626.61844  22945609.352                    22945617.590
 119160371.243 7  92852283.447 7  22675466.477                    22675477.203
 109257489.612 8  85135770.806 7  20791011.891                    20791018.934
 109467328.309 8  85299289.577 8  20830923.500                    20830931.184
 109048065.830 8  84972745.26246  20751162.078                    20751167.570
 114669067.576 8  89352589.36545  21820800.234                    21820808.605
 11  8 11  1 40  0.0000000  0  8G10G17G04G25G12G05G02G30
 111797200.579 8  87114836.64446  21274287.578                    21274295.621
 126887576.923 7  98873536.490 6  24145903.078                    24145912.539
 120662727.617 7  94023020.06844  22961334.758                    22961343.293
 119085592.230 8  92794014.107 7  22661236.648                    22661247.414
 109242542.422 8  85124123.648 7  20788167.680                    20788174.762
 109410850.446 8  85255280.891 8  20820175.859                    20820183.520
 109067891.670 8  84988193.96646  20754934.703                    20754940.098
 114616896.815 7  89311936.84945  21810872.125                    21810880.613
 11  8 11  1 40 30.0000000  0  8G10G17G04G25G12G05G02G30
 111846835.295 8  87153513.03445  21283732.852                    21283740.918
 126956326.249 7  98927107.356 6  24158985.500                    24158995.738
 120745376.633 7  94087421.88244  22977062.375                    22977071.270
 119011213.864 7  92736056.958 7  22647082.969                    22647093.797
 109228168.576 8  85112923.244 7  20785432.313                    20785439.746
 109354877.514 8  85211665.658 7  20809524.688                    20809532.582
 109087914.659 8  85003796.29646  20758744.953                    20758750.656
 114565270.681 8  89271708.71345  21801048.359                    21801056.781
 11  8 11  1 41  0.0000000  0  8G10G17G04G25G12G05G02G30
 111897027.022 8  87192623.45445  21293284.461                    21293292.465
 127025259.786 7  98980821.733 6  24172103.195                    24172113.246
 120828035.790 7  94151831.58244  22992791.703                    22992800.258
 118937239.113 8  92678414.319 7  22633006.156                    22633016.676
 109214369.408 8  85102170.653 7  20782806.367                    20782813.805
 109299411.857 8  85168445.702 7  20798970.039                    20798977.430
 109108134.196 8  85019551.78346  20762592.656                    20762598.121
 114514191.495 8  89231906.77945  21791328.125                    21791336.375
 11  8 11  1 41 30.0000000  0  8G10G17G04G25G12G05G02G30
 111947772.958 8  87232165.73345  21302940.820                    21302948.895
 127094377.362 7  99034679.553 6  24185256.078                    24185265.848
 120910703.278 7  94216247.78744  23008522.961                    23008532.172
 118863669.885 7  92621087.683 7  22619006.438                    22619016.621
 109201145.285 8  85091866.135 7  20780289.906                    20780296.941
 109244454.741 8  85125622.009 7  20788512.188                    20788519.617
 109128548.485 8  85035459.01846  20766477.570                    20766482.699
 114463660.535 8  89192532.01845  21781712.297                    21781720.719
 11  8 11  1 42  0.0000000  0  8G10G17G04G25G12G05G02G30
 111999071.452 8  87272138.58345  21312702.117                    21312710.789
 127163679.129 6  99088680.896 6  24198443.852                    24198453.746
 120993378.257 7  94280669.83044  23024255.422                    23024264.777
 118790508.874 7  92564079.149 7  22605083.805                    22605094.574
 109188497.003 8  85082010.329 7  20777883.031                    20777890.484
 109190008.177 8  85083196.150 8  20778150.711                    20778158.531
 109149156.861 8  85051517.48646  20770399.000                    20770404.078
 114413679.817 8  89153586.03345  21772201.484                    21772209.875
 11  8 11  1 42 30.0000000  0  8G10G17G04G25G12G05G02G30
 112050920.374 7  87312540.34045  21322569.461                    21322576.988
 127233165.026 6  99142825.753 6  24211666.453                    24211676.191
 121076059.319 7  94345096.57944  23039989.086                    23039997.953
 118717758.260 7  92507390.403 7  22591239.750                    22591250.066
 109176425.249 8  85072603.763 7  20775585.961                    20775593.387
 109136073.700 8  85041169.313 7  20767887.438                    20767895.383
 109169957.666 8  85067725.89846  20774357.313                    20774362.496
 114364250.885 7  89115070.00545  21762795.148                    21762803.770
 11  8 11  1 43  0.0000000  0  8G10G17G04G25G12G05G02G30
 112103318.254 7  87353369.85945  21332539.797                    21332548.199
 127302835.373 6  99197114.338 6  24224924.586                    24224933.895
 121158745.811 7  94409527.59644  23055723.617                    23055732.809
 118645420.684 7  92451023.494 7  22577474.508                    22577485.016
 109164930.854 8  85063647.096 7  20773398.609                    20773406.270
 109082653.382 8  84999543.120 7  20757721.406                    20757729.660
 109190950.270 8  85084083.76346  20778352.188                    20778357.727
 114315375.812 8  89076985.56245  21753494.602                    21753503.457
 11  8 11  1 43 30.0000000  0  8G10G17G04G25G12G05G02G30
 112156262.500 7  87394625.12545  21342615.273                    21342622.797
 127372690.015 6  99251546.476 6  24238217.055                    24238226.777
 121241436.205 7  94473961.64044  23071459.281                    23071468.824
 118573498.508 7  92394980.284 7  22563788.172                    22563798.727
 109154014.096 8  85055140.548 7  20771321.289                    20771328.703
 109029748.585 8  84958318.633 8  20747654.625                    20747662.543
 109212133.410 8  85100590.09646  20782383.109                    20782388.770
 114267056.204 8  89039333.94745  21744299.586                    21744308.238
 11  8 11  1 44  0.0000000  0  9G10G17G04G25G12G29G05G02G30
 112209751.212 7  87436304.63845  21352793.594                    21352801.617
 127442729.009 6  99306122.304 6  24251545.656                    24251555.402
 121324129.669 7  94538398.09044  23087195.195                    23087204.531
 118501994.251 7  92339262.731 7  22550181.063                    22550191.762
 109143675.579 8  85047084.569 7  20769353.641                    20769360.848
 129557129.27416 100953653.02116  24653910.000                    24653920.211
 108977361.166 8  84917497.292 8  20737685.383                    20737693.148
 109233506.332 8  85117244.32646  20786450.242                    20786455.434
 114219293.879 8  89002116.56945  21735210.922                    21735218.945
 11  8 11  1 44 30.0000000  0  9G10G17G04G25G12G29G05G02G30
 112263782.789 7  87478407.17145  21363075.820                    21363083.387
 127512952.424 6  99360841.821 6  24264908.141                    24264917.785
 121406825.298 7  94602836.20544  23102932.063                    23102940.797
 118430910.375 7  92283872.750 7  22536654.109                    22536664.598
 109133916.434 8  85039480.050 7  20767496.578                    20767503.902
 129477287.212 6 100891438.461 6  24638717.039                    24638726.488
 108925493.073 8  84877080.621 8  20727815.039                    20727822.910
 109255068.035 8  85134045.65346  20790553.250                    20790558.645
 114172090.639 8  88965334.83445  21726228.445                    21726236.508
 11  8 11  1 45  0.0000000  0  9G10G17G04G25G12G29G05G02G30
 112318354.783 7  87520930.80045  21373459.883                    21373468.254
 127583360.076 6  99415704.904 6  24278306.836                    24278316.309
 121489521.782 6  94667274.99944  23118668.086                    23118677.527
 118360249.085 7  92228812.049 7  22523208.109                    22523218.512
 109124737.078 8  85032327.310 7  20765750.078                    20765757.313
 129397371.828 6 100829166.775 6  24623508.516                    24623519.070
 108874145.495 8  84837069.544 8  20718044.023                    20718051.867
 109276816.907 8  85150992.82946  20794691.938                    20794697.664
 114125447.822 8  88928989.80345  21717352.438                    21717360.887
 11  8 11  1 45 30.0000000  0  9G10G17G04G25G12G29G05G02G30
 112373465.181 7  87563873.96045  21383947.195                    21383955.563
 127653952.249 6  99470711.771 6  24291740.172                    24291750.090
 121572218.047 7  94731713.61544  23134404.938                    23134414.250
 118290012.804 7  92174082.536 7  22509842.641                    22509853.199
 109116137.372 8  85025626.249 7  20764113.234                    20764120.391
 129317383.619 6 100766838.355 6  24608287.383                    24608298.324
 108823320.309 8  84797465.532 7  20708372.625                    20708380.328
 109298752.127 8  85168085.20746  20798866.156                    20798871.516
 114079367.331 8  88893082.93845  21708583.461                    21708592.195
 11  8 11  1 46  0.0000000  0  9G10G17G04G25G12G29G05G02G30
 112429111.587 7  87607234.79945  21394536.555                    21394544.129
 127724728.571 6  99525862.126 6  24305207.844                    24305216.926
 121654912.853 7  94796151.07444  23150141.172                    23150150.359
 118220203.774 7  92119685.936 7  22496558.039                    22496569.086
 109108117.968 8  85019377.365 7  20762587.273                    20762594.898
 129237323.276 6 100704453.709 6  24593052.461                    24593062.891
 108773019.181 8  84758269.880 7  20698800.422                    20698807.742
 109320872.485 8  85185321.85746  20803075.133                    20803080.680
 114033850.607 8  88857615.38345  21699921.695                    21699930.660
 11  8 11  1 46 30.0000000  0  9G10G17G04G25G12G29G05G02G30
 112485292.122 7  87651011.82945  21405227.359                    21405235.395
 127795689.443 6  99581156.310 6  24318711.414                    24318720.914
 121737605.549 7  94860586.90744  23165877.453                    23165886.246
 118150824.590 7  92065624.275 7  22483355.609                    22483366.605
 109100679.994 8  85013581.551 7  20761172.031                    20761179.539
 129157191.075 7 100642013.090 5  24577804.484                    24577813.938
 108723243.457 8  84719483.633 8  20689328.484                    20689336.043
 109343177.254 8  85202702.19546  20807319.695                    20807325.363
 113988899.427 8  88822588.50145  21691368.047                    21691376.590
 11  8 11  1 47  0.0000000  0  9G10G17G04G25G12G29G05G02G30
 112542004.546 7  87695203.33845  21416019.164                    21416027.156
 127866834.124 6  99636593.693 6  24332249.656                    24332258.887
 121820294.878 7  94925020.12644  23181612.414                    23181622.016
 118081877.423 7  92011899.252 7  22470235.609                    22470245.859
 109093823.916 8  85008239.161 7  20759867.305                    20759874.559
 129076987.979 6 100579517.204 5  24562542.359                    24562552.074
 108673994.760 8  84681108.057 8  20679956.508                    20679964.188
 109365664.978 8  85220225.10146  20811599.320                    20811604.496
 113944515.292 8  88788003.47145  21682922.258                    21682930.934
 11  8 11  1 47 30.0000000  0  9G10G17G04G25G12G29G05G02G30
 112599246.842 7  87739807.72945  21426911.977                    21426920.340
 127938163.010 6  99692174.612 5  24345823.234                    24345832.391
 121902979.634 7  94989449.78244  23197347.633                    23197355.945
 118013364.633 7  91958512.691 7  22457197.547                    22457208.551
 109087549.822 7  85003350.259 7  20758673.547                    20758680.715
 128996714.262 6 100516966.303 5  24547265.727                    24547276.242
 108625274.518 8  84643144.261 8  20670685.516                    20670693.008
 109388334.702 8  85237889.83146  20815912.883                    20815918.555
 113900699.792 8  88753861.52445  21674584.469                    21674592.910
 11  8 11  1 48  0.0000000  0  9G10G17G04G25G12G29G05G02G30
 112657016.608 7  87784823.14945  21437905.500                    21437913.590
 128009676.276 6  99747899.198 5  24359431.648                    24359441.500
 121985659.287 7  95053875.48344  23213080.969                    23213089.535
 117945288.674 7  91905466.522 7  22444243.539                    22444253.684
 109081857.949 8  84998915.035 7  20757590.125                    20757597.406
 128916370.332 6 100454360.727 5  24531977.633                    24531987.152
 108577084.811 8  84605593.880 8  20661515.383                    20661522.656
 109411185.799 8  85255695.88946  20820261.398                    20820267.074
 113857454.533 8  88720163.93145  21666354.953                    21666363.508
 11  8 11  1 48 30.0000000  0  9G10G17G04G25G12G29G05G02G30
 112715311.983 7  87830248.12645  21448998.445                    21449006.750
 128081373.465 6  99803767.081 5  24373074.695                    24373085.211
 122068332.298 7  95118295.97844  23228812.578                    23228821.184
 117877651.744 7  91852762.448 7  22431372.648                    22431383.352
 109076748.740 7  84994933.832 7  20756617.578                    20756625.418
 128835957.304 6 100391701.272 5  24516675.258                    24516684.836
 108529426.554 8  84568457.609 7  20652446.117                    20652453.629
 109434216.863 8  85273642.17946  20824643.938                    20824649.703
 113814781.000 8  88686911.83745  21658234.406                    21658243.105
 11  8 11  1 49  0.0000000  0  9G10G17G04G25G12G29G05G02G30
 112774130.286 7  87876080.57445  21460191.688                    21460198.926
 128153254.412 6  99859778.199 5  24386752.539                    24386762.938
 122150998.006 7  95182710.78844  23244543.336                    23244551.855
 117810456.004 7  91800402.161 7  22418585.781                    22418596.719
 109072222.958 8  84991407.248 7  20755756.938                    20755763.719
 128755475.305 6 100328988.029 5  24501359.461                    24501370.477
 108482301.455 8  84531736.788 8  20643478.344                    20643485.641
 109457426.497 8  85291727.61546  20829060.719                    20829066.133
 113772680.478 8  88654106.24745  21650223.180                    21650231.461
 11  8 11  1 49 30.0000000  0  9G10G17G04G25G12G29G05G02G30
 112833469.109 7  87922318.61945  21471483.195                    21471491.129
 128225319.218 6  99915932.548 5  24400466.750                    24400476.996
 122233654.889 7  95247118.71444  23260272.727                    23260281.230
 117743703.555 7  91748387.296 7  22405882.773                    22405893.961
 109068280.185 8  84988334.965 7  20755006.289                    20755013.480
 128674924.802 6 100266221.463 5  24486031.109                    24486041.895
 108435710.708 8  84495432.331 8  20634612.219                    20634620.199
 109480813.695 8  85309951.41146  20833511.195                    20833516.797
 113731154.198 8  88621748.12145  21642321.117                    21642329.320
 11  8 11  1 50  0.0000000  0  9G10G17G04G25G12G29G05G02G30
 112893326.901 7  87968961.06045  21482873.461                    21482881.668
 128297567.964 6  99972230.278 5  24414215.727                    24414225.496
 122316302.544 7  95311519.46244  23275999.367                    23276008.605
 117677397.082 7  91696719.940 7  22393265.594                    22393276.141
 109064921.030 7  84985717.435 7  20754367.461                    20754374.438
 128594306.861 6 100203402.355 5  24470690.031                    24470700.281
 108389656.132 8  84459545.682 8  20625848.570                    20625855.895
 109504378.127 8  85328313.32046  20837994.820                    20838000.602
 113690204.243 8  88589839.07345  21634528.414                    21634536.980
 11  8 11  1 50 30.0000000  0  9G10G17G04G25G12G29G05G02G30
 112953700.862 7  88016005.71645  21494362.469                    21494370.348
 128370000.236 6 100028671.031 6  24427998.820                    24428008.914
 122398939.783 7  95375912.08544  23291724.703                    23291734.574
 117611538.634 7  91645401.684 7  22380732.602                    22380742.770
 109062145.801 7  84983554.928 7  20753839.234                    20753846.316
 128513621.793 6 100140530.877 6  24455336.898                    24455346.770
 108344138.760 8  84424077.613 8  20617186.750                    20617194.328
 109528118.187 8  85346812.07346  20842513.000                    20842518.215
 113649831.647 8  88558379.92545  21626845.938                    21626854.121
 11  8 11  1 51  0.0000000  0  9G10G17G04G25G12G29G05G02G30
 113014588.524 7  88063450.65945  21505948.766                    21505957.020
 128442616.226 6 100085254.887 6  24441817.891                    24441827.781
 122481565.556 6  95440295.78044  23307448.055                    23307457.137
 117546130.400 7  91594434.237 7  22368285.805                    22368296.496
 109059954.949 8  84981847.772 7  20753422.117                    20753429.555
 128432870.069 6 100077607.474 6  24439969.914                    24439980.301
 108299159.803 8  84389029.097 8  20608627.828                    20608635.445
 109552032.826 8  85365446.86146  20847063.430                    20847069.074
 113610037.803 8  88527371.73545  21619273.047                    21619281.648
 11  8 11  1 51 30.0000000  0  9G10G17G04G25G12G29G05G02G30
 113075987.959 7  88111294.38445  21517633.258                    21517641.445
 128515415.744 6 100141981.805 6  24455671.102                    24455680.336
 122564179.041 6  95504669.89744  23323168.883                    23323178.285
 117481174.820 7  91543819.512 7  22355925.578                    22355936.000
 109058348.500 8  84980595.994 7  20753116.461                    20753123.910
 128352052.491 6 100014632.783 6  24424591.688                    24424601.219
 108254721.127 8  84354401.581 8  20600171.148                    20600179.051
 109576121.281 8  85384217.09146  20851647.422                    20851652.957
 113570824.280 7  88496815.76245  21611810.961                    21611819.504
 11  8 11  1 52  0.0000000  0  9G10G17G04G25G12G29G05G02G30
 113137896.621 7  88159534.92345  21529413.453                    21529421.680
 128588398.431 6 100198851.388 6  24469560.055                    24469568.695
 122646779.229 6  95569033.64044  23338887.391                    23338896.766
 117416673.871 7  91493559.044 7  22343651.094                    22343661.969
 109057326.460 8  84979799.599 7  20752922.234                    20752929.809
 128271169.775 6  99951607.317 6  24409199.961                    24409209.355
 108210823.910 8  84320195.974 8  20591817.914                    20591825.309
 109600382.339 8  85403121.81646  20856264.328                    20856269.809
 113532192.209 8  88466712.87145  21604459.594                    21604467.805
 11  8 11  1 52 30.0000000  0  9G10G17G04G25G12G29G05G02G30
 113200311.965 7  88208170.27045  21541291.070                    21541299.328
 128661564.230 6 100255863.724 6  24483481.656                    24483492.066
 122729364.936 6  95633386.11344  23354602.750                    23354612.199
 117352629.620 7  91443654.449 7  22331464.102                    22331474.539
 109056888.963 8  84979458.691 7  20752838.813                    20752846.074
 128190222.393 6  99888531.503 6  24393794.953                    24393806.000
 108167469.191 8  84286413.101 8  20583567.891                    20583575.609
 109624814.744 8  85422160.05946  20860913.695                    20860918.941
 113494142.738 8  88437063.95745  21597218.898                    21597227.336
 11  8 11  1 53  0.0000000  0  9G10G17G04G25G12G29G05G02G30
 113263232.174 7  88257199.01545  21553263.906                    21553272.027
 128734913.316 6 100313018.865 6  24497440.203                    24497449.359
 122811935.817 7  95697727.01444  23370315.234                    23370324.969
 117289044.761 7  91394107.813 7  22319364.180                    22319374.797
 109057036.825 8  84979573.892 7  20752866.828                    20752873.949
 128109211.150 7  99825405.854 6  24378379.656                    24378390.316
 108124658.787 8  84253054.374 8  20575420.828                    20575428.664
 109649418.154 8  85441331.54646  20865595.773                    20865601.145
 113456677.664 8  88407870.40545  21590089.836                    21590098.398
 11  8 11  1 53 30.0000000  0  9G10G17G04G25G12G29G05G02G30
 113326655.066 7  88306619.46245  21565333.648                    21565341.105
 128808445.810 6 100370316.905 6  24511432.977                    24511442.230
 122894491.161 6  95762055.83944  23386025.094                    23386034.891
 117225921.847 7  91344921.137 7  22307352.539                    22307362.551
 109057770.424 8  84980145.518 7  20753006.203                    20753013.551
 128028136.995 7  99762231.220 6  24362952.273                    24362961.676
 108082394.155 8  84220120.932 8  20567378.633                    20567385.887
 109674191.862 8  85460635.73446  20870309.961                    20870315.250
 113419798.640 7  88379133.50945  21583072.039                    21583080.152
 11  8 11  1 54  0.0000000  0  8G10G04G25G12G29G05G02G30
 113390577.953 8  88356429.52345  21577496.977                    21577505.430
 122977029.600 6  95826371.45244  23401731.883                    23401741.309
 117163262.443 7  91296095.647 7  22295428.547                    22295439.102
 109059088.888 8  84981172.881 7  20753257.375                    20753264.734
 127947000.647 7  99699008.094 6  24347512.391                    24347522.434
 108040676.205 8  84187613.467 7  20559439.727                    20559447.414
 109699134.195 8  85480071.31746  20875056.070                    20875061.922
 113383506.411 8  88350853.85646  21576165.578                    21576173.773
 11  8 11  1 54 30.0000000  0  8G10G04G25G12G29G05G02G30
 113454998.126 7  88406627.06445  21589756.109                    21589764.051
 123059549.990 6  95890673.01344  23417435.086                    23417444.652
 117101068.437 7  91247632.802 7  22283593.805                    22283604.082
 109060992.436 8  84982656.161 7  20753619.594                    20753626.949
 127865802.386 7  99635736.752 6  24332060.859                    24332070.500
 107999505.684 8  84155532.571 8  20551605.367                    20551612.531
 109724243.858 8  85499637.28846  20879834.148                    20879839.820
 113347801.800 7  88323032.08845  21569371.125                    21569379.402
 11  8 11  1 55  0.0000000  0  8G10G04G25G12G29G05G02G30
 113519913.092 7  88457210.17345  21602109.242                    21602116.680
 123142051.469 6  95954959.86243  23433134.492                    23433144.207
 117039342.007 8  91199534.302 7  22271847.375                    22271857.887
 109063480.854 8  84984595.184 7  20754093.195                    20754100.652
 127784542.789 7  99572417.601 6  24316597.945                    24316607.238
 107958883.914 8  84123879.272 8  20543874.977                    20543882.684
 109749519.923 8  85519332.92846  20884644.148                    20884649.781
 113312686.119 8  88295669.22745  21562688.969                    21562697.258
 11  8 11  1 55 30.0000000  0  8G10G04G25G12G29G05G02G30
 113585320.894 7  88508177.32345  21614555.586                    21614563.945
 123224533.659 6  96019231.64644  23448830.477                    23448840.195
 116978085.720 7  91151802.145 7  22260190.797                    22260201.340
 109066555.114 8  84986990.698 7  20754678.086                    20754685.969
 127703222.853 6  99509051.479 6  24301123.234                    24301132.816
 107918812.484 8  84092654.815 8  20536249.703                    20536257.063
 109774962.063 8  85539157.97846  20889485.438                    20889491.258
 113278160.960 7  88268766.51745  21556118.688                    21556127.230
 11  8 11  1 56  0.0000000  0  8G10G04G25G12G29G05G02G30
 113651218.748 7  88559526.31845  21627095.938                    21627103.633
 123306995.204 6  96083487.38344  23464522.313                    23464531.605
 116917301.188 7  91104437.596 7  22248623.844                    22248634.137
 109070214.181 8  84989841.907 7  20755374.180                    20755381.715
 127621842.792 6  99445638.433 6  24285636.930                    24285646.605
 107879292.185 8  84061859.812 7  20528728.813                    20528736.570
 109800568.516 8  85559111.06346  20894358.227                    20894363.871
 113244226.986 7  88242324.46645  21549661.719                    21549669.895
 11  8 11  1 56 30.0000000  0  8G10G04G25G12G29G05G02G30
 113717604.163 7  88611255.23545  21639728.641                    21639736.262
 123389435.290 6  96147726.37143  23480210.273                    23480219.449
 116856990.744 8  91057442.470 7  22237147.195                    22237158.098
 109074458.386 8  84993149.066 7  20756182.359                    20756189.566
 127540403.588 6  99382179.426 6  24270139.570                    24270149.551
 107840324.426 8  84031495.353 8  20521313.828                    20521321.586
 109826338.492 8  85579191.56346  20899262.344                    20899267.785
 113210885.609 7  88216344.17445  21543316.586                    21543325.031
 11  8 11  1 57  0.0000000  0  8G10G04G25G12G29G05G02G30
 113784475.001 7  88663362.39145  21652453.133                    21652461.645
 123471853.444 6  96211948.31044  23495894.000                    23495902.910
 116797156.585 7  91010818.490 7  22225761.297                    22225771.215
 109079287.821 8  84996912.246 7  20757100.992                    20757108.348
 127458906.277 6  99318675.098 6  24254630.375                    24254641.422
 107801910.235 8  84001562.248 8  20514003.844                    20514011.535
 109852271.349 7  85599398.97946  20904197.508                    20904202.727
 113178138.005 7  88190826.55745  21537085.391                    21537093.465
 11  8 11  1 57 30.0000000  0  8G10G04G25G12G29G05G02G30
 113851828.824 7  88715845.90445  21665270.281                    21665278.160
 123554248.876 7  96276152.53644  23511573.086                    23511582.461
 116737800.940 8  90964567.376 7  22214466.492                    22214476.852
 109084702.821 8  85001131.709 7  20758131.688                    20758138.914
 127377351.704 6  99255126.167 6  24239111.352                    24239121.152
 107764050.862 8  83972061.463 8  20506799.648                    20506806.957
 109878366.377 8  85619732.76546  20909163.063                    20909168.375
 113145985.402 8  88165772.58545  21530966.719                    21530975.414
 11  8 11  1 58  0.0000000  0  8G10G04G25G12G29G05G02G30
 113919661.873 7  88768702.82345  21678178.641                    21678186.652
 123636619.844 7  96340337.69143  23527247.719                    23527256.781
 116678924.903 8  90918689.979 7  22203262.398                    22203272.633
 109090701.840 8  85005806.256 7  20759273.047                    20759280.461
 127295739.876 6  99191532.587 6  24223580.797                    24223590.730
 107726746.606 8  83942993.233 8  20499700.820                    20499708.105
 109904621.219 8  85640191.08446  20914158.859                    20914164.273
 113114427.889 8  88141182.30445  21524961.797                    21524969.742
 11  8 11  1 58 30.0000000  0  8G10G04G25G12G29G05G02G30
 113987972.977 7  88821932.26645  21691177.898                    21691185.227
 123718966.395 6  96404503.81743  23542918.617                    23542926.730
 116620531.554 8  90873188.711 7  22192150.570                    22192161.148
 109097285.955 8  85010936.714 7  20760526.031                    20760533.559
 127214072.422 6  99127895.684 5  24208040.156                    24208050.117
 107689999.291 8  83914358.994 8  20492708.063                    20492715.457
 109931036.361 8  85660774.31446  20919185.648                    20919191.230
 113083467.594 7  88117057.40945  21519070.000                    21519078.652
 11  8 11  1 59  0.0000000  0  8G10G04G25G12G29G05G02G30
 114056759.145 7  88875531.87845  21704267.031                    21704274.863
 123801287.472 7  96468650.08143  23558583.398                    23558592.355
 116562622.395 7  90828064.722 7  22181130.742                    22181141.223
 109104454.672 8  85016522.718 7  20761890.070                    20761897.566
 127132349.336 6  99064215.395 6  24192488.469                    24192498.695
 107653809.459 8  83886159.151 8  20485821.406                    20485828.805
 109957610.141 8  85681481.14646  20924242.227                    20924248.047
 113053104.956 7  88093398.21045  21513292.227                    21513300.820
 11  8 11  1 59 30.0000000  0  8G10G04G25G12G29G05G02G30
 114126017.582 7  88929499.51045  21717446.406                    21717454.457
 123883582.156 6  96532775.80443  23574243.938                    23574252.555
 116505199.420 7  90783319.579 7  22170203.211                    22170214.207
 109112207.597 8  85022563.942 7  20763365.695                    20763373.246
 127050571.811 6  99000492.703 6  24176926.523                    24176936.730
 107618178.146 8  83858394.522 8  20479040.648                    20479048.133
 109984341.660 8  85702310.90146  20929329.008                    20929334.789
 113023341.032 7  88070205.54145  21507628.203                    21507636.445
 11  8 11  2  0  0.0000000  0  8G10G04G25G12G29G05G02G30
 114195746.208 7  88983833.51445  21730715.414                    21730723.555
 123965850.039 6  96596880.65343  23589898.828                    23589907.434
 116448264.707 8  90738954.908 7  22159368.922                    22159379.535
 109120544.861 8  85029060.493 7  20764952.172                    20764959.754
 126968740.566 7  98936728.203 6  24161355.164                    24161364.957
 107583106.570 8  83831066.058 8  20472366.727                    20472374.156
 110011230.344 8  85723263.11546  20934446.016                    20934451.668
 112994176.752 7  88047480.12845  21502078.430                    21502086.711
 11  8 11  2  0 30.0000000  0  8G10G04G25G12G29G05G02G30
 114265942.843 7  89038532.19645  21744074.078                    21744081.508
 124048090.307 7  96660963.97243  23605548.766                    23605557.465
 116391820.662 8  90694972.572 7  22148627.914                    22148638.652
 109129466.176 8  85036012.156 7  20766649.797                    20766657.145
 126886856.703 6  98872922.655 6  24145772.602                    24145782.820
 107548596.090 8  83804174.802 8  20465799.609                    20465807.027
 110038275.515 8  85744337.25846  20939592.258                    20939598.230
 112965613.518 8  88025223.05945  21496643.227                    21496651.512
 11  8 11  2  1  0.0000000  0  8G10G04G25G12G29G05G02G30
 114336604.170 7  89093592.98045  21757519.789                    21757527.902
 124130302.013 7  96725025.02443  23621192.734                    23621201.734
 116335868.713 8  90651373.680 7  22137980.672                    22137991.344
 109138971.020 8  85043418.521 7  20768458.688                    20768465.961
 126804920.594 6  98809076.375 6  24130181.078                    24130191.242
 107514646.922 8  83777720.943 8  20459339.305                    20459346.813
 110065475.665 8  85765532.16946  20944768.820                    20944774.473
 112937651.754 8  88003434.67945  21491322.438                    21491330.305
 11  8 11  2  1 30.0000000  0  8G10G04G25G12G29G05G02G30
 114407727.681 7  89149013.90145  21771054.172                    21771062.012
 124212484.280 7  96789063.15743  23636831.477                    23636840.574
 116280410.996 8  90608159.898 7  22127427.609                    22127438.203
 109149059.442 8  85051279.628 7  20770378.281                    20770385.926
 126722933.152 6  98745190.096 6  24114578.883                    24114589.402
 107481260.226 8  83751705.366 8  20452986.023                    20452993.199
 110092829.987 8  85786847.20946  20949974.016                    20949979.617
 112910292.411 7  87982115.70945  21486115.742                    21486124.012
 11  8 11  2  2  0.0000000  0  8G10G04G25G12G29G05G02G30
 114479310.406 7  89204792.64045  21784676.227                    21784684.102
 124294636.378 7  96853077.72543  23652464.422                    23652473.793
 116225449.139 7  90565332.493 7  22116968.398                    22116978.742
 109159730.659 8  85059594.858 7  20772409.086                    20772416.715
 126640895.057 6  98681264.341 6  24098967.914                    24098977.770
 107448436.550 8  83726128.505 8  20446740.016                    20446747.047
 110120337.280 8  85808281.44046  20955208.609                    20955213.832
 112883536.091 7  87961266.63746  21481024.203                    21481032.707
 11  8 11  2  2 30.0000000  0  8G10G04G25G12G29G05G02G30
 114551350.150 7  89260927.50445  21798385.273                    21798392.555
 124376757.633 7  96917068.31143  23668091.758                    23668100.691
 116170984.915 8  90522892.862 7  22106604.586                    22106615.059
 109170984.348 8  85068363.972 7  20774550.344                    20774557.770
 126558807.034 6  98617299.651 6  24083347.664                    24083357.184
 107416176.491 8  83700990.822 8  20440601.258                    20440608.305
 110147996.462 8  85829834.03946  20960471.797                    20960477.039
 112857383.531 7  87940888.03446  21476047.648                    21476056.082
 11  8 11  2  3  0.0000000  0  8G10G04G25G12G29G05G02G30
 114623844.603 7  89317416.68545  21812179.992                    21812188.223
 124458847.143 7  96981034.15643  23683712.859                    23683721.734
 116117020.550 8  90480842.724 7  22096334.891                    22096345.676
 109182820.006 8  85077586.558 7  20776802.875                    20776810.000
 126476670.293 6  98553296.991 6  24067716.867                    24067726.293
 107384481.241 8  83676293.250 8  20434569.570                    20434576.984
 110175806.866 8  85851504.46146  20965763.844                    20965769.059
 112831835.799 8  87920980.72945  21471185.805                    21471194.422
 11  8 11  2  3 30.0000000  0  8G10G04G25G12G29G05G02G30
 114696791.751 7  89374258.61945  21826061.508                    21826069.539
 124540905.257 7  97044975.53143  23699328.484                    23699337.273
 116063558.628 8  90439184.100 7  22086161.313                    22086172.129
 109195238.502 8  85087263.310 7  20779166.180                    20779173.875
 126394486.357 6  98489257.575 6  24052077.781                    24052087.527
 107353352.299 8  83652036.951 8  20428646.164                    20428653.176
 110203768.994 8  85873293.12046  20971085.055                    20971090.250
 112806894.372 8  87901545.87045  21466439.695                    21466448.219
 11  8 11  2  4  0.0000000  0  8G10G04G25G12G29G05G02G30
 114770187.934 7  89431450.46245  21840028.297                    21840036.410
 124622930.324 7  97108891.13843  23714937.023                    23714946.145
 116010600.209 8  90397917.797 7  22076084.180                    22076094.633
 109208238.268 8  85097392.992 7  20781639.633                    20781647.059
 126312255.336 6  98425181.473 6  24036428.711                    24036439.043
 107322789.815 8  83628222.039 8  20422829.844                    20422837.246
 110231880.535 8  85895198.19646  20976434.563                    20976439.855
 112782559.221 8  87882583.42445  21461809.000                    21461817.695
 11  8 11  2  4 30.0000000  0  8G10G04G25G12G29G05G02G30
 114844030.317 8  89488989.98445  21854079.914                    21854087.723
 124704921.198 6  97172780.14343  23730539.383                    23730548.398
 115958146.788 8  90357045.002 7  22066102.688                    22066113.008
 109221818.498 8  85107974.997 7  20784224.180                    20784231.477
 126229977.748 6  98361069.108 6  24020772.039                    24020782.727
 107292794.310 8  83604848.931 8  20417122.344                    20417129.387
 110260140.073 8  85917218.59846  20981811.953                    20981817.684
 112758830.716 8  87864093.69546  21457293.461                    21457301.629
 11  8 11  2  5  0.0000000  0  8G10G04G25G12G29G05G02G30
 114918316.509 8  89546875.32945  21868215.852                    21868224.211
 124786877.925 6  97236642.48743  23746135.188                    23746144.645
 115906200.620 8  90316567.473 7  22056217.758                    22056228.105
 109235979.220 8  85119009.316 7  20786918.563                    20786926.391
 126147654.775 6  98296921.338 6  24005106.836                    24005116.355
 107263366.699 8  83581918.340 8  20411522.008                    20411529.457
 110288547.477 8  85939354.22746  20987217.820                    20987223.090
 112735709.905 8  87846077.50345  21452893.883                    21452902.379
 11  8 11  2  5 30.0000000  0  8G10G04G25G12G29G05G02G30
 114993044.015 7  89605104.54645  21882436.031                    21882443.949
 124868799.876 7  97300477.74644  23761724.766                    23761733.395
 115854763.799 8  90276486.841 7  22046429.406                    22046439.777
 109250720.301 8  85130495.861 7  20789723.836                    20789731.359
 126065287.894 6  98232739.364 6  23989432.930                    23989442.684
 107234507.949 8  83559431.027 8  20406030.391                    20406037.664
 110317102.414 8  85961604.80246  20992651.828                    20992657.246
 112713197.743 8  87828535.56545  21448609.711                    21448618.512
 11  8 11  2  6  0.0000000  0  8G10G04G25G12G29G05G02G30
 115068210.183 7  89663675.57445  21896740.000                    21896748.063
 124950686.224 7  97364285.27943  23777306.609                    23777316.250
 115803837.820 8  90236804.266 7  22036738.219                    22036748.961
 109266040.901 8  85142433.993 7  20792639.094                    20792646.824
 125982877.303 6  98168523.347 6  23973750.227                    23973760.738
 107206218.528 8  83537387.337 8  20400647.266                    20400654.668
 110345803.441 8  85983969.21646  20998113.508                    20998119.070
 112691294.621 8  87811468.20546  21444442.016                    21444450.367
 11  8 11  2  6 30.0000000  0  8G10G04G25G12G29G05G02G30
 115143812.001 8  89722586.08545  21911126.570                    21911134.984
 125032536.067 7  97428064.37744  23792882.383                    23792891.578
 115753424.328 8  90197521.030 7  22027145.414                    22027155.629
 109281940.182 8  85154823.037 7  20795664.898                    20795672.152
 125900424.111 6  98104274.137 6  23958060.516                    23958070.129
 107178498.862 8  83515787.623 8  20395372.234                    20395379.676
 110374649.473 8  86006446.63546  21003602.625                    21003608.094
 112670001.009 8  87794875.78646  21440389.938                    21440398.348
 11  8 11  2  7  0.0000000  0  8G10G04G25G12G29G05G02G30
 115219847.032 7  89781834.15245  21925595.641                    21925603.605
 125114348.972 7  97491814.66743  23808450.625                    23808460.633
 115703525.317 8  90158638.685 7  22017649.570                    22017660.102
 109298417.947 8  85167662.847 7  20798800.430                    20798807.762
 125817929.471 6  98039992.623 6  23942362.258                    23942371.652
 107151349.725 8  83494632.475 8  20390206.133                    20390213.152
 110403640.105 8  86029036.72146  21009119.266                    21009124.695
 112649317.713 8  87778758.93846  21436454.180                    21436462.188
 11  8 11  2  7 30.0000000  0  8G10G04G25G12G29G05G02G30
 115296312.434 7  89841417.56745  21940146.805                    21940154.742
 125196123.987 7  97555535.45243  23824012.641                    23824021.535
 115654141.959 8  90120158.149 7  22008252.211                    22008262.770
 109315472.977 8  85180952.477 7  20802046.016                    20802053.367
 125735394.097 6  97975679.332 5  23926656.531                    23926665.617
 107124771.555 8  83473922.232 8  20385148.328                    20385155.238
 110432773.894 8  86051738.35046  21014663.406                    21014668.898
 112629244.738 8  87763117.67246  21432634.023                    21432642.871
 11  8 11  2  8  0.0000000  0  8G10G04G25G12G29G05G02G30
 115373205.813 7  89901334.48145  21954779.188                    21954786.742
 125277860.987 7  97619226.59244  23839566.414                    23839575.309
 115605276.655 8  90082081.295 7  21998953.555                    21998964.375
 109333105.342 8  85194691.974 7  20805401.461                    20805408.871
 125652819.402 7  97911335.420 5  23910943.469                    23910951.898
 107098765.300 8  83453657.647 8  20380199.516                    20380206.707
 110462050.867 8  86074551.55946  21020234.555                    21020240.195
 112609783.216 8  87747952.85746  21428930.563                    21428938.977
 11  8 11  2  8 30.0000000  0  8G10G04G25G12G29G05G02G30
 115450523.845 7  89961582.29045  21969491.797                    21969499.852
 125359558.648 7  97682887.10443  23855113.164                    23855122.207
 115556930.415 8  90044408.916 7  21989753.469                    21989764.180
 109351313.856 8  85208880.418 7  20808866.141                    20808873.754
 125570205.508 7  97846960.996 6  23895222.141                    23895230.871
 107073330.871 8  83433838.640 8  20375359.352                    20375366.684
 110491469.075 8  86097474.83246  21025832.469                    21025838.348
 112590933.018 8  87733264.38545  21425343.984                    21425352.109
 11  8 11  2  9  0.0000000  0  8G10G04G25G12G29G05G02G30
 115528264.125 7  90022159.11945  21984285.094                    21984293.605
 125441216.936 6  97746516.91843  23870652.047                    23870661.051
 115509105.326 8  90007142.623 7  21980652.617                    21980663.176
 109370098.235 8  85223517.582 7  20812440.758                    20812448.176
 125487553.816 7  97782557.118 6  23879494.094                    23879503.043
 107048469.186 8  83414465.932 8  20370628.195                    20370635.676
 110521028.387 8  86120508.05646  21031457.570                    21031462.957
 112572695.072 8  87719053.00546  21421873.281                    21421881.445
 11  8 11  2  9 30.0000000  0  8G10G04G25G12G29G05G02G30
 115606424.007 7  90083062.90745  21999158.938                    21999166.449
 125522835.116 6  97810115.49243  23886183.102                    23886192.789
 115461803.140 8  89970283.782 7  21971651.344                    21971661.711
 109389457.455 8  85238602.686 7  20816124.648                    20816131.875
 125404865.464 7  97718124.674 6  23863758.891                    23863767.977
 107024180.859 8  83395539.997 8  20366006.109                    20366013.633
 110550727.902 8  86143650.54146  21037109.180                    21037114.641
 112555069.803 8  87705319.02746  21418519.125                    21418527.520
 11  8 11  2 10  0.0000000  0  8G10G04G25G12G29G05G02G30
 115685000.321 7  90144291.19045  22014111.016                    22014119.617
 125604412.324 6  97873682.14443  23901707.039                    23901717.141
 115415025.024 8  89933833.317 7  21962749.781                    21962760.613
 109409390.817 8  85254135.172 7  20819918.000                    20819925.262
 125322141.285 7  97653664.340 6  23848017.313                    23848026.047
 107000466.051 8  83377060.960 8  20361493.742                    20361500.930
 110580566.447 8  86166901.35446  21042787.281                    21042792.723
 112538057.225 8  87692062.47146  21415281.688                    21415290.051
 11  8 11  2 10 30.0000000  0  8G10G04G25G12G29G05G02G30
 115763990.875 7  90205842.25245  22029142.828                    22029151.012
 125685948.368 6  97937216.72043  23917222.984                    23917231.652
 115368773.107 8  89897792.888 7  21953948.555                    21953958.633
 109429897.837 8  85270114.672 7  20823820.172                    20823827.289
 125239382.430 7  97589176.979 6  23832268.586                    23832277.453
 106977325.652 8  83359029.517 8  20357090.227                    20357097.391
 110610543.782 8  86190260.32146  21048491.953                    21048497.418
 112521658.189 8  87679283.99046  21412161.344                    21412169.508
 11  8 11  2 11  0.0000000  0  8G10G04G25G12G29G05G02G30
 115843392.773 7  90267713.83145  22044252.258                    22044260.434
 125767442.717 6  98000718.80043  23932730.602                    23932739.535
 115323048.893 8  89862163.644 7  21945247.297                    21945257.891
 109450977.610 8  85286540.471 7  20827831.500                    20827838.977
 125156589.919 6  97524663.387 6  23816513.461                    23816522.367
 106954759.945 8  83341445.893 8  20352796.125                    20352803.441
 110640659.061 8  86213726.78046  21054222.281                    21054227.969
 112505873.004 8  87666983.83946  21409157.180                    21409165.473
 11  8 11  2 11 30.0000000  0  8G10G04G25G12G29G05G02G30
 115923203.642 7  90329904.11045  22059439.813                    22059448.191
 125848894.836 6  98064187.97543  23948230.281                    23948239.840
 115277854.129 8  89826946.970 7  21936646.461                    21936657.277
 109472629.248 8  85303411.877 7  20831951.492                    20831958.945
 125073764.860 6  97460124.451 6  23800751.914                    23800761.633
 106932769.285 8  83324310.344 8  20348611.188                    20348618.531
 110670911.450 8  86237300.07646  21059979.367                    21059985.027
 112490702.106 8  87655162.35446  21406270.555                    21406278.477
 11  8 11  2 12  0.0000000  0  8G10G04G25G12G29G05G02G30
 116003419.961 7  90392410.31645  22074704.758                    22074712.633
 125930303.891 6  98127623.61643  23963721.492                    23963730.824
 115233190.020 8  89792143.792 7  21928147.813                    21928158.309
 109494851.820 8  85320728.165 7  20836180.664                    20836187.750
 124990907.890 6  97395560.641 6  23784984.555                    23784994.184
 106911353.627 8  83307622.850 8  20344536.008                    20344543.313
 110701299.832 8  86260979.34246  21065761.930                    21065767.781
 112476145.477 8  87643819.50946  21403500.570                    21403509.113
 11  8 11  2 12 30.0000000  0  8G10G04G25G12G29G05G02G30
 116084038.918 7  90455230.27545  22090045.547                    22090053.996
 126011669.408 6  98191025.30043  23979205.531                    23979214.426
 115189058.057 8  89757755.264 7  21919749.883                    21919759.813
 109517644.477 8  85338488.674 7  20840517.578                    20840524.984
 124908019.800 6  97330972.610 6  23769211.891                    23769221.727
 106890513.746 8  83291384.011 8  20340570.305                    20340577.668
 110731823.259 8  86284763.84346  21071570.430                    21071576.043
 112462203.330 8  87632955.49346  21400847.500                    21400855.586
 11  8 11  2 13  0.0000000  0  8G10G04G25G12G29G05G02G30
 116165057.954 7  90518361.97345  22105463.117                    22105471.473
 126092990.701 6  98254392.55743  23994680.234                    23994689.734
 115145459.791 8  89723782.604 7  21911453.359                    21911463.477
 109541006.309 8  85356692.699 7  20844963.195                    20844970.828
 124825102.072 6  97266361.473 6  23753432.680                    23753442.695
 106870249.663 8  83275593.836 8  20336714.211                    20336721.645
 110762481.151 8  86308653.11446  21077404.641                    21077410.176
 112448875.973 8  87622570.53446  21398311.297                    21398319.578
 11  8 11  2 13 30.0000000  0  8G10G04G25G12G29G05G02G30
 116246474.433 7  90581803.38245  22120956.461                    22120964.934
 126174267.492 6  98317725.14043  24010146.945                    24010155.855
 115102396.865 8  89690227.101 7  21903258.594                    21903268.863
 109564936.635 8  85375339.706 7  20849517.305                    20849524.613
 124742155.981 6  97201728.220 6  23737649.273                    23737658.395
 106850561.983 8  83260252.813 8  20332967.422                    20332974.984
 110793273.110 8  86332646.87146  21083263.992                    21083269.492
 112436163.826 8  87612664.96046  21395892.141                    21395900.477
 11  8 11  2 14  0.0000000  0  8G10G04G25G12G29G05G02G30
 116328285.831 7  90645552.50445  22136524.703                    22136532.625
 126255499.434 6  98381022.73343  24025604.742                    24025614.602
 115059871.121 8  89657090.184 7  21895165.883                    21895176.707
 109589434.768 8  85394429.170 7  20854178.883                    20854186.633
 124659182.704 7  97137073.778 6  23721859.609                    23721869.141
 106831451.326 8  83245361.423 8  20329330.836                    20329338.316
 110824198.557 8  86356744.64246  21089148.922                    21089154.484
 112424067.248 8  87603239.04246  21393590.320                    21393598.570
 11  8 11  2 14 30.0000000  0  8G10G04G25G12G29G05G02G30
 116410488.707 7  90709606.66845  22152167.102                    22152175.531
 126336685.862 6  98444284.90143  24041053.531                    24041063.566
 115017883.575 8  89624372.631 7  21887176.125                    21887186.758
 109614499.054 8  85413959.778 7  20858948.836                    20858956.270
 124576183.062 7  97072398.768 6  23706065.133                    23706074.652
 106812917.335 8  83230919.373 8  20325803.883                    20325811.371
 110855256.305 8  86380945.49746  21095059.031                    21095064.594
 112412586.103 8  87594292.69346  21391405.352                    21391413.414
 11  8 11  2 15  0.0000000  0  8G10G04G25G12G29G05G02G30
 116493080.376 7  90773963.80645  22167884.133                    22167892.379
 126417825.826 6  98507510.83343  24056494.211                    24056504.379
 114976435.228 8  89592075.244 7  21879288.469                    21879299.086
 109640128.313 8  85433930.635 7  20863825.859                    20863832.754
 124493157.739 7  97007703.764 6  23690266.289                    23690275.383
 106794959.844 8  83216926.551 8  20322386.680                    20322393.848
 110886445.015 8  86405248.39746  21100994.016                    21100999.555
 112401720.000 8  87585825.59646  21389338.070                    21389345.906
 11  8 11  2 15 30.0000000  0  8G10G04G25G12G29G05G02G30
 116576058.362 7  90838621.96145  22183674.406                    22183682.320
 126498918.997 6  98570700.28843  24071925.266                    24071935.160
 114935527.917 8  89560199.437 7  21871504.703                    21871515.148
 109666322.104 8  85454341.379 7  20868810.313                    20868817.535
 124410108.187 7  96942989.855 6  23674462.625                    23674471.973
 106777579.667 8  83203383.569 8  20319079.492                    20319087.262
 110917764.461 8  86429653.18146  21106954.016                    21106959.734
 112391469.598 8  87577838.26246  21387387.320                    21387395.191
 11  8 11  2 16  0.0000000  0  8G10G04G25G12G29G05G02G30
 116659419.237 7  90903578.47045  22199537.203                    22199545.219
 126579964.843 6  98633852.92443  24087348.258                    24087358.078
 114895162.691 8  89528746.024 7  21863823.422                    21863833.777
 109693079.157 8  85475191.026 7  20873902.063                    20873909.422
 124327035.265 7  96878257.757 6  23658653.594                    23658662.715
 106760776.512 8  83190290.222 8  20315882.000                    20315889.418
 110949213.586 8  86454159.01546  21112938.250                    21112943.727
 112381834.458 8  87570330.35746  21385553.539                    21385561.684
 11  8 11  2 16 30.0000000  0  8G10G04G25G12G29G05G02G30
 116743160.785 7  90968831.60945  22215472.469                    22215480.723
 126660963.162 6  98696968.47443  24102762.195                    24102771.363
 114855341.295 8  89497716.382 7  21856245.703                    21856255.930
 109720398.338 8  85496478.696 7  20879100.648                    20879108.027
 124243940.302 7  96813508.490 6  23642842.141                    23642851.441
 106744550.867 8  83177646.884 8  20312794.234                    20312801.617
 110980792.018 8  86478765.60546  21118947.555                    21118953.039
 112372815.098 7  87563302.27946  21383837.266                    21383845.383
 11  8 11  2 17  0.0000000  0  8G10G04G25G12G29G05G02G30
 116827279.992 7  91034379.02345  22231479.938                    22231488.039
 126741913.289 6  98760046.51243  24118166.086                    24118175.375
 114816065.022 8  89467111.512 7  21848771.273                    21848781.895
 109748278.536 8  85518203.524 7  20884405.992                    20884413.180
 124160824.513 7  96748742.971 6  23627025.297                    23627033.852
 106728902.722 8  83165453.541 8  20309816.313                    20309824.078
 111012498.852 8  86503472.26246  21124981.203                    21124986.887
 112364411.457 8  87556753.97746  21382238.320                    21382246.145
 11  8 11  2 17 30.0000000  0  8G10G04G25G12G29G05G02G30
 116911773.706 7  91100218.27045  22247558.625                    22247566.676
 126822814.837 6  98823086.67243  24133560.148                    24133570.332
 114777335.270 8  89436932.497 7  21841401.633                    21841411.750
 109776719.312 8  85540365.156 7  20889818.266                    20889825.609
 124077689.170 7  96683962.223 6  23611205.000                    23611213.926
 106713832.342 8  83153710.413 8  20306948.969                    20306956.102
 111044333.838 8  86528278.76346  21131038.977                    21131044.688
 112356623.619 8  87550685.52845  21380756.203                    21380764.145
 11  8 11  2 18  0.0000000  0  8G10G04G25G12G29G05G02G30
 116996639.527 7  91166347.44145  22263708.586                    22263716.555
 126903667.703 6  98886088.92843  24148947.055                    24148956.277
 114739153.416 8  89407180.410 7  21834135.625                    21834145.875
 109805718.878 8  85562962.216 7  20895336.625                    20895343.863
 123994535.448 7  96619167.162 6  23595381.242                    23595389.637
 106699339.850 8  83142417.572 8  20304190.805                    20304198.141
 111076296.102 8  86553184.44846  21137121.531                    21137126.879
 112349451.583 8  87545096.92245  21379391.375                    21379399.586
 11  8 11  2 18 30.0000000  0  8G10G04G25G12G29G05G02G30
 117081874.391 7  91232764.19444  22279927.945                    22279935.805
 126984471.040 6  98949052.58143  24164323.602                    24164332.004
 114701520.607 8  89377856.143 7  21826974.344                    21826984.816
 109835276.074 8  85585993.798 7  20900961.445                    20900968.566
 123911364.292 7  96554358.536 6  23579554.000                    23579562.559
 106685425.329 8  83131575.106 8  20301542.906                    20301550.164
 111108384.613 8  86578188.50546  21143227.656                    21143233.031
 112342895.083 7  87539987.97146  21378143.633                    21378151.844
 11  8 11  2 19  0.0000000  0  8G10G04G25G12G29G05G02G30
 117167475.704 7  91299466.48645  22296217.188                    22296225.262
 127065224.587 6  99011977.43243  24179690.063                    24179699.461
 114664438.098 8  89348960.689 7  21819917.703                    21819927.988
 109865389.821 8  85609459.047 7  20906691.742                    20906698.652
 123828176.880 7  96489537.264 6  23563723.789                    23563733.480
 106672088.480 8  83121182.769 8  20299005.227                    20299012.691
 111140598.838 8  86603290.52346  21149357.508                    21149363.375
 112336954.141 8  87535358.67345  21377013.172                    21377021.344
 11  8 11  2 19 30.0000000  0  8G10G04G25G12G29G05G02G30
 117253440.106 7  91366451.70944  22312575.734                    22312583.855
 127145927.577 6  99074862.85043  24195048.039                    24195057.309
 114627906.721 8  89320494.680 7  21812966.008                    21812975.949
 109896058.838 8  85633356.974 7  20912527.688                    20912534.879
 123744974.118 7  96424704.015 6  23547891.367                    23547900.766
 106659328.979 8  83111240.318 8  20296577.094                    20296584.441
 111172937.804 8  86628489.73546  21155511.578                    21155517.055
 112331628.129 8  87531208.53145  21375999.664                    21376007.719
 11  8 11  2 20  0.0000000  0  8G10G04G25G12G29G05G02G30
 117339765.120 7  91433717.91944  22329003.195                    22329010.930
 127226579.713 6  99137708.70343  24210395.180                    24210404.637
 114591928.264 8  89292459.519 7  21806119.797                    21806129.746
 109927282.021 8  85657686.718 7  20918469.023                    20918476.684
 123661757.797 7  96359860.198 6  23532055.242                    23532064.563
 106647147.457 8  83101748.237 8  20294258.688                    20294266.395
 111205401.098 8  86653785.83946  21161689.391                    21161694.680
 112326917.540 8  87527537.94945  21375103.164                    21375111.133
 11  8 11  2 20 30.0000000  0  8G10G04G25G12G29G05G02G30
 117426447.429 7  91501262.56444  22345497.992                    22345506.176
 127307180.476 6  99200514.47143  24225732.789                    24225742.164
 114556503.337 8  89264855.675 7  21799378.094                    21799388.777
 109959057.523 8  85682446.838 7  20924515.953                    20924523.363
 123578528.440 7  96295006.242 6  23516217.313                    23516226.063
 106635543.265 8  83092706.025 8  20292050.906                    20292058.016
 111237987.431 8  86679177.81746  21167890.250                    21167895.742
 112322821.544 7  87524346.27846  21374323.813                    21374331.910
 11  8 11  2 21  0.0000000  0  8G10G04G25G12G29G05G02G30
 117513484.495 7  91569083.63344  22362060.555                    22362068.301
 127387729.856 6  99263280.22543  24241061.344                    24241070.262
 114521633.672 8  89237684.504 7  21792742.945                    21792753.215
 109991384.721 8  85707636.858 7  20930667.430                    20930675.023
 123495287.772 7  96230143.465 6  23500377.461                    23500386.012
 106624516.733 8  83084113.939 8  20289952.609                    20289959.531
 111270696.962 8  86704665.79246  21174114.242                    21174119.668
 112319340.468 8  87521633.76246  21373661.336                    21373669.289
 11  8 11  2 21 30.0000000  0  8G10G04G25G12G29G05G02G30
 117600872.957 7  91637178.51844  22378689.797                    22378697.652
 127468226.902 6  99326005.19143  24256379.461                    24256388.383
 114487319.746 8  89210946.377 7  21786213.055                    21786223.703
 110024262.007 8  85733255.512 7  20936924.070                    20936931.488
 123412036.488 7  96165272.414 6  23484534.945                    23484543.941
 106614067.314 8  83075971.559 8  20287963.852                    20287971.328
 111303528.279 8  86730248.67546  21180361.953                    21180367.293
 112316473.424 8  87519399.70946  21373115.852                    21373123.469
 11  8 11  2 22  0.0000000  0  8G10G04G25G12G29G05G02G30
 117688610.704 7  91705545.56644  22395386.219                    22395393.762
 127548671.817 7  99388689.53543  24271687.508                    24271696.727
 114453563.494 8  89184642.811 7  21779789.281                    21779799.746
 110057688.424 8  85759302.068 7  20943284.734                    20943292.105
 123328776.610 7  96100394.653 6  23468691.453                    23468699.930
 106604195.504 8  83068279.254 8  20286085.250                    20286092.566
 111336481.585 8  86755926.59846  21186632.867                    21186638.293
 112314220.926 8  87517644.52846  21372687.320                    21372695.305
 11  8 11  2 22 30.0000000  0  8G10G04G25G12G29G05G02G30
 117776694.869 7  91774182.55444  22412148.258                    22412156.113
 127629064.037 6  99451332.83643  24286985.227                    24286995.148
 114420365.728 8  89158774.418 7  21773472.688                    21773482.305
 110091662.223 8  85785775.152 7  20949749.766                    20949756.941
 123245508.913 7  96035510.802 6  23452845.672                    23452854.895
 106594900.810 8  83061036.649 8  20284316.602                    20284324.121
 111369555.869 7  86781698.79746  21192926.859                    21192932.105
 112312582.402 7  87516367.77646  21372375.617                    21372383.715
 11  8 11  2 23  0.0000000  0  8G10G04G25G12G29G05G02G30
 117865122.102 7  91843086.85844  22428975.188                    22428982.953
 127709403.132 6  99513934.70743  24302273.422                    24302282.848
 114387727.385 8  89133341.942 7  21767261.586                    21767271.809
 110126182.115 8  85812673.766 7  20956318.445                    20956325.754
 123162234.678 7  95970621.859 6  23436999.055                    23437008.598
 106586182.958 8  83054243.535 8  20282657.883                    20282665.035
 111402750.372 8  86807564.66546  21199243.148                    21199248.762
 112311557.402 7  87515569.08946  21372180.406                    21372188.453
 11  8 11  2 23 30.0000000  0  9G10G26G04G25G12G29G05G02G30
 117953890.045 7  91912256.67544  22445867.344                    22445875.141
 130391129.44416 101603550.48752  24812615.063                    24812625.574
 127789689.066 6  99576495.16543  24317551.453                    24317560.922
 114355649.803 8  89108346.433 7  21761157.445                    21761167.520
 110161246.854 8  85839996.941 7  20962991.383                    20962998.863
 123078955.349 6  95905728.935 6  23421151.398                    23421160.363
 106578042.188 8  83047900.092 8  20281108.750                    20281116.191
 111436064.818 8  86833524.00546  21205582.797                    21205588.504
 112311145.809 7  87515248.38546  21372101.648                    21372110.059
 11  8 11  2 24  0.0000000  0  9G10G26G04G25G12G29G05G02G30
 118042995.985 7  91981689.85644  22462823.281                    22462831.441
 130297498.415 6 101530591.28542  24794797.453                    24794806.883
 127869921.574 6  99639013.99943  24332819.289                    24332828.734
 114324134.248 8  89083788.869 7  21755160.141                    21755170.566
 110196855.336 8  85867743.810 7  20969767.336                    20969774.707
 122995672.846 7  95840833.566 6  23405303.164                    23405311.895
 106570478.229 8  83042006.127 8  20279669.344                    20279676.297
 111469498.970 8  86859576.61246  21211945.031                    21211950.305
 112311347.552 7  87515405.59746  21372140.453                    21372148.289
 11  8 11  2 24 30.0000000  0  9G10G26G04G25G12G29G05G02G30
 118132436.312 7  92051383.63044  22479843.367                    22479851.383
 130203741.943 6 101457534.44542  24776955.797                    24776965.363
 127950099.873 6  99701490.61742  24348075.703                    24348085.910
 114293181.220 8  89059669.619 7  21749269.828                    21749280.277
 110233005.742 8  85895912.958 7  20976646.648                    20976653.684
 122912387.455 7  95775935.904 6  23389454.891                    23389463.398
 106563490.264 8  83036560.974 8  20278339.477                    20278346.656
 111503051.245 8  86885721.27546  21218329.797                    21218335.309
 112312161.653 7  87516039.97146  21372295.375                    21372303.563
 11  8 11  2 25  0.0000000  0  9G10G26G04G25G12G29G05G02G30
 118222208.269 7  92121335.78544  22496926.453                    22496934.449
 130109862.801 6 101384381.94942  24759090.594                    24759100.633
 128030223.415 6  99763924.54343  24363323.313                    24363332.230
 114262791.662 8  89035989.458 7  21743486.852                    21743497.355
 110269696.909 8  85924503.481 7  20983628.664                    20983635.914
 122829100.660 7  95711037.158 6  23373605.953                    23373614.594
 106557078.341 8  83031564.690 8  20277119.203                    20277126.344
 111536721.199 7  86911957.62046  21224736.984                    21224742.387
 112313587.578 7  87517151.10246  21372566.461                    21372574.617
 11  8 11  2 25 30.0000000  0  9G10G26G04G25G12G29G05G02G30
 118312309.008 7  92191544.13844  22514072.023                    22514079.871
 130015863.963 6 101311136.19942  24741203.609                    24741213.281
 128110292.251 6  99826315.80043  24378559.859                    24378569.023
 114232966.638 8  89012749.190 7  21737811.383                    21737821.816
 110306926.576 8  85953513.606 7  20990712.883                    20990720.559
 122745813.654 7  95646138.221 6  23357756.547                    23357765.145
 106551242.122 8  83027017.011 8  20276008.688                    20276015.793
 111570508.181 7  86938285.16546  21231166.508                    21231172.117
 112315625.011 7  87518738.71746  21372954.547                    21372962.715
 11  8 11  2 26  0.0000000  0  9G10G26G04G25G12G29G05G02G30
 118402735.529 7  92262006.33944  22531280.023                    22531287.824
 129921748.247 6 101237799.40442  24723293.719                    24723303.836
 128190306.126 6  99888664.27543  24393787.109                    24393795.207
 114203707.118 8  88989949.585 7  21732243.766                    21732253.594
 110344693.375 8  85982942.283 7  20997899.938                    20997907.355
 122662527.948 7  95581240.301 6  23341907.805                    23341916.477
 106545981.248 8  83022917.645 8  20275007.500                    20275014.859
 111604411.579 8  86964703.41746  21237618.320                    21237623.785
 112318273.526 7  87520802.51246  21373458.484                    21373466.629
 11  8 11  2 26 30.0000000  0  9G10G26G04G25G12G29G05G02G30
 118493485.053 7  92332720.22444  22548548.219                    22548556.477
 129827518.581 6 101164373.75843  24705362.711                    24705373.004
 128270264.339 6  99950969.36542  24409002.008                    24409010.387
 114175013.834 8  88967591.205 7  21726783.508                    21726793.398
 110382996.011 8  86012788.487 7  21005188.789                    21005196.012
 122579244.722 6  95516344.299 6  23326059.609                    23326068.277
 106541295.120 8  83019266.136 8  20274115.602                    20274122.793
 111638431.048 8  86991212.11646  21244091.742                    21244097.121
 112321532.322 7  87523341.84346  21374078.547                    21374086.680
 11  8 11  2 27  0.0000000  0  9G10G26G04G25G12G29G05G02G30
 118584554.836 7  92403683.67644  22565878.547                    22565887.059
 129733177.859 6 101090861.56842  24687410.141                    24687420.172
 128350166.643 6 100013230.90343  24424206.258                    24424216.027
 114146887.838 7  88945674.854 7  21721431.125                    21721441.574
 110421833.024 8  86043051.103 7  21012579.063                    21012586.434
 122495965.550 6  95451451.445 6  23310212.234                    23310220.848
 106537183.645 8  83016062.405 8  20273333.383                    20273340.219
 111672566.007 8  87017810.80146  21250587.703                    21250592.613
 112325401.062 7  87526356.45246  21374814.578                    21374822.945
 11  8 11  2 27 30.0000000  0  9G10G26G04G25G12G29G05G02G30
 118675941.654 7  92474894.15144  22583269.102                    22583277.316
 129638728.800 6 101017265.00143  24669436.508                    24669447.184
 128430012.694 6 100075448.60243  24439400.922                    24439409.578
 114119329.707 8  88924201.005 7  21716186.883                    21716197.129
 110461202.608 8  86073728.697 7  21020070.961                    21020078.602
 122412691.372 6  95386562.488 6  23294365.594                    23294374.441
 106533645.891 8  83013305.735 8  20272660.180                    20272667.121
 111706815.376 8  87044498.64646  21257104.430                    21257110.082
 112329878.813 8  87529845.62146  21375666.797                    21375674.930
 11  8 11  2 28  0.0000000  0  9G10G26G04G25G12G29G05G02G30
 118767642.819 7  92546349.59144  22600719.234                    22600727.508
 129544174.688 6 100943586.59943  24651443.758                    24651454.164
 128509802.376 6 100137622.39443  24454584.609                    24454593.492
 114092340.436 8  88903170.416 7  21711051.211                    21711061.336
 110501103.114 8  86104819.996 7  21027664.070                    21027671.383
 122329423.724 7  95321678.631 6  23278520.367                    23278529.371
 106530681.722 8  83010996.007 8  20272096.078                    20272103.523
 111741179.045 8  87071275.54346  21263644.227                    21263649.215
 112334965.197 7  87533809.04046  21376634.594                    21376643.066
 11  8 11  2 28 30.0000000  0  9G10G26G04G25G12G29G05G02G30
 118859655.643 7  92618047.87844  22618229.227                    22618237.289
 129449518.388 6 100869828.55343  24633431.484                    24633441.965
 128589535.464 6 100199752.08243  24469756.672                    24469766.785
 114065920.971 8  88882583.850 7  21706023.539                    21706033.789
 110541533.201 8  86136323.951 7  21035357.469                    21035364.996
 122246164.015 6  95256800.951 6  23262676.555                    23262684.777
 106528290.885 8  83009133.030 8  20271641.102                    20271648.395
 111775656.337 8  87098140.98246  21270204.875                    21270210.121
 112340659.685 7  87538246.30646  21377718.063                    21377726.203
 11  8 11  2 29  0.0000000  0  9G10G26G04G25G12G29G05G02G30
 118951976.637 7  92689986.30744  22635796.953                    22635805.199
 129354762.815 6 100795993.15343  24615399.953                    24615410.133
 128669211.476 6 100261837.27442  24484918.508                    24484928.559
 114040071.863 8  88862441.715 7  21701104.242                    21701115.203
 110582490.681 8  86168238.875 7  21043151.250                    21043158.770
 122162913.563 7  95191930.490 6  23246834.602                    23246843.148
 106526472.428 8  83007716.064 8  20271295.109                    20271301.988
 111810246.450 8  87125094.34046  21276786.984                    21276792.813
 112346961.367 7  87543156.71046  21378917.297                    21378925.699
 11  8 11  2 29 30.0000000  0  9G10G26G04G25G12G29G05G02G30
 119044603.089 7  92762162.76044  22653423.398                    22653431.598
 129259910.941 6 100722082.73643  24597349.719                    24597361.035
 128748830.174 6 100323877.83043  24500069.297                    24500079.375
 114014793.858 8  88842744.586 7  21696294.711                    21696304.684
 110623974.043 8  86200563.572 7  21051045.359                    21051052.609
 122079673.870 6  95127068.394 6  23230994.188                    23231003.336
 106525226.031 8  83006744.856 8  20271057.883                    20271065.066
 111844948.864 8  87152135.17646  21283390.734                    21283396.070
 112353869.496 7  87548539.66546  21380231.531                    21380240.059
 11  8 11  2 30  0.0000000  0  9G10G26G04G25G12G29G05G02G30
 119137532.468 6  92834575.25344  22671106.852                    22671115.102
 129164965.850 6 100648099.68843  24579282.281                    24579292.637
 128828391.403 6 100385873.57842  24515209.719                    24515219.043
 113990087.914 8  88823493.234 7  21691592.727                    21691603.180
 110665981.846 8  86233296.920 7  21059039.164                    21059046.344
 121996446.249 6  95062215.736 6  23215156.906                    23215165.387
 106524551.269 8  83006219.074 8  20270929.469                    20270936.270
 111879763.339 7  87179263.34846  21290015.672                    21290020.750
 112361383.592 7  87554394.80946  21381661.547                    21381669.906
 11  8 11  2 30 30.0000000  0  9G10G26G04G25G12G29G05G02G30
 119230761.755 7  92907221.43344  22688848.258                    22688856.617
 129069930.499 7 100574046.28943  24561198.008                    24561208.242
 128907895.036 6 100447824.52243  24530338.531                    24530347.371
 113965954.746 8  88804688.182 7  21687000.188                    21687010.926
 110708512.313 8  86266437.540 7  21067132.711                    21067139.902
 121913232.391 6  94997373.810 6  23199321.680                    23199330.449
 106524447.874 8  83006138.513 8  20270909.914                    20270916.918
 111914689.250 8  87206478.34446  21296662.031                    21296667.152
 112369502.962 8  87560721.58446  21383206.859                    21383215.340
 11  8 11  2 31  0.0000000  0  9G10G26G04G25G12G29G05G02G30
 119324288.137 6  92980099.11644  22706645.227                    22706653.363
 128974807.921 7 100499924.89143  24543096.859                    24543106.707
 128987340.582 6 100509730.13543  24545457.391                    24545465.605
 113942395.062 8  88786330.016 7  21682517.320                    21682527.547
 110751563.587 8  86299983.993 7  21075325.164                    21075332.152
 121830033.476 7  94932543.510 6  23183489.563                    23183497.453
 106524914.895 8  83006502.431 8  20270998.789                    20271005.688
 111949726.023 8  87233779.73046  21303329.414                    21303334.453
 112378226.691 7  87567519.29646  21384866.656                    21384875.156
 11  8 11  2 31 30.0000000  0  9G10G26G04G25G12G29G05G02G30
 119418108.294 6  93053205.71944  22724498.531                    22724507.039
 128879601.062 7 100425737.82543  24524979.070                    24524988.750
 129066727.892 6 100571590.41343  24560563.156                    24560572.609
 113919409.262 8  88768419.020 7  21678142.883                    21678153.578
 110795133.641 8  86333934.671 7  21083616.258                    21083623.441
 121746850.800 7  94867725.856 6  23167660.570                    23167669.023
 106525951.805 8  83007310.418 8  20271196.031                    20271203.109
 111984873.002 8  87261166.99946  21310017.102                    21310022.613
 112387553.823 7  87574787.18546  21386642.047                    21386650.387
 11  8 11  2 32  0.0000000  0  9G10G26G04G25G12G29G05G02G30
 119512219.423 6  93126539.06944  22742407.234                    22742415.406
 128784312.601 7 100351487.20343  24506846.578                    24506855.934
 129146056.573 6 100633405.01043  24575659.648                    24575668.457
 113896997.901 8  88750955.645 7  21673878.578                    21673888.410
 110839221.212 8  86368288.615 7  21092005.797                    21092012.797
 121663685.880 7  94802922.047 6  23151834.563                    23151843.250
 106527557.507 8  83008561.630 8  20271501.250                    20271508.613
 112020129.312 8  87288639.45046  21316726.234                    21316731.891
 112397483.417 7  87582524.52546  21388531.336                    21388539.711
 11  8 11  2 32 30.0000000  0  9G10G26G04G25G12G29G05G02G30
 119606619.052 7  93200097.21244  22760371.109                    22760379.395
 128688946.013 6 100277175.69643  24488698.320                    24488708.609
 129225326.713 6 100695173.96543  24590743.789                    24590753.867
 113875162.008 8  88733940.692 7  21669723.250                    21669733.305
 110883824.290 8  86403044.251 7  21100493.406                    21100500.840
 121580540.507 7  94738133.471 6  23136012.414                    23136021.125
 106529732.086 8  83010256.114 8  20271915.367                    20271922.691
 112055495.220 7  87316197.29746  21323456.148                    21323461.516
 112408014.937 7  87590730.89846  21390535.359                    21390543.891
 11  8 11  2 33  0.0000000  0  9G10G26G04G25G12G29G05G02G30
 119701303.985 6  93273877.65944  22778388.930                    22778397.246
 128593504.431 6 100202805.74543  24470536.672                    24470547.078
 129304537.914 6 100756897.00243  24605816.828                    24605826.984
 113853901.995 8  88717374.464 7  21665677.305                    21665687.813
 110928941.086 8  86438200.192 7  21109078.555                    21109085.953
 121497415.427 7  94673360.714 6  23120193.977                    23120203.090
 106532474.436 8  83012393.016 8  20272437.023                    20272444.527
 112090969.879 7  87343839.88446  21330207.023                    21330212.465
 112419147.414 7  87599405.55246  21392653.617                    21392661.941
 11  8 11  2 33 30.0000000  0  9G10G26G04G25G12G29G05G02G30
 119796271.347 6  93347878.18744  22796460.313                    22796468.617
 128497990.742 6 100128379.63843  24452360.836                    24452371.219
 129383690.270 6 100818574.14743  24620879.688                    24620888.594
 113833218.543 8  88701257.518 7  21661741.711                    21661751.523
 110974569.919 8  86473755.121 7  21117761.602                    21117768.898
 121414312.808 7  94608605.463 6  23104380.586                    23104389.008
 106535784.085 8  83014971.970 8  20273066.969                    20273074.285
 112126553.060 8  87371567.03646  21336978.141                    21336983.809
 112430880.002 7  87608547.82246  21394886.633                    21394894.867
 11  8 11  2 34  0.0000000  0  9G10G26G04G25G12G29G05G02G30
 119891518.335 7  93422096.60044  22814585.469                    22814594.406
 128402408.146 6 100053899.78143  24434172.336                    24434181.934
 129462783.238 6 100880205.07942  24635929.734                    24635939.105
 113813112.060 8  88685590.142 7  21657915.188                    21657925.492
 111020708.680 8  86509707.401 7  21126541.820                    21126548.961
 121331233.834 7  94543868.675 7  23088570.938                    23088580.395
 106539660.119 8  83017992.266 8  20273804.633                    20273811.754
 112162244.203 8  87399378.30446  21343769.828                    21343775.219
 112443211.540 7  87618156.80146  21397233.070                    21397241.617
 11  8 11  2 34 30.0000000  0  9G10G26G04G25G12G29G05G02G30
 119987042.110 7  93496530.69544  22832763.445                    22832771.223
 128306759.773 6  99979368.74043  24415970.180                    24415980.414
 129541816.701 6 100941789.60543  24650970.133                    24650979.117
 113793583.158 8  88670372.834 7  21654198.992                    21654209.504
 111067355.641 8  86546055.669 7  21135418.391                    21135425.453
 121248180.259 7  94479151.693 6  23072766.117                    23072775.406
 106544102.216 8  83021453.660 8  20274649.680                    20274657.246
 112198042.720 8  87427273.24646  21350582.328                    21350587.391
 112456141.299 7  87628231.92846  21399693.648                    21399702.152
 11  8 11  2 35  0.0000000  0  9G10G26G04G25G12G29G05G02G30
 120082839.640 7  93571178.10644  22850993.266                    22851000.738
 128211048.653 6  99904788.72443  24397757.430                    24397766.836
 129620790.482 6 101003327.63043  24665997.586                    24666006.840
 113774632.280 8  88655605.937 7  21650592.813                    21650603.613
 111114508.824 8  86582798.411 7  21144390.883                    21144398.418
 121165153.455 7  94414455.568 7  23056966.180                    23056975.508
 106549109.331 8  83025355.328 8  20275602.773                    20275609.641
 112233948.051 8  87455251.42146  21357415.109                    21357420.098
 112469668.143 8  87638772.31846  21402267.719                    21402275.965
 11  8 11  2 35 30.0000000  0  9G10G26G04G25G12G29G05G02G30
 120178908.006 7  93646036.56844  22869273.992                    22869282.051
 128115277.646 6  99830162.05843  24379533.273                    24379542.773
 129699704.440 6 101064819.06243  24681014.047                    24681024.184
 113756259.834 8  88641289.768 7  21647096.391                    21647107.223
 111162166.140 8  86619933.965 7  21153460.219                    21153467.508
 121082154.850 7  94349781.437 6  23041172.531                    23041181.102
 106554680.392 8  83029696.426 8  20276663.000                    20276670.098
 112269959.713 8  87483312.45746  21364267.484                    21364273.410
 112483791.061 8  87649777.17246  21404954.992                    21404963.438
 11  8 11  2 36  0.0000000  0  8G10G26G25G12G29G05G02G30
 120275244.424 7  93721103.92144  22887606.609                    22887614.504
 128019450.002 6  99755491.26242  24361296.938                    24361306.398
 113738466.171 8  88627424.587 7  21643710.688                    21643721.664
 111210325.820 8  86657460.986 7  21162624.156                    21162631.488
 120999186.010 7  94285130.474 6  23025384.070                    23025393.281
 106560814.606 8  83034476.347 8  20277829.867                    20277837.168
 112306077.124 8  87511455.89846  21371140.453                    21371145.859
 112498508.849 7  87661245.57946  21407755.805                    21407764.129
 11  8 11  2 36 30.0000000  0  8G10G26G25G12G29G05G02G30
 120371846.013 7  93796377.88344  22905989.563                    22905997.168
 127923569.106 6  99680778.96342  24343051.703                    24343060.805
 113721251.904 8  88614010.888 7  21640434.859                    21640445.313
 111258986.254 8  86695378.191 7  21171884.391                    21171891.848
 120916248.458 7  94220503.893 6  23009601.242                    23009610.512
 106567511.638 8  83039694.831 8  20279104.688                    20279111.605
 112342300.219 8  87539681.67246  21378033.375                    21378039.297
 112513820.679 8  87673176.87446  21410669.750                    21410678.090
 11  8 11  2 37  0.0000000  0  8G10G26G25G12G29G05G02G30
 120468709.933 7  93871856.27544  22924421.656                    22924430.223
 127827637.984 6  99606027.52543  24324795.625                    24324805.320
 113704617.382 8  88601048.938 7  21637269.344                    21637279.973
 111308144.646 8  86733683.427 7  21181239.047                    21181246.199
 120833343.640 7  94155902.827 6  22993825.023                    22993833.719
 106574770.241 8  83045350.897 8  20280485.773                    20280492.934
 112378628.356 8  87567989.31046  21384946.656                    21384951.801
 112529725.344 7  87685570.10046  21413696.578                    21413704.574
 11  8 11  2 37 30.0000000  0  8G10G26G25G12G29G05G02G30
 120565833.496 7  93947536.96244  22942903.898                    22942911.961
 127731659.605 6  99531239.26043  24306532.508                    24306541.055
 113688562.973 8  88588539.022 7  21634214.555                    21634224.938
 111357799.625 8  86772375.612 7  21190687.672                    21190695.398
 120750473.234 7  94091328.565 6  22978055.633                    22978064.141
 106582589.723 8  83051444.020 8  20281973.453                    20281980.629
 112415061.351 8  87596378.66446  21391879.789                    21391884.609
 112546221.733 8  87698424.43146  21416835.477                    21416843.348
 11  8 11  2 38  0.0000000  0  8G10G26G25G12G29G05G02G30
 120663213.735 7  94023417.65944  22961434.758                    22961442.512
 127635637.254 6  99456416.73243  24288260.055                    24288268.805
 113673088.952 8  88576481.352 7  21631269.836                    21631280.172
 111407949.033 8  86811453.066 7  21200231.117                    21200238.605
 120667638.571 7  94026782.151 6  22962292.492                    22962301.168
 106590969.146 8  83057973.461 8  20283568.281                    20283575.488
 112451598.459 8  87624849.13046  21398832.430                    21398838.016
 112563308.662 7  87711738.91746  21420087.047                    21420095.098
 11  8 11  2 38 30.0000000  0  8G10G26G25G12G29G05G02G30
 120760847.503 7  94099495.92444  22980013.570                    22980021.988
 127539574.093 6  99381562.40643  24269979.406                    24269988.945
 113658195.497 8  88564876.077 7  21628435.672                    21628445.715
 111458590.574 8  86850913.997 7  21209867.711                    21209875.113
 120584841.310 7  93962264.885 6  22946536.297                    22946545.777
 106599907.355 8  83064938.319 8  20285269.055                    20285275.938
 112488239.185 8  87653400.35146  21405804.656                    21405810.523
 112580984.717 7  87725512.46046  21423450.695                    21423458.727
 11  8 11  2 39  0.0000000  0  8G10G26G25G12G29G05G02G30
 120858731.971 7  94175769.50944  22998640.242                    22998648.711
 127443473.136 6  99306678.61643  24251691.641                    24251701.289
 113643882.832 8  88553723.354 7  21625711.992                    21625722.316
 111509722.561 8  86890757.095 7  21219598.000                    21219605.078
 120502083.074 7  93897778.033 6  22930788.133                    22930796.496
 106609403.332 8  83072337.802 8  20287076.008                    20287083.043
 112524982.970 8  87682031.87146  21412796.766                    21412801.965
 112599248.678 8  87739744.10446  21426926.164                    21426934.047
 11  8 11  2 39 30.0000000  0  8G10G26G25G12G29G05G02G30
 120956864.233 6  94252236.19644  23017314.063                    23017322.813
 127347337.647 6  99231767.91943  24233398.016                    24233408.141
 113630151.370 8  88543023.523 7  21623099.172                    21623109.391
 111561342.386 8  86930980.328 7  21229420.688                    21229428.148
 120419365.360 7  93833322.742 6  22915047.734                    22915055.895
 106619456.075 8  83080171.125 8  20288989.297                    20288996.359
 112561829.582 8  87710743.52946  21419808.453                    21419813.984
 112618099.422 7  87754432.99246  21430513.195                    21430521.539
 11  8 11  2 40  0.0000000  0  8G10G26G25G12G29G05G02G30
 121055241.640 6  94328893.91044  23036034.641                    23036042.984
 127251171.019 6  99156832.96943  24215097.625                    24215107.473
 113617001.442 8  88532776.833 7  21620596.789                    21620606.906
 111613448.332 8  86971582.354 7  21239336.156                    21239343.133
 120336690.016 7  93768900.465 7  22899315.195                    22899323.656
 106630065.033 8  83088437.867 8  20291008.008                    20291014.898
 112598779.107 8  87739535.36846  21426839.914                    21426845.160
 112637535.843 8  87769578.24846  21434212.070                    21434220.031
 11  8 11  2 40 30.0000000  0  8G10G26G25G12G29G05G02G30
 121153861.209 6  94405740.32744  23054800.750                    23054809.566
 127154976.450 6  99081876.22843  24196792.656                    24196802.246
 113604433.181 8  88522983.385 7  21618204.758                    21618215.348
 111666038.218 8  87012561.478 7  21249343.859                    21249351.496
 120254058.465 7  93704512.298 6  22883590.023                    22883599.375
 106641228.892 8  83097137.000 8  20293132.477                    20293139.516
 112635830.766 8  87768406.79646  21433890.438                    21433895.855
 112657556.538 7  87785178.77946  21438022.047                    21438030.180
 11  8 11  2 41  0.0000000  0  8G10G26G25G12G29G05G02G30
 121252720.062 6  94482773.19944  23073613.742                    23073622.059
 127058757.218 7  99006900.23843  24178482.586                    24178492.859
 113592446.760 8  88513643.325 7  21615923.836                    21615934.309
 111719110.221 8  87053916.283 7  21259443.023                    21259450.633
 120171472.209 7  93640159.431 6  22867874.805                    22867883.215
 106652946.855 8  83106267.895 8  20295362.023                    20295369.063
 112672984.283 8  87797357.60646  21440960.688                    21440965.676
 112678160.228 7  87801233.60646  21441942.398                    21441950.664
 11  8 11  2 41 30.0000000  0  8G10G26G25G12G29G05G02G30
 121351815.261 6  94559990.23944  23092471.422                    23092479.207
 126962516.097 6  98931907.23043  24160168.602                    24160178.902
 113581042.297 8  88504756.730 7  21613753.609                    21613764.160
 111772661.917 8  87095644.873 7  21269633.289                    21269640.844
 120088933.185 7  93575843.355 6  22852168.117                    22852176.672
 106665217.401 8  83115829.377 8  20297696.977                    20297704.203
 112710238.907 8  87826387.17246  21448049.945                    21448055.102
 112699345.487 7  87817741.59346  21445973.875                    21445981.703
 11  8 11  2 42  0.0000000  0  8G10G26G25G12G29G05G02G30
 121451143.830 7  94637389.12844  23111372.766                    23111381.168
 126866256.605 6  98856899.85843  24141851.266                    24141860.957
 113570219.700 8  88496323.533 7  21611694.156                    21611704.293
 111826690.909 8  87137745.380 7  21279914.953                    21279922.395
 120006442.747 7  93511565.134 6  22836470.461                    22836478.723
 106678039.486 8  83125820.637 8  20300137.195                    20300144.008
 112747594.401 8  87855495.35546  21455158.414                    21455163.754
 112721110.773 7  87834701.55546  21450115.547                    21450123.582
 11  8 11  2 42 30.0000000  0  8G10G26G25G12G29G05G02G30
 121550703.337 7  94714967.99844  23130318.367                    23130326.641
 126769981.998 6  98781880.75843  24123530.586                    24123539.766
 113559979.288 8  88488343.982 7  21609745.477                    21609755.883
 111881194.992 8  87180216.085 7  21290286.406                    21290293.828
 119924002.727 7  93447326.201 7  22820782.875                    22820791.652
 106691412.405 8  83136241.119 8  20302681.805                    20302688.809
 112785050.514 8  87884681.92946  21462286.055                    21462291.547
 112743454.802 7  87852112.49546  21454367.617                    21454375.516
 11  8 11  2 43  0.0000000  0  8G10G26G25G12G29G05G02G30
 121650490.913 7  94792724.55744  23149307.219                    23149315.227
 126673695.355 6  98706852.27943  24105207.039                    24105217.387
 113550320.970 8  88480818.021 7  21607907.727                    21607917.859
 111936172.121 8  87223055.399 7  21300748.531                    21300755.945
 119841614.643 7  93383127.746 7  22805104.992                    22805113.559
 106705334.650 8  83147089.650 8  20305330.977                    20305338.477
 112822606.720 8  87913946.51046  21469432.891                    21469438.086
 112766376.049 7  87869973.20446  21458729.391                    21458737.531
 11  8 11  2 43 30.0000000  0  8G10G26G25G12G29G05G02G30
 121750503.317 7  94870656.33344  23168338.758                    23168347.172
 126577400.136 6  98631817.13143  24086883.391                    24086893.242
 113541244.697 8  88473745.590 7  21606180.641                    21606190.906
 111991619.805 8  87266261.377 7  21311299.773                    21311307.746
 119759280.177 7  93318971.076 7  22789436.609                    22789445.508
 106719804.845 8  83158365.166 8  20308084.602                    20308091.578
 112860262.731 8  87943288.84946  21476598.719                    21476603.723
 112789872.987 8  87888282.50846  21463200.570                    21463208.816
 11  8 11  2 44  0.0000000  0  8G10G26G25G12G29G05G02G30
 121850738.134 7  94948761.39743  23187413.234                    23187421.020
 126481099.654 6  98556777.84743  24068557.516                    24068567.598
 113532750.914 8  88467127.056 7  21604564.242                    21604574.129
 112047536.311 7  87309832.671 7  21321940.453                    21321947.695
 119677001.053 7  93254857.507 7  22773779.984                    22773787.832
 106734822.364 8  83170067.161 8  20310942.164                    20310949.492
 112898018.555 8  87972708.96046  21483783.227                    21483788.770
 112813944.525 7  87907039.55746  21467781.375                    21467789.805
 11  8 11  2 44 30.0000000  0  8G10G26G25G12G29G05G02G30
 121951192.412 7  95027037.48043  23206528.453                    23206536.758
 126384797.298 6  98481737.14543  24050232.141                    24050242.043
 113524839.449 8  88460962.285 7  21603058.883                    21603068.484
 112103919.152 8  87353767.343 7  21332669.391                    21332677.242
 119594778.873 7  93190788.317 6  22758133.453                    22758141.766
 106750385.982 8  83182194.693 8  20313903.836                    20313910.855
 112935873.720 8  88002206.49546  21490986.961                    21490991.848
 112838589.006 8  87926243.04846  21472470.945                    21472479.648
 11  8 11  2 45  0.0000000  0  8G10G26G25G12G29G05G02G30
 122051863.290 6  95105482.34044  23225685.664                    23225693.984
 126288496.040 6  98406697.30343  24031906.469                    24031916.320
 113517510.246 8  88455251.221 7  21601664.086                    21601674.117
 112160766.185 8  87398063.716 7  21343487.398                    21343494.879
 119512615.529 7  93126764.975 6  22742498.398                    22742506.254
 106766494.377 8  83194746.726 8  20316969.266                    20316976.262
 112973827.740 8  88031781.03846  21498209.461                    21498214.359
 112863804.836 7  87945891.74946  21477269.320                    21477277.637
 11  8 11  2 45 30.0000000  0  8G10G26G25G12G29G05G02G30
 122152748.048 7  95184093.84944  23244883.078                    23244891.754
 126192199.632 6  98331661.19643  24013581.523                    24013591.887
 113510763.283 8  88449993.849 7  21600380.117                    21600390.164
 112218075.214 7  87442720.091 7  21354393.164                    21354400.465
 119430512.542 7  93062788.649 7  22726874.328                    22726883.168
 106783146.473 8  83207722.426 8  20320137.984                    20320145.340
 113011880.274 8  88061432.38046  21505450.664                    21505455.828
 112889590.582 7  87965984.55246  21482176.297                    21482184.773
 11  8 11  2 46  0.0000000  0  8G10G26G25G12G29G05G02G30
 122253843.802 7  95262869.76444  23264121.367                    23264129.289
 126095910.778 6  98256630.97843  23995258.250                    23995268.023
 113504598.127 8  88445189.832 7  21599207.141                    21599217.520
 112275843.164 8  87487734.069 7  21365385.930                    21365393.258
 119348471.429 7  92998860.548 6  22711262.359                    22711270.848
 106800340.280 8  83221120.239 8  20323409.758                    20323416.387
 113050030.731 8  88091160.01446  21512710.266                    21512715.672
 112915944.267 7  87986519.89146  21487191.516                    21487199.531
 11  8 11  2 46 30.0000000  0  8G10G26G25G12G29G05G02G30
 122355147.474 7  95341807.67444  23283398.367                    23283406.945
 125999633.000 6  98181609.38543  23976937.594                    23976946.715
 113499014.831 8  88440839.220 7  21598144.617                    21598154.797
 112334068.113 8  87533104.146 7  21376465.578                    21376473.500
 119266494.464 7  92934982.443 6  22695662.938                    22695671.125
 106818075.009 8  83234939.549 8  20326785.000                    20326791.762
 113088279.033 8  88120963.88645  21519988.461                    21519994.297
 112942864.550 7  88007496.73746  21492314.086                    21492322.395
 11  8 11  2 47  0.0000000  0  8G10G26G25G12G29G05G02G30
 122456656.403 7  95420905.55943  23302715.164                    23302723.402
 125903369.903 6  98106599.20143  23958619.117                    23958628.191
 113494013.431 8  88436942.032 7  21597193.063                    21597203.074
 112392748.232 8  87578828.893 7  21387632.188                    21387639.297
 119184582.928 7  92871155.302 6  22680075.641                    22680083.855
 106836349.352 8  83249179.340 8  20330261.891                    20330269.258
 113126624.996 8  88150843.85446  21527285.523                    21527290.984
 112970349.865 7  88028913.87846  21497544.258                    21497552.555
 11  8 11  2 47 30.0000000  0  8G10G26G25G12G29G05G02G30
 122558367.573 7  95500161.01944  23322069.859                    23322078.438
 125807124.663 6  98031602.94143  23940304.570                    23940313.426
 113489593.529 8  88433497.968 7  21596352.203                    21596362.129
 112451880.978 8  87624906.345 7  21398884.883                    21398892.402
 119102738.832 7  92807380.722 6  22664500.977                    22664509.082
 106855161.909 8  83263838.512 8  20333842.031                    20333848.699
 113165068.353 8  88180799.70645  21534600.977                    21534606.355
 112998398.424 7  88050769.89846  21502881.500                    21502889.922
 11  8 11  2 48  0.0000000  0  8G10G26G25G12G29G05G02G30
 122660278.559 7  95579572.17343  23341463.039                    23341471.664
 125710900.992 6  97956623.48743  23921993.609                    23922002.629
 113485755.444 8  88430507.275 7  21595621.516                    21595631.129
 112511463.729 8  87671334.455 7  21410223.086                    21410230.184
 119020964.212 7  92743660.261 6  22648940.508                    22648948.383
 106874512.022 8  83278916.560 8  20337523.852                    20337531.035
 113203609.220 8  88210831.54746  21541935.492                    21541941.184
 113027008.918 7  88073063.79246  21508326.180                    21508334.359
 11  8 11  2 48 30.0000000  0  8G10G26G25G12G29G05G02G30
 122762386.380 7  95659136.69043  23360893.797                    23360902.043
 125614701.620 6  97881662.96643  23903687.094                    23903696.305
 113482498.343 8  88427969.299 7  21595001.852                    21595011.574
 112571494.185 8  87718111.420 7  21421646.359                    21421653.766
 118939260.014 7  92679994.695 7  22633391.828                    22633400.629
 106894397.176 8  83294411.510 8  20341308.023                    20341315.176
 113242246.573 8  88240938.57246  21549287.547                    21549293.348
 113056179.176 7  88095793.86746  21513877.094                    21513885.387
 11  8 11  2 49  0.0000000  0  8G10G26G25G12G29G05G02G30
 122864688.172 7  95738852.35643  23380361.633                    23380369.383
 125518530.277 6  97806724.29043  23885386.859                    23885395.637
 113479822.182 8  88425884.005 7  21594492.352                    21594502.613
 112631969.678 8  87765235.172 7  21433154.539                    21433162.043
 118857628.413 7  92616385.701 7  22617858.148                    22617866.406
 106914816.535 8  83310322.729 8  20345193.867                    20345200.906
 113280980.259 8  88271120.66546  21556658.359                    21556664.102
 113085907.633 7  88118958.89546  21519534.344                    21519542.398
 11  8 11  2 49 30.0000000  0  8G10G26G25G12G29G05G02G30
 122967181.246 7  95818717.07543  23399864.633                    23399873.094
 125422390.283 6  97731810.07543  23867091.695                    23867100.695
 113477726.640 8  88424251.140 7  21594093.570                    21594103.285
 112692887.979 8  87812703.967 7  21444746.922                    21444754.512
 118776071.184 7  92552834.674 7  22602338.164                    22602346.570
 106935768.587 8  83326649.021 8  20349180.969                    20349187.984
 113319810.261 8  88301377.80846  21564047.672                    21564053.180
 113116192.478 7  88142557.47846  21525297.461                    21525305.313
 11  8 11  2 50  0.0000000  0  8G10G26G25G12G29G05G02G30
 123069862.848 7  95898728.69544  23419404.422                    23419413.164
 125326285.130 6  97656923.02743  23848803.117                    23848812.895
 113476211.510 8  88423070.534 7  21593805.211                    21593814.945
 112754246.543 8  87860515.819 7  21456423.055                    21456430.707
 118694590.227 7  92489343.065 7  22586832.305                    22586841.066
 106957252.184 8  83343389.516 8  20353269.273                    20353276.094
 113358736.209 8  88331709.71946  21571454.914                    21571460.426
 113147032.088 7  88166588.34646  21531165.836                    21531173.883
 11  8 11  2 50 30.0000000  0  8G10G26G25G12G29G05G02G30
 123172730.351 7  95978885.16144  23438979.445                    23438987.461
 125230218.256 6  97582065.77443  23830522.445                    23830532.102
 113475276.563 8  88422342.022 7  21593627.500                    21593637.512
 112816043.221 7  87908669.070 7  21468182.484                    21468190.035
 118613187.447 7  92425912.397 7  22571342.117                    22571350.867
 106979266.060 8  83360543.210 8  20357457.953                    20357464.898
 113397758.045 8  88362116.32846  21578880.625                    21578886.086
 113178424.682 7  88191050.11046  21537139.859                    21537147.949
 11  8 11  2 51  0.0000000  0  8G10G26G25G12G29G05G02G30
 123275780.888 7  96059184.23643  23458590.227                    23458597.813
 125134193.132 6  97507241.05443  23812249.313                    23812259.023
 113474921.409 8  88422065.294 7  21593559.656                    21593569.871
 112878275.894 7  87957162.040 7  21480025.039                    21480032.707
 118531864.385 7  92362543.861 7  22555867.219                    22555875.418
 107001808.550 8  83378108.811 8  20361747.727                    20361755.250
 113436875.677 8  88392597.59546  21586324.180                    21586329.770
 113210368.463 7  88215941.37246  21543218.188                    21543226.270
 11  8 11  2 51 30.0000000  0  8G10G26G25G12G29G05G02G30
 123379011.597 7  96139623.72844  23478234.273                    23478241.770
 125038212.929 7  97432451.38543  23793984.586                    23793993.891
 113475145.566 8  88422239.983 7  21593602.375                    21593612.484
 112940941.313 7  88005992.226 7  21491950.078                    21491957.453
 118450623.127 7  92299239.080 7  22540406.461                    22540416.086
 107024878.088 8  83396085.086 8  20366137.969                    20366145.031
 113476088.462 8  88423152.99946  21593786.625                    21593792.094
 113242861.481 7  88241260.61446  21549401.836                    21549409.508
 11  8 11  2 52  0.0000000  0  8G10G26G25G12G29G05G02G30
 123482419.658 7  96220201.39944  23497911.961                    23497919.793
 124942280.913 7  97357699.26144  23775728.984                    23775738.504
 113475948.489 8  88422865.656 7  21593754.898                    21593765.102
 113004036.894 8  88055157.610 7  21503956.828                    21503963.969
 118369465.341 7  92235999.336 7  22524963.242                    22524971.785
 107048472.878 8  83414470.660 8  20370627.781                    20370634.328
 113515396.006 8  88453782.25146  21601266.086                    21601271.801
 113275901.671 7  88267006.21845  21555688.922                    21555697.129
 11  8 11  2 52 30.0000000  0  8G10G26G25G12G29G05G02G30
 123586002.649 7  96300915.39943  23517622.789                    23517631.246
 124846400.651 6  97282987.47144  23757484.203                    23757493.469
 113477329.960 8  88423942.135 7  21594018.102                    21594028.137
 113067560.528 7  88104656.533 7  21516044.922                    21516051.883
 118288392.730 7  92172825.967 7  22509535.578                    22509543.934
 107072591.686 8  83433264.562 8  20375217.359                    20375224.523
 113554798.354 8  88484485.39346  21608764.000                    21608769.586
 113309487.396 7  88293176.91446  21562080.031                    21562088.137
 11  8 11  2 53  0.0000000  0  8G10G26G25G12G29G05G02G30
 123689757.947 6  96381763.65343  23537366.641                    23537375.035
 124750575.722 6  97208318.78144  23739248.813                    23739258.492
 113479289.446 8  88425469.020 7  21594390.813                    21594400.781
 113131509.655 8  88154487.013 7  21528213.898                    21528221.375
 118207407.201 7  92109720.425 7  22494124.664                    22494132.969
 107097233.100 8  83452465.677 8  20379905.883                    20379913.262
 113594295.585 8  88515262.46446  21616280.344                    21616285.871
 113343616.810 7  88319771.25146  21568574.453                    21568582.855
 11  8 11  2 53 30.0000000  0  8G10G26G25G12G29G05G02G30
 123793682.446 7  96462743.72643  23557142.945                    23557151.219
 124654809.427 6  97133695.77443  23721025.375                    23721034.809
 113481826.330 8  88427445.825 7  21594873.289                    21594883.516
 113195881.703 7  88204647.031 7  21540463.555                    21540471.012
 118126510.416 7  92046684.052 7  22478730.461                    22478738.777
 107122395.274 8  83472072.577 8  20384694.500                    20384701.195
 113633886.898 8  88546112.85946  21623814.336                    21623819.746
 113378287.706 7  88346787.53845  21575172.328                    21575179.867
 11  8 11  2 54  0.0000000  0  8G10G26G25G12G29G05G02G30
 123897773.305 7  96543853.47243  23576950.836                    23576959.148
 124559105.364 6  97059121.24044  23702812.758                    23702822.066
 113484940.242 8  88429872.259 7  21595466.078                    21595476.184
 113260674.523 8  88255134.919 7  21552793.336                    21552800.797
 118045704.575 7  91983718.536 7  22463353.422                    22463361.980
 107148076.894 8  83492084.250 8  20389581.914                    20389588.867
 113673572.506 8  88577036.71746  21631366.203                    21631371.766
 113413498.290 7  88374224.36045  21581872.516                    21581880.656
 11  8 11  2 54 30.0000000  0  9G10G26G15G25G12G29G05G02G30
 124002028.017 6  96625090.85643  23596789.367                    23596798.316
 124463467.191 6  96984598.07844  23684614.063                    23684623.461
 129400464.17716 100831587.51915  24624099.227                    24624108.648
 113488630.819 8  88432748.039 7  21596168.211                    21596178.570
 113325885.207 7  88305948.421 7  21565202.367                    21565209.473
 117964991.606 7  91920825.379 7  22447994.094                    22448002.430
 107174276.685 8  83512499.689 8  20394567.289                    20394574.254
 113713352.349 8  88608034.01245  21638936.383                    21638941.383
 113449246.734 7  88402080.28145  21588675.344                    21588683.398
 11  8 11  2 55  0.0000000  0  9G10G26G15G25G12G29G05G02G30
 124106443.674 6  96706453.69443  23616659.875                    23616667.504
 124367897.681 6  96910128.38244  23666427.664                    23666437.633
 129306319.419 6 100758228.106 5  24606183.461                    24606193.117
 113492896.974 8  88436072.317 7  21596980.398                    21596990.488
 113391510.677 8  88357085.139 7  21577690.336                    21577698.051
 117884372.844 7  91858005.634 7  22432652.953                    22432661.289
 107200992.038 8  83533316.869 8  20399650.680                    20399657.793
 113753225.543 8  88639104.04846  21646523.695                    21646528.660
 113485530.564 7  88430353.38845  21595579.750                    21595588.176
 11  8 11  2 55 30.0000000  0  9G10G26G15G25G12G29G05G02G30
 124211017.719 6  96787939.91543  23636559.609                    23636567.516
 124272400.850 7  96835715.33144  23648254.750                    23648264.656
 129212050.876 6 100684772.270 5  24588244.641                    24588254.789
 113497738.544 8  88439844.967 7  21597901.391                    21597911.613
 113457548.885 8  88408543.469 7  21590257.125                    21590264.813
 117803850.756 7  91795261.239 7  22417330.000                    22417338.551
 107228222.123 8  83554535.127 8  20404832.688                    20404839.699
 113793192.544 8  88670247.17245  21654128.898                    21654134.098
 113522348.197 7  88459042.44545  21602586.016                    21602594.504
 11  8 11  2 56  0.0000000  0  9G10G26G15G25G12G29G05G02G30
 124315747.431 7  96869547.45843  23656489.133                    23656496.793
 124176980.152 7  96761361.59444  23630097.453                    23630106.777
 129117660.708 6 100611221.642 5  24570282.414                    24570292.477
 113503154.809 8  88444065.432 7  21598932.063                    21598942.383
 113523997.349 8  88460321.476 7  21602901.727                    21602909.258
 117723427.128 7  91732593.553 7  22402025.844                    22402033.961
 107255965.181 8  83576153.106 8  20410111.766                    20410119.129
 113833253.067 8  88701463.17245  21661752.938                    21661757.809
 113559697.440 7  88488145.74445  21609693.578                    21609701.656
 11  8 11  2 56 30.0000000  0  9G10G26G15G25G12G29G05G02G30
 124420630.252 6  96951274.31543  23676447.563                    23676455.402
 124081638.766 7  96687069.65444  23611954.508                    23611963.234
 129023151.562 6 100537578.308 5  24552298.594                    24552308.371
 113509145.007 8  88448733.117 7  21600072.109                    21600082.348
 113590852.961 8  88512416.740 7  21615624.125                    21615631.633
 117643103.589 7  91670003.877 7  22386740.539                    22386749.063
 107284219.193 8  83598169.236 8  20415488.594                    20415495.680
 113873406.857 8  88732751.84845  21669393.484                    21669398.738
 113597576.133 7  88517661.60245  21616901.383                    21616909.719
 11  8 11  2 57  0.0000000  0  9G10G26G15G25G12G29G05G02G30
 124525663.119 7  97033118.06943  23696434.234                    23696442.504
 123986379.943 7  96612842.06744  23593827.563                    23593836.172
 128928525.636 6 100463843.999 6  24534291.203                    24534301.020
 113515708.083 8  88453847.198 7  21601320.781                    21601331.242
 113658113.077 8  88564827.203 7  21628423.078                    21628430.723
 117562881.899 7  91607493.562 7  22371475.039                    22371482.848
 107312981.993 8  83620581.821 8  20420961.930                    20420968.754
 113913653.035 7  88764112.52946  21677051.867                    21677057.672
 113635981.872 8  88547588.13846  21624210.008                    21624218.070
 11  8 11  2 57 30.0000000  0  9G10G26G15G25G12G29G05G02G30
 124630843.846 7  97115077.08643  23716449.719                    23716457.617
 123891207.957 7  96538682.10844  23575716.563                    23575725.492
 128833786.062 6 100390021.127 6  24516262.891                    24516273.270
 113522844.075 8  88459407.697 7  21602678.891                    21602688.953
 113725775.529 7  88617551.167 7  21641299.148                    21641307.031
 117482764.623 7  91545064.601 7  22356229.125                    22356236.559
 107342253.274 8  83643390.628 8  20426532.125                    20426539.238
 113953992.519 7  88795545.89845  21684728.172                    21684734.035
 113674913.198 7  88577924.21946  21631618.367                    21631626.730
 11  8 11  2 58  0.0000000  0  9G10G26G15G25G12G29G05G02G30
 124736169.378 6  97197148.84743  23736492.641                    23736500.461
 123796126.120 7  96464592.39444  23557622.773                    23557633.016
 128738935.587 6 100316111.774 6  24498213.242                    24498223.359
 113530552.143 8  88465413.969 7  21604145.672                    21604155.996
 113793837.647 8  88670586.558 7  21654251.063                    21654258.852
 117402753.337 7  91482718.228 7  22341003.133                    22341011.301
 107372030.961 8  83666594.027 8  20432198.383                    20432205.496
 113994425.127 7  88827051.83846  21692422.500                    21692428.082
 113714367.858 7  88608668.11145  21639126.328                    21639134.738
 11  8 11  2 58 30.0000000  0  9G10G26G15G25G12G29G05G02G30
 124841637.424 7  97279331.75943  23756562.625                    23756570.348
 123701138.006 7  96390575.72344  23539547.586                    23539556.445
 128643976.234 6 100242117.608 6  24480143.094                    24480152.922
 113538831.477 8  88471865.390 7  21605721.250                    21605731.688
 113862297.166 7  88723931.621 7  21667278.195                    21667285.711
 117322850.041 7  91420455.980 7  22325798.008                    22325806.543
 107402313.203 8  83690190.589 8  20437960.836                    20437967.910
 114034950.459 7  88858630.04046  21700134.375                    21700139.602
 113754343.710 7  88639818.12245  21646733.070                    21646741.492
 11  8 11  2 59  0.0000000  0  9G10G26G15G25G12G29G05G02G30
 124947244.802 7  97361623.19943  23776659.500                    23776666.734
 123606246.810 7  96316634.58144  23521490.102                    23521498.398
 128548910.501 6 100168040.522 6  24462052.523                    24462062.512
 113547681.224 8  88478761.286 7  21607405.477                    21607415.926
 113931150.430 8  88777583.499 7  21680380.352                    21680387.508
 117243056.975 7  91358279.631 7  22310614.156                    22310622.137
 107433098.018 8  83714178.768 8  20443819.133                    20443826.348
 114075568.286 8  88890280.31646  21707863.555                    21707868.711
 113794838.455 8  88671372.47545  21654439.438                    21654447.785
 11  8 11  2 59 30.0000000  0  9G10G26G15G25G12G29G05G02G30
 125052989.197 7  97444021.40043  23796781.258                    23796789.566
 123511456.454 7  96242772.01244  23503452.180                    23503461.199
 128453741.253 6 100093882.759 6  24443942.391                    24443951.961
 113557100.656 8  88486101.094 7  21609197.695                    21609207.684
 114000395.187 8  88831540.430 7  21693557.594                    21693564.941
 117163375.754 7  91296190.453 7  22295451.281                    22295459.262
 107464383.962 8  83738557.441 8  20449772.453                    20449779.867
 114116278.604 8  88922002.65645  21715610.555                    21715615.797
 113835849.931 7  88703329.47345  21662243.500                    21662251.398
 11  8 11  3  0  0.0000000  0  9G10G26G15G25G12G29G05G02G30
 125158867.875 7  97526524.23543  23816929.766                    23816938.008
 123416770.103 7  96168990.52244  23485433.898                    23485443.004
 128358470.997 7 100019646.322 6  24425813.539                    24425822.883
 113567088.781 8  88493884.027 7  21611098.398                    21611108.625
 114070028.684 8  88885800.290 7  21706808.500                    21706815.480
 117083807.995 8  91234189.672 7  22280309.727                    22280317.320
 107496168.716 8  83763324.805 8  20455821.109                    20455827.875
 114157081.292 8  88953796.96546  21723374.727                    21723380.156
 113877375.891 7  88735687.35945  21670145.813                    21670154.051
 11  8 11  3  0 30.0000000  0  9G10G26G15G25G12G29G05G02G30
 125264878.482 6  97609129.89243  23837103.656                    23837110.801
 123322191.642 7  96095293.07844  23467435.820                    23467444.105
 128263102.335 7  99945333.237 6  24407664.938                    24407674.547
 113577644.951 8  88502109.599 7  21613107.484                    21613117.270
 114140048.525 8  88940361.179 7  21720132.477                    21720140.445
 117004355.831 7  91172278.977 7  22265190.680                    22265198.539
 107528451.025 8  83788479.857 8  20461964.156                    20461971.258
 114197976.239 7  88985663.16945  21731156.672                    21731162.121
 113919414.224 7  88768444.50645  21678145.117                    21678153.727
 11  8 11  3  1  0.0000000  0  9G10G26G15G25G12G29G05G02G30
 125371017.790 6  97691835.86943  23857300.977                    23857308.137
 123227724.139 7  96021682.09444  23449459.234                    23449468.441
 128167637.404 7  99870945.109 6  24389498.023                    24389508.559
 113588767.676 8  88510776.650 7  21615223.719                    21615233.891
 114210451.135 8  88995220.337 7  21733529.781                    21733537.098
 116925021.525 7  91110460.129 7  22250093.711                    22250101.613
 107561228.423 8  83814020.703 8  20468201.344                    20468208.328
 114238962.860 8  89017600.79745  21738956.250                    21738961.449
 113961962.115 7  88801598.69645  21686241.641                    21686249.922
 11  8 11  3  1 30.0000000  0  9G10G26G15G25G12G29G05G02G30
 125477283.432 6  97774640.28943  23877521.586                    23877529.832
 123133371.426 7  95948160.54944  23431504.531                    23431513.457
 128072079.459 7  99796484.467 6  24371313.938                    24371323.922
 113600456.790 8  88519885.035 7  21617448.086                    21617458.523
 114281234.842 8  89050376.454 7  21746999.273                    21747006.980
 116845807.354 7  91048734.921 7  22235019.758                    22235027.367
 107594499.842 8  83839946.489 8  20474532.695                    20474539.887
 114280041.596 8  89049610.23445  21746773.398                    21746778.734
 114005017.923 7  88835148.68245  21694435.203                    21694443.281
 11  8 11  3  2  0.0000000  0  9G10G26G15G25G12G29G05G02G30
 125583673.137 6  97857541.31843  23897767.180                    23897775.398
 123039137.182 7  95874731.34744  23413572.695                    23413581.316
 127976430.879 7  99721953.268 6  24353113.148                    24353122.457
 113612711.116 8  88529433.858 7  21619780.086                    21619790.383
 114352396.369 7  89105826.965 7  21760541.109                    21760549.012
 116766714.952 7  90987104.597 7  22219968.391                    22219976.699
 107628263.324 8  83866255.705 8  20480957.828                    20480964.602
 114321212.255 8  89081691.27745  21754607.680                    21754613.238
 114048579.204 7  88869092.53445  21702724.820                    21702732.391
 11  8 11  3  2 30.0000000  0  9G10G26G15G25G12G29G05G02G30
 125690184.085 6  97940536.89243  23918034.703                    23918044.133
 122945025.049 7  95801397.28544  23395663.375                    23395672.547
 127880694.368 7  99647353.505 6  24334895.016                    24334903.785
 113625529.807 8  88539422.444 7  21622219.445                    21622229.289
 114423933.001 8  89161569.771 7  21774154.063                    21774161.855
 116687746.498 7  90925570.851 7  22204941.703                    22204948.711
 107662517.068 8  83892946.945 8  20487476.164                    20487483.406
 114362474.729 8  89113843.86845  21762459.961                    21762464.988
 114092643.710 7  88903428.50745  21711109.367                    21711117.859
 11  8 11  3  3  0.0000000  0  9G10G26G15G25G12G29G05G02G30
 125796813.386 6  98023624.66843  23938326.242                    23938334.164
 122851038.337 7  95728160.96744  23377777.992                    23377787.043
 127784872.490 7  99572687.238 6  24316660.406                    24316670.156
 113638911.618 8  88549849.826 7  21624765.711                    21624775.961
 114495841.812 7  89217602.605 7  21787837.906                    21787845.863
 116608903.576 7  90864134.911 7  22189938.367                    22189945.988
 107697258.650 8  83920018.324 8  20494087.031                    20494094.141
 114403828.830 7  89146067.84445  21770329.328                    21770334.738
 114137208.889 7  88938154.61845  21719590.125                    21719598.102
 11  8 11  3  3 30.0000000  0  9G10G26G15G25G12G29G05G02G30
 125903558.825 6  98106802.95443  23958639.891                    23958647.453
 122757181.104 7  95655025.51344  23359917.898                    23359927.383
 127688968.019 6  99497956.593 6  24298409.891                    24298420.234
 113652856.045 8  88560715.606 7  21627419.563                    21627429.246
 114568120.518 7  89273923.643 7  21801591.922                    21801599.852
 116530188.731 7  90802798.765 7  22174958.938                    22174966.719
 107732486.954 8  83947468.963 8  20500790.938                    20500797.930
 114445275.175 8  89178363.69345  21778216.164                    21778221.699
 114182272.855 7  88973269.39245  21728165.734                    21728173.777
 11  8 11  3  4  0.0000000  0  9G10G26G15G25G12G29G05G02G30
 126010417.562 6  98190069.50043  23978974.156                    23978982.176
 122663456.178 7  95581993.18344  23342082.320                    23342091.199
 127592983.129 6  99423163.304 6  24280144.969                    24280154.457
 113667361.380 8  88572018.462 7  21630179.758                    21630189.879
 114640766.284 7  89330530.723 7  21815416.188                    21815423.875
 116451603.392 7  90741563.496 7  22160004.977                    22160012.441
 107768199.117 8  83975296.630 8  20507586.641                    20507593.754
 114486812.790 7  89210730.66345  21786119.945                    21786126.066
 114227832.589 7  89008770.47345  21736835.516                    21736843.262
 11  8 11  3  4 30.0000000  0  9G10G26G15G25G12G29G05G02G30
 126117387.503 6  98273422.69843  23999329.609                    23999337.773
 122569867.879 7  95509067.32044  23324273.102                    23324282.352
 127496920.922 6  99348309.757 6  24261865.031                    24261873.930
 113682427.236 8  88583758.085 7  21633046.781                    21633056.699
 114713775.942 7  89387421.352 7  21829309.477                    21829317.348
 116373150.128 7  90680431.143 7  22145075.766                    22145083.516
 107804394.250 8  84003500.644 8  20514474.578                    20514481.301
 114528442.351 8  89243169.28345  21794041.914                    21794047.465
 114273886.423 8  89044656.57645  21745599.328                    21745607.320
 11  8 11  3  5  0.0000000  0  9G10G26G15G25G12G29G05G02G30
 126224465.708 6  98356860.26743  24019705.867                    24019713.914
 122476419.549 7  95436250.52344  23306489.906                    23306499.516
 127400784.198 6  99273398.169 6  24243570.266                    24243579.629
 113698052.263 8  88595933.431 7  21636019.906                    21636030.094
 114787146.681 7  89444593.342 7  21843271.414                    21843279.043
 116294830.845 7  90619403.177 7  22130171.680                    22130179.352
 107841070.176 8  84032079.289 8  20521453.750                    20521460.566
 114570163.457 7  89275679.23745  21801981.648                    21801987.082
 114320431.596 8  89080925.52545  21754456.055                    21754464.344
 11  8 11  3  5 30.0000000  0  9G10G26G15G25G12G29G05G02G30
 126331649.533 6  98440380.16643  24040102.781                    24040110.328
 122383114.643 7  95363545.47744  23288734.891                    23288744.000
 127304575.199 6  99198430.187 6  24225261.391                    24225270.996
 113714235.100 8  88608543.435 7  21639099.648                    21639109.770
 114860875.703 7  89502044.507 7  21857301.492                    21857309.379
 116216647.483 7  90558481.118 7  22115293.703                    22115301.348
 107878224.295 8  84061030.556 8  20528523.656                    20528530.992
 114611975.761 8  89308260.25645  21809938.414                    21809943.766
 114367465.491 8  89117575.30345  21763406.648                    21763414.734
 11  8 11  3  6  0.0000000  0  9G10G26G15G25G12G29G05G02G30
 126438936.427 6  98523980.34543  24060518.234                    24060526.207
 122289957.012 7  95290955.15844  23271007.242                    23271016.992
 127208297.073 6  99123408.388 5  24206941.289                    24206950.570
 113730974.958 8  88621587.487 7  21642284.867                    21642294.895
 114934960.660 7  89559773.027 7  21871399.570                    21871406.996
 116138602.386 7  90497666.794 7  22100442.164                    22100450.027
 107915855.395 8  84090353.489 8  20535684.891                    20535691.598
 114653879.602 7  89340912.61745  21817912.250                    21817917.461
 114414985.974 8  89154604.23645  21772449.602                    21772457.648
 11  8 11  3  6 30.0000000  0  9G10G26G15G25G12G29G05G02G30
 126546323.865 6  98607658.88643  24080953.461                    24080961.715
 122196950.019 7  95218482.24544  23253309.352                    23253318.332
 127111952.139 6  99048334.524 5  24188607.023                    24188616.375
 113748270.467 8  88635064.515 7  21645576.406                    21645586.504
 115009398.296 7  89617776.364 7  21885564.453                    21885572.039
 116060697.560 7  90436961.773 7  22085617.938                    22085625.043
 107953961.283 8  84120046.403 8  20542935.984                    20542943.316
 114695875.039 8  89373636.34645  21825903.141                    21825908.980
 114462990.396 8  89192010.28045  21781584.625                    21781592.602
 11  8 11  3  7  0.0000000  0  9G10G26G15G25G12G29G05G02G30
 126653809.766 6  98691414.12743  24101407.383                    24101415.820
 122104097.445 7  95146129.64644  23235639.930                    23235648.430
 127015543.337 7  98973210.873 5  24170261.617                    24170270.047
 113766120.508 8  88648973.632 7  21648973.109                    21648983.395
 115084185.858 7  89676052.374 7  21899796.188                    21899803.578
 115982934.289 7  90376367.043 7  22070820.016                    22070827.387
 107992539.939 7  84150107.701 8  20550277.680                    20550284.637
 114737961.798 7  89406431.22045  21833912.578                    21833918.145
 114511476.397 8  89229791.57045  21790811.164                    21790818.898
 11  8 11  3  7 30.0000000  0  9G10G26G15G25G12G29G05G02G30
 126761391.166 6  98775243.67543  24121879.617                    24121887.535
 122011402.773 7  95073900.10544  23218000.258                    23218009.242
 126919073.304 7  98898039.531 5  24151903.250                    24151912.305
 113784523.991 8  88663314.006 7  21652474.953                    21652485.191
 115159320.335 7  89734598.705 7  21914093.664                    21914100.996
 115905315.386 7  90315884.810 7  22056049.508                    22056057.180
 108031589.486 8  84180535.936 8  20557708.070                    20557715.629
 114780139.835 8  89439297.24745  21841939.102                    21841944.219
 114560441.571 8  89267946.23745  21800128.633                    21800136.746
 11  8 11  3  8  0.0000000  0  9G10G26G15G25G12G29G05G02G30
 126869065.363 6  98859145.63543  24142369.563                    24142377.762
 121918869.708 7  95001796.46844  23200391.891                    23200400.883
 126822544.763 6  98822822.580 6  24133534.656                    24133543.121
 113803479.407 8  88678084.457 7  21656081.898                    21656092.383
 115234798.915 7  89793413.167 7  21928457.281                    21928465.078
 115827843.008 7  90255516.745 7  22041306.711                    22041314.621
 108071107.577 8  84211329.258 8  20565228.000                    20565234.980
 114822409.232 8  89472234.45445  21849982.547                    21849987.625
 114609883.116 8  89306472.11145  21809537.344                    21809545.230
 11  8 11  3  8 30.0000000  0  9G10G26G15G25G12G29G05G02G30
 126976830.032 6  98943118.20443  24162875.711                    24162884.500
 121826501.518 7  94929821.30244  23182814.703                    23182824.027
 126725959.953 7  98747561.823 6  24115154.805                    24115163.441
 113822985.317 8  88693283.877 7  21659793.688                    21659804.191
 115310618.486 7  89852493.331 7  21942885.242                    21942892.664
 115750518.766 7  90195264.116 7  22026592.367                    22026600.418
 108111091.955 8  84242485.922 8  20572837.086                    20572844.230
 114864769.652 8  89505242.59245  21858043.391                    21858048.770
 114659798.313 8  89345367.06245  21819036.047                    21819044.297
 11  8 11  3  9  0.0000000  0  9G10G26G15G25G12G29G05G02G30
 127084682.672 6  99027159.29043  24183399.859                    24183408.230
 121734301.946 7  94857977.53044  23165270.000                    23165278.449
 126629322.026 6  98672259.670 6  24096765.344                    24096774.563
 113843040.762 8  88708911.498 7  21663610.445                    21663620.637
 115386776.555 8  89911837.262 7  21957377.500                    21957384.832
 115673344.993 7  90135128.723 7  22011907.031                    22011914.539
 108151540.865 8  84274004.560 8  20580534.195                    20580541.121
 114907221.250 8  89538321.76945  21866121.852                    21866126.859
 114710184.933 8  89384629.36645  21828623.898                    21828632.324
 11  8 11  3  9 30.0000000  0  9G10G26G15G25G12G29G05G02G30
 127192620.865 6  99111266.88643  24203940.336                    24203947.773
 121642275.023 7  94786268.28144  23147757.266                    23147766.656
 126532633.750 6  98596918.268 6  24078366.680                    24078375.332
 113863644.400 8  88724966.277 7  21667531.102                    21667541.422
 115463270.248 7  89971442.728 7  21971933.906                    21971941.227
 115596323.931 7  90075112.313 7  21997250.141                    21997257.805
 108192452.520 8  84305883.777 8  20588319.602                    20588326.289
 114949764.148 8  89571472.08945  21874217.133                    21874222.445
 114761040.388 8  89424256.98445  21838301.797                    21838310.043
 11  8 11  3 10  0.0000000  0  9G10G26G15G25G12G29G05G02G30
 127300642.224 6  99195439.49243  24224495.266                    24224503.699
 121550424.002 7  94714696.11044  23130278.734                    23130287.969
 126435897.477 6  98521539.489 6  24059957.289                    24059967.340
 113884794.674 8  88741447.007 7  21671556.063                    21671566.152
 115540096.721 8  90031307.488 7  21986553.195                    21986560.352
 115519457.351 7  90015216.306 7  21982623.141                    21982630.887
 108233824.573 8  84338121.754 8  20596192.141                    20596199.375
 114992398.229 8  89604693.47345  21882330.086                    21882335.461
 114812361.897 8  89464247.76945  21848067.531                    21848075.824
 11  8 11  3 10 30.0000000  0  9G10G26G15G25G12G29G05G02G30
 127408744.138 6  99279674.74743  24245066.555                    24245075.336
 121458752.888 7  94643264.14044  23112834.680                    23112843.457
 126339116.635 6  98446125.989 6  24041541.281                    24041550.316
 113906490.654 8  88758352.961 7  21675684.438                    21675695.016
 115617252.757 8  90091429.067 7  22001235.445                    22001242.949
 115442747.761 7  89955442.622 7  21968025.602                    21968033.289
 108275655.273 8  84370717.109 8  20604152.281                    20604159.363
 115035123.948 8  89637986.27145  21890460.766                    21890466.102
 114864147.353 8  89504600.06545  21857922.148                    21857930.242
 11  8 11  3 11  0.0000000  0  9G10G26G15G25G12G29G05G02G30
 127516924.155 6  99363970.91743  24265652.508                    24265660.852
 121367265.079 7  94571974.98544  23095425.133                    23095433.121
 126242293.436 7  98370679.475 6  24023116.836                    24023125.125
 113928730.714 8  88775682.871 7  21679916.875                    21679927.160
 115694735.587 8  90151805.287 7  22015979.805                    22015987.496
 115366197.138 8  89895792.807 7  21953458.727                    21953466.504
 108317942.203 8  84403667.974 8  20612198.891                    20612206.074
 115077941.000 7  89671350.23345  21898608.250                    21898613.578
 114916393.758 8  89545311.55445  21867864.055                    21867872.633
 11  8 11  3 11 30.0000000  0  9G10G26G15G25G12G29G05G02G30
 127625179.671 6  99448325.90843  24286252.305                    24286261.004
 121275964.298 7  94500831.59844  23078050.391                    23078059.348
 126145431.188 6  98295202.536 6  24004683.844                    24004692.281
 113951513.526 8  88793435.706 7  21684252.039                    21684262.465
 115772542.520 8  90212434.047 7  22030786.305                    22030793.758
 115289807.625 7  89836268.544 7  21938922.156                    21938929.656
 108360683.510 8  84436972.890 8  20620332.969                    20620339.992
 115120849.450 7  89704785.41745  21906773.359                    21906778.645
 114969098.638 8  89586380.29145  21877893.625                    21877901.926
 11  8 11  3 12  0.0000000  0  9G10G26G15G25G12G29G05G02G30
 127733508.422 6  99532737.96743  24306867.320                    24306875.277
 121184854.255 7  94429836.82744  23060713.391                    23060722.086
 126048532.183 7  98219696.926 6  23986244.359                    23986253.098
 113974837.626 8  88811610.328 7  21688690.461                    21688700.938
 115850670.215 8  90273312.752 7  22045653.234                    22045661.367
 115213581.424 7  89776871.543 7  21924416.234                    21924424.531
 108403876.762 8  84470629.973 8  20628552.281                    20628559.016
 115163849.218 7  89738291.73645  21914956.195                    21914961.629
 115022259.301 8  89627804.18245  21888009.898                    21888018.691
 11  8 11  3 12 30.0000000  0  9G10G26G15G25G12G29G05G02G30
 127841908.107 6  99617205.27743  24327494.164                    24327503.230
 121093938.871 7  94358993.73644  23043412.328                    23043421.434
 125951599.629 6  98144165.213 6  23967797.992                    23967807.719
 113998701.873 8  88830205.838 7  21693231.883                    21693241.773
 115929116.136 8  90334439.426 7  22060580.906                    22060588.699
 115137520.885 7  89717603.623 7  21909942.633                    21909950.215
 108447520.529 8  84504638.110 8  20636856.992                    20636864.285
 115206940.649 8  89771869.49145  21923156.398                    21923161.301
 115075873.384 8  89669581.38645  21898212.516                    21898220.676
 11  8 11  3 13  0.0000000  0  9G10G26G15G25G12G29G05G02G30
 127950376.238 6  99701725.91543  24348135.750                    24348143.891
 121003221.685 7  94288305.08144  23026149.648                    23026158.012
 125854636.145 6  98068609.359 6  23949346.672                    23949356.035
 114023104.587 8  88849220.943 7  21697875.352                    21697885.684
 116007877.245 8  90395811.702 7  22075569.102                    22075576.469
 115061627.818 8  89658466.199 7  21895500.875                    21895508.402
 108491612.320 8  84538995.360 8  20645247.578                    20645254.711
 115250123.651 8  89805518.59045  21931373.344                    21931379.000
 115129938.060 8  89711709.70445  21908500.680                    21908508.895
 11  8 11  3 13 30.0000000  0 10G10G26G15G25G12G29G05G21G02G30
 128058910.258 6  99786297.90043  24368789.000                    24368797.250
 120912706.087 7  94217773.48744  23008924.977                    23008933.363
 125757644.440 6  97993031.523 6  23930889.523                    23930898.504
 114048044.169 8  88868654.373 7  21702621.273                    21702631.453
 116086950.484 8  90457427.202 7  22090616.258                    22090623.941
 114985904.722 7  89599461.232 7  21881090.844                    21881098.566
 108536149.952 8  84573700.011 8  20653722.711                    20653729.625
 132311373.99516 103099837.64853  25178024.383                    25178033.727
 115293398.386 8  89839239.18545  21939608.539                    21939614.078
 115184450.480 8  89754186.91645  21918873.633                    21918882.195
 11  8 11  3 14  0.0000000  0 10G10G26G15G25G12G29G05G21G02G30
 128167508.354 6  99870919.81943  24389453.891                    24389462.254
 120822396.367 7  94147402.33944  22991739.594                    22991747.805
 125660627.997 6  97917434.412 6  23912427.867                    23912436.676
 114073519.690 8  88888505.437 7  21707469.055                    21707479.117
 116166333.722 8  90519284.262 7  22105722.344                    22105729.805
 114910353.992 7  89540590.558 7  21866714.250                    21866721.867
 108581131.897 8  84608750.904 8  20662282.500                    20662289.578
 132253623.111 6 103054837.05343  25167035.141                    25167044.527
 115336765.197 8  89873031.51745  21947861.156                    21947866.332
 115239408.586 8  89797011.40745  21929331.695                    21929339.910
